[[[{"header":{"parameterUnit":"kt","parameterCategory":2,"dx":1,"dy":1,"la1":29.285339999999998,"la2":30.599998999999997,"lo1":-89.70041500000002,"lo2":-87.6738589999976,"nx":112,"ny":82,"refTime":"2022-09-27T06:00:00:Z","depth":0,"parameterNumber":1,"parameterNumberName":"U-component_of_WINDS"},"data":[13.7994,13.7517,0.0,13.6389,13.5521,0.0,13.5377,0.0,13.4128,13.4631,13.3814,13.3164,13.3164,13.3164,13.3164,13.3164,13.3164,13.307,0.0,13.4384,0.0,0.0,0.0,14.347,14.5196,0.0,0.0,0.0,0.0,0.0,0.0,0.0,15.4533,15.3638,15.2985,15.1259,14.837,14.8668,14.8126,14.6646,14.5667,14.4506,14.3454,14.2505,14.1843,14.126,14.126,14.126,14.126,14.126,14.126,14.126,14.126,14.126,14.126,14.126,14.126,14.126,14.126,14.126,14.126,14.126,14.126,14.126,14.126,14.126,14.1461,14.2534,14.2065,14.1528,14.2534,14.3808,14.4948,14.5484,14.7495,14.9909,15.1987,15.3127,15.4334,15.6345,15.7485,15.8172,15.8149,15.784,15.746,15.727,15.6693,15.6304,15.5913,15.5913,15.5913,15.5913,15.5913,15.5913,15.5913,15.5058,15.3677,15.1705,15.0718,14.8901,14.5993,14.755,14.8914,14.9433,15.0282,15.1023,15.1646,15.2161,15.1095,14.8939,14.8939,14.6938,0.0,0.0,13.5377,13.4776,0.0,0.0,0.0,13.3814,13.3453,13.4487,13.3814,13.3164,13.3164,13.3164,13.3309,13.3814,13.3525,13.3525,0.0,13.4798,0.0,0.0,0.0,0.0,0.0,0.0,0.0,0.0,0.0,0.0,0.0,15.6811,15.5245,15.3682,15.2034,14.9754,14.6572,14.7062,14.6508,14.4946,14.3909,14.3216,14.2662,14.1682,14.126,14.126,14.126,14.126,14.126,14.126,14.126,14.126,14.126,14.126,14.126,14.126,14.126,14.126,14.126,14.126,14.126,14.126,14.126,14.126,14.126,14.126,14.126,14.126,14.126,14.126,14.126,14.3473,14.5618,14.5618,14.83,15.1317,15.2792,15.4267,15.5742,15.7217,15.8289,15.8842,15.8656,15.8028,15.765,15.746,15.7078,15.6499,15.5913,15.5913,15.5913,15.5913,15.5913,15.5913,15.5913,15.5058,15.3875,15.2428,15.0801,14.8785,14.6642,14.7603,14.883,15.0147,14.9644,14.9947,15.1307,15.0456,14.8876,14.6486,14.7388,14.5634,13.3525,13.427,13.5087,13.3525,13.3164,13.3164,13.3164,13.3164,13.3164,13.3164,13.3164,13.3164,13.3237,13.3237,13.367,13.5304,13.427,0.0,0.0,13.6363,13.703,0.0,0.0,0.0,0.0,0.0,0.0,0.0,0.0,0.0,15.9472,15.5195,15.3336,15.4815,15.0413,14.7959,14.7959,14.6502,14.4946,14.3301,14.3301,14.2662,14.126,14.126,14.126,14.126,14.126,14.126,14.126,14.126,14.126,14.126,14.126,14.126,14.126,14.126,14.126,14.126,14.126,14.126,14.126,14.126,14.126,14.126,14.126,14.126,14.126,14.126,14.126,14.126,14.126,14.3473,14.5685,14.5685,14.9104,15.2792,15.4267,15.5675,15.715,15.8692,15.9027,15.9027,15.9027,15.8589,15.8028,15.765,15.7078,15.6499,15.5913,15.5913,15.5913,15.5913,15.5913,15.5913,15.5913,15.5913,15.5321,15.394,15.1575,15.0525,15.119,14.93,14.9748,15.3289,15.1173,14.9691,14.872,14.6486,14.4304,14.1868,14.4304,14.407,13.3309,13.3453,13.367,13.3309,13.3164,13.3164,13.3164,13.3164,13.3164,13.3164,13.3164,0.0,0.0,0.0,13.4053,13.6701,0.0,13.5595,0.0,13.8238,0.0,0.0,0.0,0.0,0.0,0.0,0.0,0.0,0.0,0.0,15.6332,15.3002,15.0751,14.9993,14.7689,14.542,14.3114,14.388,14.3369,14.2004,14.2004,14.1682,14.126,14.126,14.126,14.126,14.126,14.126,14.126,14.126,14.126,14.126,14.126,14.126,14.126,14.126,14.126,14.126,14.126,14.126,14.126,14.126,14.126,14.126,14.126,14.126,14.126,14.126,14.126,14.126,14.126,14.3473,14.5685,14.5685,14.9104,15.2792,15.4267,15.5675,15.715,15.8692,15.9027,15.9027,15.9027,15.8842,15.8589,15.8028,15.765,15.7078,15.6499,15.6109,15.5913,15.5913,15.5913,15.5913,15.5913,15.5913,15.5716,15.5321,15.216,14.8286,14.4142,14.5943,14.6851,14.6366,14.6489,14.6504,14.6259,14.5802,14.4304,14.1868,14.253,14.253,13.3164,13.3164,13.3164,13.3164,13.3164,13.3164,13.3164,13.3164,13.3164,13.3164,0.0,0.0,0.0,0.0,0.0,0.0,13.7956,0.0,0.0,0.0,14.2758,0.0,0.0,0.0,0.0,0.0,0.0,0.0,0.0,15.569,15.4225,15.1224,14.8808,14.7222,14.5032,14.3129,14.126,14.2096,14.2096,14.126,14.126,14.126,14.126,14.126,14.126,14.126,14.126,14.126,14.126,14.126,14.126,14.126,14.126,14.126,14.126,14.126,14.126,14.126,14.126,14.126,14.126,14.126,14.126,14.126,14.126,14.126,14.126,14.126,14.126,14.126,14.126,14.3003,14.4747,14.4747,14.8635,15.2658,15.3462,15.5809,15.7954,15.8826,15.9027,15.9027,15.9027,15.9027,15.8842,15.8028,15.784,15.746,15.6886,15.6499,15.6304,15.6304,15.6109,15.5913,15.5913,15.5913,15.5453,15.4591,15.2263,14.8591,14.3235,14.51,14.5919,14.5758,14.5432,14.5343,14.5343,14.4477,14.3186,14.1868,14.1868,14.1868,13.3164,13.3164,13.3164,13.3164,13.3164,13.3237,13.3381,0.0,13.3453,13.3598,0.0,0.0,13.5738,0.0,0.0,0.0,0.0,0.0,14.6411,14.5017,0.0,0.0,0.0,0.0,0.0,0.0,15.4985,15.2907,15.5385,15.5601,15.2414,14.9437,14.724,14.5793,14.2839,14.126,14.126,14.126,14.126,14.126,14.126,14.126,14.126,14.126,14.126,14.126,14.126,14.126,14.126,14.126,14.126,14.126,14.126,14.126,14.126,14.126,14.126,14.126,14.126,14.126,14.126,14.126,14.126,14.126,14.126,14.126,14.126,14.126,14.126,14.126,14.126,14.2333,14.3406,14.3406,14.8032,15.2389,15.2389,15.5876,15.9027,15.9027,15.9027,15.9027,15.9027,15.9027,15.8656,15.784,15.8028,15.784,15.7078,15.6693,15.6693,15.6693,15.6304,15.5847,15.5453,15.5453,15.4591,15.2211,15.1728,14.9747,14.5573,14.5173,14.6031,14.8057,14.6259,14.5343,14.4942,14.2948,14.1868,14.1868,14.1868,14.1868,13.3164,13.3164,13.3164,13.3164,13.3164,13.3453,0.0,0.0,0.0,13.6629,0.0,0.0,0.0,0.0,0.0,0.0,0.0,0.0,0.0,0.0,0.0,0.0,0.0,0.0,0.0,15.3694,15.353,15.2765,15.2253,15.1056,14.9112,14.7274,14.5506,14.3932,14.2231,14.126,14.126,14.126,14.126,14.126,14.126,14.126,14.126,14.126,14.126,14.126,14.126,14.126,14.126,14.126,14.126,14.126,14.126,14.126,14.126,14.126,14.126,14.126,14.126,14.126,14.126,14.126,14.126,14.126,14.126,14.126,14.126,14.126,14.126,14.126,14.126,14.2333,14.3406,14.3406,14.8032,15.2389,15.2389,15.5876,15.9027,15.9027,15.9027,15.9027,15.9027,15.9027,15.9027,15.8775,15.847,15.8216,15.8028,15.727,15.6693,15.6693,15.6304,15.5255,15.3309,15.3039,15.2002,14.981,14.7772,14.6259,14.5343,14.3599,14.277,14.3186,14.471,14.4477,14.253,14.2109,14.1868,14.1868,14.1868,14.1868,13.3164,13.3164,13.3164,13.3164,13.3164,0.0,0.0,13.4874,13.4968,13.7255,13.7858,13.8606,14.1043,0.0,0.0,0.0,0.0,0.0,0.0,0.0,0.0,0.0,0.0,0.0,0.0,15.3674,15.2291,15.0575,14.8989,14.7422,14.5883,14.5035,14.4003,14.2347,14.1682,14.126,14.126,14.126,14.126,14.126,14.126,14.126,14.126,14.126,14.126,14.126,14.126,14.126,14.126,14.126,14.126,14.126,14.126,14.126,14.126,14.126,14.126,14.126,14.126,14.126,14.126,14.126,14.126,14.126,14.126,14.126,14.126,14.126,14.126,14.126,14.126,14.1797,14.2333,14.2333,14.6356,15.0378,15.1116,15.4736,15.8088,15.8826,15.8356,15.8088,15.8893,15.9027,15.9027,15.8656,15.8589,15.8589,15.8216,15.784,15.727,15.7078,15.6693,15.519,15.2626,15.2419,15.0883,14.7326,14.6031,14.4942,14.3599,14.253,14.1868,14.1868,14.2948,14.2948,14.1868,14.1868,14.1868,14.1868,14.1868,14.1868,13.3164,13.3164,13.3164,13.3164,13.3381,0.0,13.5594,13.5184,13.5362,0.0,13.9248,14.0084,0.0,0.0,0.0,0.0,0.0,0.0,0.0,0.0,0.0,0.0,0.0,0.0,0.0,15.3077,15.0718,14.7872,14.6544,14.5152,14.3485,14.347,14.2838,14.1424,14.126,14.126,14.126,14.126,14.126,14.126,14.126,14.126,14.126,14.126,14.126,14.126,14.126,14.126,14.126,14.126,14.126,14.126,14.126,14.126,14.126,14.126,14.126,14.126,14.126,14.126,14.126,14.126,14.126,14.126,14.126,14.126,14.126,14.126,14.126,14.126,14.126,14.126,14.126,14.126,14.4679,14.83,14.944,15.3194,15.6747,15.8289,15.782,15.7552,15.8826,15.9027,15.8842,15.8403,15.8775,15.8842,15.8403,15.8216,15.784,15.746,15.6433,15.4726,15.1938,15.1307,14.9313,14.4942,14.471,14.3835,14.1868,14.1868,14.1868,14.1868,14.1868,14.1868,14.1868,14.1868,14.1868,14.1868,14.1868,14.1868,13.3164,13.3164,13.3164,13.3164,13.4198,0.0,13.723,13.8678,14.0458,0.0,0.0,0.0,0.0,0.0,0.0,0.0,0.0,0.0,0.0,0.0,0.0,0.0,0.0,0.0,15.1529,14.972,14.7961,14.6229,14.5883,14.5084,14.3514,14.342,14.2853,14.1327,14.126,14.126,14.126,14.126,14.126,14.126,14.126,14.126,14.126,14.126,14.126,14.126,14.126,14.126,14.126,14.126,14.126,14.126,14.126,14.126,14.126,14.126,14.126,14.126,14.126,14.126,14.126,14.126,14.126,14.126,14.126,14.126,14.126,14.126,14.126,14.126,14.126,14.126,14.126,14.126,14.4679,14.7965,14.8166,15.1652,15.5205,15.668,15.7954,15.8826,15.896,15.9027,15.9027,15.9027,15.9027,15.9027,15.9027,15.8028,15.746,15.746,15.4726,15.1938,14.9594,14.7388,14.5173,14.253,14.229,14.2109,14.1868,14.1868,14.1868,14.1868,14.1868,14.1868,14.1868,14.1868,14.1868,14.1868,14.1868,14.1868,13.3164,13.3164,13.3381,13.427,0.0,0.0,13.986,14.053,14.1541,0.0,14.7122,0.0,0.0,0.0,0.0,0.0,0.0,0.0,0.0,0.0,0.0,0.0,0.0,0.0,0.0,14.9221,14.7,14.4563,14.4392,14.3769,14.2326,14.2162,14.1894,14.126,14.126,14.126,14.126,14.126,14.126,14.126,14.126,14.126,14.126,14.126,14.126,14.126,14.126,14.126,14.126,14.126,14.126,14.126,14.126,14.126,14.126,14.126,14.126,14.126,14.126,14.126,14.126,14.126,14.126,14.126,14.126,14.126,14.126,14.126,14.126,14.126,14.126,14.126,14.126,14.126,14.4009,14.6892,14.7763,15.1451,15.4736,15.5339,15.668,15.7954,15.8826,15.8216,15.7517,15.7517,15.6753,15.6173,15.6173,15.5059,15.4194,15.3993,15.2082,14.9684,14.7163,14.6031,14.4477,14.2109,14.115,14.109,14.1808,14.115,14.109,14.1868,14.1868,14.1868,14.1868,14.1868,14.1449,14.0731,13.9893,13.9534,13.3164,0.0,0.0,0.0,0.0,0.0,14.1758,14.206,14.2854,14.7164,14.9374,0.0,0.0,0.0,0.0,0.0,0.0,0.0,0.0,0.0,0.0,0.0,0.0,0.0,0.0,0.0,0.0,0.0,14.3162,14.246,14.1327,14.126,14.126,14.126,14.126,14.126,14.126,14.126,14.126,14.126,14.126,14.126,14.126,14.126,14.126,14.126,14.126,14.126,14.126,14.126,14.126,14.126,14.126,14.126,14.126,14.126,14.126,14.126,14.126,14.126,14.126,14.126,14.126,14.126,14.126,14.126,14.126,14.126,14.126,14.126,14.126,14.126,14.126,14.126,14.354,14.5953,14.7093,15.0512,15.3596,15.4401,15.5742,15.7034,15.8136,15.7328,15.6301,15.5846,15.486,15.4123,15.4123,15.291,15.1809,15.139,14.962,14.771,14.5573,14.4343,14.3053,14.157,14.0432,14.0193,14.0731,14.0193,14.0372,14.1329,14.1329,14.1509,14.1868,14.109,14.0252,13.9295,13.8278,13.8039,0.0,0.0,0.0,13.5449,13.7858,14.0647,14.2336,14.3831,14.5852,14.9127,15.1038,0.0,0.0,0.0,0.0,0.0,0.0,0.0,0.0,0.0,0.0,0.0,0.0,0.0,0.0,0.0,0.0,0.0,14.2095,14.1327,14.126,14.126,14.126,14.126,14.126,14.126,14.126,14.126,14.126,14.126,14.126,14.126,14.126,14.126,14.126,14.126,14.126,14.126,14.126,14.126,14.126,14.126,14.126,14.126,14.126,14.126,14.126,14.126,14.126,14.126,14.126,14.126,14.126,14.126,14.126,14.126,14.126,14.126,14.126,14.126,14.126,14.126,14.126,14.126,14.354,14.5685,14.5685,14.8099,15.1116,15.3998,15.5742,15.6599,15.6489,15.6561,15.5912,15.4526,15.4123,15.4123,15.4123,15.2562,15.139,15.139,14.7932,14.5573,14.5343,14.2212,14.0191,13.9953,13.9953,13.9295,13.7979,13.9235,13.9953,13.9953,13.9953,14.0611,14.1868,13.9235,13.7919,13.7859,13.7859,13.8577,13.4198,13.5087,13.6028,13.8219,14.0286,14.2552,14.524,14.7102,14.8803,15.0966,15.2698,0.0,0.0,0.0,0.0,0.0,0.0,0.0,0.0,0.0,0.0,0.0,0.0,0.0,0.0,0.0,0.0,0.0,0.0,0.0,14.126,14.126,14.126,14.126,14.126,14.126,14.126,14.126,14.126,14.126,14.126,14.126,14.126,14.126,14.126,14.126,14.126,14.126,14.126,14.126,14.126,14.126,14.126,14.126,14.126,14.126,14.126,14.126,14.126,14.126,14.126,14.126,14.126,14.126,14.126,14.126,14.126,14.126,14.126,14.126,14.126,14.126,14.126,14.126,14.2735,14.4411,14.5417,14.7206,14.8466,14.8472,15.1244,15.3483,15.3552,15.3472,15.3039,15.2483,15.171,15.0925,15.0925,14.8247,14.6301,14.6301,14.2798,14.0466,14.0466,13.9168,13.8517,13.8517,13.768,13.738,13.7799,13.744,13.762,13.8517,13.8517,13.8757,13.9175,13.8278,13.738,13.6543,13.6543,13.6782,13.4631,13.5932,13.7136,14.0358,14.1975,14.3419,14.6628,14.8152,14.9488,15.1038,15.3059,0.0,0.0,0.0,0.0,0.0,0.0,0.0,0.0,0.0,0.0,0.0,0.0,0.0,0.0,0.0,0.0,0.0,0.0,14.126,14.126,14.126,14.126,14.126,14.126,14.126,14.126,14.126,14.126,14.126,14.126,14.126,14.126,14.126,14.126,14.126,14.126,14.126,14.126,14.126,14.126,14.126,14.126,14.126,14.126,14.126,14.126,14.126,14.126,14.126,14.126,14.126,14.126,14.126,14.126,14.126,14.126,14.126,14.126,14.126,14.126,14.126,14.126,14.126,14.1998,14.2904,14.3802,14.4711,14.5418,14.5527,14.8135,15.0541,15.118,15.1131,15.0859,15.0797,14.9847,14.9128,14.8625,14.5696,14.3377,14.2885,13.9972,13.7799,13.7799,13.738,13.7141,13.7141,13.6303,13.6064,13.6423,13.6064,13.6243,13.7081,13.7141,13.6423,13.5047,13.5047,13.4867,13.4508,13.4508,13.4748,13.4704,13.675,13.8686,14.1902,14.2697,14.3533,14.657,14.7327,14.7939,14.956,15.2301,0.0,0.0,0.0,0.0,0.0,0.0,0.0,0.0,0.0,0.0,0.0,0.0,0.0,0.0,0.0,0.0,0.0,14.126,14.126,14.126,14.126,14.126,14.126,14.126,14.126,14.126,14.126,14.126,14.126,14.126,14.126,14.126,14.126,14.126,14.126,14.126,14.126,14.126,14.126,14.126,14.126,14.126,14.126,14.126,14.126,14.126,14.126,14.126,14.126,14.126,14.126,14.126,14.126,14.126,14.126,14.126,14.126,14.126,14.126,14.126,14.1096,14.1096,14.126,14.126,14.1266,14.1244,14.104,14.1766,14.4561,14.6316,14.7874,14.9099,14.9533,14.948,14.9158,14.9254,14.8751,14.7366,14.5075,14.2947,14.1595,13.9076,13.762,13.762,13.6483,13.5765,13.5765,13.5765,13.5226,13.397,13.5047,13.5645,13.5645,13.5585,13.373,13.0081,13.0081,13.0739,13.1935,13.1995,13.2713,13.6071,13.8462,14.0185,14.2191,14.3575,14.4591,14.5441,14.7454,14.9365,14.9812,15.1507,0.0,0.0,0.0,0.0,0.0,0.0,0.0,0.0,0.0,0.0,0.0,0.0,0.0,0.0,0.0,0.0,0.0,14.126,14.126,14.126,14.126,14.126,14.126,14.126,14.126,14.126,14.126,14.126,14.126,14.126,14.126,14.126,14.126,14.126,14.126,14.126,14.126,14.126,14.126,14.126,14.126,14.126,14.126,14.126,14.126,14.126,14.126,14.126,14.126,14.126,14.126,14.126,14.126,14.126,14.126,14.126,14.126,14.0533,13.9692,13.9692,13.8942,13.8421,13.9522,13.9692,13.9758,13.9814,13.7967,13.6915,13.8628,14.0971,14.3193,14.4555,14.6432,14.7735,14.768,14.8625,14.8751,14.7366,14.4206,14.1473,14.0183,13.7066,13.4927,13.4927,13.4568,13.4389,13.4389,13.4389,13.4269,13.391,13.3312,13.3012,13.3012,13.2055,13.1038,13.0081,13.0081,13.026,13.0619,13.1576,13.2713,13.4798,13.8003,14.0935,14.3159,14.3894,14.4224,14.4922,14.6934,14.86,14.7795,14.8946,14.984,0.0,0.0,0.0,0.0,0.0,0.0,0.0,0.0,0.0,0.0,0.0,0.0,0.0,0.0,0.0,0.0,14.126,14.126,14.126,14.126,14.126,14.126,14.126,14.126,14.126,14.126,14.126,14.126,14.126,14.126,14.126,14.126,14.126,14.126,14.126,14.126,14.126,14.126,14.126,14.126,14.126,14.126,14.126,14.126,14.126,14.126,14.126,14.126,14.126,14.126,14.126,14.126,14.126,14.0931,14.0433,14.0433,13.9351,13.8247,13.8247,13.7719,13.7185,13.8071,13.8247,13.8071,13.7363,13.5852,13.4876,13.5865,13.8112,14.0441,14.1889,14.3903,14.5792,14.6988,14.7869,14.7869,14.6421,14.346,14.0674,13.8831,13.5916,13.391,13.391,13.391,13.391,13.391,13.3371,13.3072,13.3072,13.1876,13.1158,13.1158,12.9303,12.8345,12.8345,12.8345,12.8644,12.9243,12.9961,13.1337,13.302,13.6822,14.108,14.3881,14.3665,14.3087,14.4416,14.5892,14.6586,14.5276,14.6059,14.7006,0.0,0.0,0.0,0.0,0.0,0.0,0.0,0.0,0.0,0.0,0.0,0.0,0.0,0.0,0.0,0.0,14.126,14.126,14.126,14.126,14.126,14.126,14.126,14.126,14.126,14.126,14.126,14.126,14.126,14.126,14.126,14.126,14.126,14.126,14.126,14.126,14.126,14.126,14.126,14.126,14.126,14.126,14.1327,14.1461,14.1595,14.1528,14.1364,14.1364,14.1199,14.1033,14.0899,14.0766,14.0966,13.9994,13.8835,13.8835,13.7895,13.6826,13.6826,13.6645,13.6464,13.6645,13.6645,13.6035,13.474,13.4364,13.4368,13.4343,13.6475,13.8679,13.9875,14.17,14.3903,14.6484,14.7051,14.6673,14.4948,14.262,14.0244,13.7507,13.5207,13.391,13.391,13.373,13.3671,13.3671,13.2474,13.1756,13.1756,13.0499,12.9722,12.9542,12.7328,12.6131,12.6131,12.6131,12.673,12.7867,12.8046,12.9422,13.4342,13.7642,14.0762,14.2624,14.2841,14.2697,14.3087,14.4344,14.5327,14.5061,14.5161,14.5458,14.5458,0.0,0.0,0.0,0.0,0.0,0.0,0.0,0.0,0.0,0.0,0.0,0.0,0.0,0.0,0.0,0.0,14.126,14.126,14.126,14.126,14.126,14.126,14.126,14.126,14.126,14.126,14.126,14.126,14.126,14.126,14.126,14.126,14.126,14.126,14.126,14.126,14.126,14.126,14.126,14.126,14.126,14.1394,14.2601,14.307,14.2904,14.1826,14.1311,14.1071,13.9842,13.8635,13.7915,13.9093,13.8456,13.7363,13.7363,13.6217,13.5113,13.5113,13.4175,13.3668,13.474,13.4239,13.3284,13.2898,13.2961,13.3024,13.2887,13.4272,13.5468,13.572,13.9812,14.3589,14.5162,14.6421,14.624,14.3868,14.1375,13.8757,13.6282,13.4818,13.391,13.391,13.2953,13.2354,13.2354,13.1158,13.044,13.044,12.9123,12.7926,12.6849,12.6371,12.6131,12.6131,12.6131,12.6251,12.655,12.7627,12.8944,13.5426,13.7183,13.8436,14.0791,14.1441,14.1657,14.248,14.3809,14.4749,14.4007,14.375,14.3665,14.3159,14.3737,0.0,0.0,0.0,0.0,0.0,0.0,0.0,0.0,0.0,0.0,0.0,0.0,0.0,0.0,0.0,14.126,14.126,14.126,14.126,14.126,14.126,14.126,14.126,14.126,14.126,14.126,14.126,14.126,14.126,14.126,14.126,14.126,14.126,14.126,14.126,14.126,14.126,14.126,14.0599,14.0198,14.0097,14.0079,14.0634,14.1054,14.0348,14.0516,14.1171,14.0443,13.9621,13.9218,13.8971,13.8085,13.682,13.611,13.474,13.3668,13.3668,13.3092,13.2767,13.3477,13.3092,13.2572,13.2572,13.2572,13.2572,13.2572,13.3139,13.3831,13.4524,13.6916,13.9623,14.2456,14.4092,14.4357,14.2529,14.0757,13.8512,13.606,13.399,13.2953,13.2953,13.1756,13.1038,13.1038,12.9781,12.9063,12.9063,12.7807,12.679,12.6191,12.6131,12.6131,12.6131,12.6131,12.6131,12.6191,12.7508,12.8824,13.4942,13.6147,13.6486,13.8698,13.9781,14.0675,14.1902,14.3376,14.4199,14.3014,14.2624,14.2408,14.1513,14.2254,14.1866,0.0,0.0,0.0,0.0,0.0,0.0,0.0,0.0,0.0,0.0,0.0,0.0,0.0,0.0,0.0,14.126,14.126,14.126,14.126,14.126,14.126,14.126,14.126,14.126,0.0,14.126,14.126,14.126,14.126,14.126,14.126,14.126,14.126,14.126,14.126,14.1096,14.0766,13.9692,13.9008,13.8661,13.7868,13.8372,13.9426,13.9242,13.9965,14.1132,14.0819,14.0372,14.0049,13.9145,13.7938,13.6535,13.5068,13.392,13.295,13.2635,13.2572,13.2635,13.295,13.2761,13.2572,13.2572,13.2572,13.2572,13.2572,13.2572,13.2887,13.402,13.4461,13.5972,13.9875,14.1952,14.26,14.11,13.9673,13.7777,13.5189,13.2804,13.1636,13.1636,13.044,12.9662,12.9662,12.8405,12.7687,12.7687,12.667,12.6131,12.6131,12.6131,12.6131,12.6131,12.6131,12.6131,12.6191,12.7508,12.8824,13.0933,13.4536,13.7346,13.6221,13.8171,14.044,14.0502,14.1729,14.2841,14.2697,14.2624,14.2408,14.1513,14.083,14.001,0.0,0.0,0.0,0.0,0.0,0.0,0.0,0.0,0.0,0.0,0.0,0.0,0.0,0.0,0.0,0.0,14.126,14.126,14.126,14.126,14.126,14.126,14.126,14.126,14.126,14.126,14.126,14.126,14.126,14.126,14.126,14.126,14.126,14.126,14.126,14.0599,13.9351,13.918,13.8421,13.7315,13.8619,13.9804,14.0921,13.9605,13.9929,14.0887,13.9363,13.8201,13.7444,13.8517,13.8012,13.655,13.51,13.4658,13.4209,13.2887,13.2572,13.2887,13.4146,13.3517,13.2572,13.2572,13.2572,13.2572,13.2572,13.2572,13.2635,13.2761,13.3831,13.5657,13.8616,14.1322,14.2175,13.9948,13.7574,13.4894,13.2624,13.1038,13.026,13.026,12.9063,12.8285,12.8285,12.7029,12.6311,12.6311,12.6191,12.6131,12.6131,12.6131,12.6131,12.6131,12.6131,12.6131,12.6191,12.7508,12.8824,13.1509,13.3547,13.5282,13.658,13.7908,13.9063,14.0127,14.0025,13.9897,14.0258,14.1975,14.2769,14.1296,13.9556,13.8186,13.7679,0.0,0.0,0.0,0.0,0.0,0.0,0.0,0.0,0.0,0.0,0.0,0.0,0.0,0.0,0.0,14.126,14.126,14.126,14.126,14.126,14.126,14.126,14.126,14.126,14.126,14.126,14.126,14.126,14.126,14.126,14.126,14.126,14.126,14.126,14.0433,13.918,13.8247,13.7006,13.5548,13.538,13.6152,13.73,13.7669,13.8676,13.9743,14.0017,13.9749,13.9245,13.893,13.8427,13.7734,13.6349,13.5972,13.5846,13.5279,13.4524,13.4209,13.5657,13.5594,13.5153,13.5153,13.4461,13.3831,13.3831,13.3139,13.2572,13.2572,13.3706,13.5342,13.7357,13.9245,13.9609,13.7483,13.6128,13.4588,13.222,13.0858,13.0081,13.0081,12.8884,12.7747,12.6969,12.6431,12.6131,12.6131,12.6131,12.6131,12.6131,12.6131,12.6131,12.6131,12.6131,12.655,12.7388,12.8704,13.0021,13.0875,13.2267,13.3647,13.6363,13.7425,13.8125,13.9306,13.904,13.8554,13.8554,14.0894,14.2326,14.0714,13.8814,13.7359,13.6883,13.5665,0.0,0.0,0.0,0.0,0.0,0.0,0.0,0.0,0.0,0.0,0.0,0.0,0.0,0.0,14.126,14.126,14.126,14.126,14.126,14.126,14.126,14.126,14.126,14.126,14.126,14.126,14.126,14.126,14.126,14.126,14.126,14.126,14.0931,13.9522,13.7719,13.6761,13.5484,13.4049,13.2961,13.3768,13.5468,13.6475,13.7986,13.9623,14.063,14.0945,14.0756,13.9749,13.9434,13.9182,13.7797,13.742,13.7357,13.6979,13.6349,13.6161,13.7168,13.7168,13.6853,13.6853,13.6349,13.5909,13.5909,13.509,13.4398,13.4398,13.4902,13.5783,13.7231,13.8238,13.8189,13.6306,13.5667,13.4283,13.1141,12.9722,12.8944,12.8944,12.8046,12.7149,12.6191,12.6131,12.6131,12.6131,12.6131,12.6131,12.6131,12.6131,12.6131,12.6131,12.655,12.7208,12.8166,12.9841,13.1158,12.7525,13.0356,13.3164,13.4704,13.6533,13.7822,13.7894,13.9112,13.9811,13.8194,13.9642,14.0863,13.9824,13.888,13.7884,13.6173,13.3859,13.2967,0.0,0.0,0.0,0.0,0.0,0.0,0.0,0.0,0.0,0.0,0.0,0.0,0.0,14.126,14.126,14.126,14.126,14.126,14.126,14.126,14.126,14.126,14.126,14.126,14.126,14.126,14.126,14.126,14.126,14.126,14.126,13.9861,13.7541,13.474,13.474,13.3859,13.2572,13.2572,13.4398,13.6853,13.6853,13.8616,14.0882,14.0945,14.0945,14.0945,14.0882,14.0882,14.063,13.9182,13.8804,13.849,13.7168,13.7797,13.8804,13.8804,13.7797,13.6853,13.6853,13.786,13.8804,13.8804,13.8741,13.8741,13.8741,13.7671,13.7294,13.8616,13.8804,13.8395,13.7296,13.6306,13.3612,12.8624,12.6969,12.6191,12.6191,12.6191,12.6191,12.6131,12.6131,12.6131,12.6131,12.6131,12.6131,12.6131,12.6131,12.6131,12.6131,12.7448,12.8106,12.8166,13.0799,13.1995,12.7763,13.0239,13.2963,13.3335,13.5714,13.7246,13.5138,13.5015,13.5875,13.7447,13.7002,13.6672,13.8258,13.7084,13.6051,13.6602,13.4186,13.2478,13.3034,0.0,0.0,0.0,0.0,0.0,0.0,0.0,0.0,0.0,0.0,0.0,0.0,14.126,14.126,14.126,14.126,14.126,14.126,14.126,14.126,14.126,14.126,14.126,14.126,14.126,14.126,14.126,14.0198,13.9861,13.9692,13.8247,13.7185,13.6217,13.5113,13.3859,13.2572,13.2572,13.3139,13.4209,13.6161,13.742,13.8427,14.0315,14.0945,14.0945,14.0945,14.0945,14.0819,14.0378,14.0252,14.0189,13.9749,13.9938,14.0504,14.1448,14.1385,14.1322,14.2204,14.2015,14.17,14.17,14.0945,14.0252,14.0252,14.0693,14.1197,14.1637,14.0882,13.9838,13.8791,13.5255,13.1687,12.9619,12.8121,12.7508,12.7508,12.7508,12.7089,12.6191,12.6131,12.6131,12.6131,12.6131,12.6131,12.6131,12.6131,12.661,12.7508,12.7926,12.9063,13.0799,13.1636,13.2474,12.7506,12.8979,13.0678,13.2206,13.4369,13.5112,13.1342,13.1843,13.3479,13.481,13.4454,13.4392,13.6279,13.5762,13.5501,13.6726,13.4905,13.2993,13.2478,13.3168,0.0,0.0,0.0,0.0,0.0,0.0,0.0,0.0,0.0,0.0,14.126,14.126,14.126,14.126,14.126,14.126,14.126,14.126,14.126,14.126,14.0858,14.0493,14.0426,13.9861,13.966,13.9727,13.8783,13.8421,13.8247,13.6761,13.6217,13.6035,13.4552,13.3284,13.2572,13.2572,13.2887,13.3706,13.6035,13.7168,13.7986,14.0189,14.0945,14.0945,14.0945,14.0945,14.0945,14.0945,14.0945,14.0945,14.0945,14.0945,14.1259,14.2707,14.3022,14.34,14.4722,14.4785,14.4596,14.4596,14.3903,14.3274,14.3274,14.3589,14.3777,14.3777,14.2581,14.1093,13.8899,13.5264,13.2115,13.013,12.8842,12.7926,12.7388,12.7388,12.7029,12.6191,12.6131,12.6131,12.6131,12.6131,12.6131,12.6131,12.667,12.7268,12.8106,12.9123,13.044,13.2055,13.2534,13.3132,12.6935,12.6992,12.7659,13.1149,13.2204,13.1292,12.7006,12.9359,13.2144,13.0875,13.2066,13.3541,13.3878,13.4839,13.5756,13.6455,13.5538,13.4309,13.2746,0.0,0.0,0.0,0.0,0.0,0.0,0.0,0.0,0.0,0.0,0.0,14.126,14.126,14.126,14.126,14.126,14.126,14.126,14.126,14.126,14.126,13.9794,13.9131,13.9166,13.7767,13.707,13.7006,13.6978,13.694,13.6826,13.5113,13.4552,13.4364,13.3092,13.2572,13.2572,13.2572,13.3391,13.4713,13.6349,13.7671,13.893,14.0441,14.0945,14.0945,14.0945,14.0945,14.0945,14.0945,14.0945,14.0945,14.0945,14.0945,14.1322,14.2833,14.3148,14.3589,14.4974,14.6358,14.7366,14.7366,14.7366,14.7366,14.7366,14.6233,14.5288,14.5288,14.4029,14.1674,13.8222,13.6251,13.3978,13.0422,12.8944,12.7747,12.6431,12.6311,12.6251,12.6131,12.6131,12.6131,12.6131,12.6131,12.6131,12.6131,12.7448,12.8166,12.8226,13.0799,13.2055,13.2175,13.3371,13.391,12.7119,12.9035,13.0613,12.9053,12.6794,12.5206,12.5811,12.6837,12.8158,13.0044,13.0901,13.1633,13.3348,13.3469,13.3222,13.3422,13.5008,13.583,13.4329,13.5114,13.5427,13.4309,0.0,0.0,0.0,0.0,0.0,0.0,0.0,0.0,14.126,14.126,14.126,14.126,14.126,14.126,14.126,14.126,14.126,14.126,13.9794,13.9246,13.9203,13.7753,13.7035,13.6999,13.5699,13.5226,13.5113,13.3668,13.3092,13.3092,13.2767,13.2572,13.2572,13.2572,13.2761,13.3391,13.5972,13.7042,13.7734,14.0126,14.0945,14.0945,14.0945,14.0945,14.0945,14.0945,14.0945,14.0945,14.0945,14.0945,14.1574,14.3966,14.4533,14.5225,14.7743,14.8562,14.8813,14.8813,14.8813,14.8813,14.8813,14.8499,14.8247,14.8247,14.4644,14.1192,13.9235,13.5356,13.186,13.0302,12.9781,12.9063,12.7747,12.7627,12.7208,12.6191,12.6131,12.6131,12.6131,12.6131,12.6131,12.6131,12.7448,12.8585,12.9602,13.1277,13.2534,13.3491,13.379,13.391,12.6834,12.7904,12.8272,12.6881,12.5393,12.4236,12.4725,12.5411,12.6314,12.7956,12.9446,13.0449,13.0946,13.2389,13.3429,13.3451,13.5396,13.639,13.4934,13.4779,13.4824,0.0,0.0,0.0,0.0,0.0,0.0,0.0,0.0,0.0,14.126,14.126,14.126,14.126,14.126,14.126,14.126,14.126,14.126,14.126,13.9162,13.8115,13.8129,13.5916,13.4936,13.4927,0.0,13.3668,13.3668,13.2898,13.2572,13.2572,13.2572,13.2572,13.2572,13.2572,13.2572,13.295,13.5846,13.6853,13.7294,14.0063,14.0945,14.0945,14.0945,14.0945,14.0945,14.0945,14.0945,14.0945,14.0945,14.0945,14.1448,14.3589,14.4533,14.5603,14.7869,14.8813,14.9254,14.9254,14.9254,14.9254,14.9254,14.9254,14.9065,14.8436,14.4711,14.1504,13.9789,13.5894,13.3092,13.204,13.1337,13.044,12.9123,12.8465,12.7567,12.6251,12.6131,12.6131,12.6131,12.6131,12.6431,12.7029,12.8345,12.9662,13.0978,13.2294,13.3252,13.391,13.391,13.391,12.6177,12.5541,12.4406,12.5082,12.5372,12.5237,12.3988,12.4566,12.5505,12.5706,12.7986,12.9595,12.8589,13.1624,13.4242,13.4623,13.5651,13.6054,13.5092,13.3885,13.3483,13.4533,0.0,0.0,0.0,0.0,0.0,0.0,0.0,14.1021,14.126,14.126,14.126,14.126,14.126,14.126,14.126,14.126,14.1193,14.0992,13.8264,13.6847,13.6526,13.3845,13.2572,13.2572,0.0,13.2572,13.2572,13.2572,13.2572,13.2572,13.2572,13.2572,13.2572,13.2572,13.2572,13.2887,13.5342,13.6349,13.6979,13.9686,14.063,14.063,14.0882,14.0945,14.0945,14.0945,14.0945,14.0945,14.0945,14.0945,14.1259,14.2707,14.4029,14.5414,14.6862,14.831,14.9254,14.9254,14.9254,14.9254,14.9254,14.9128,14.8562,14.7366,14.4648,14.1904,13.9851,13.7174,13.5043,13.4138,13.2953,13.1696,13.02,12.9063,12.7867,12.655,12.6251,12.6131,12.6131,12.6131,12.667,12.7807,12.9303,13.0619,13.1756,13.3192,13.391,13.391,13.391,13.391,12.536,12.5462,12.515,12.4208,12.3988,12.3988,12.3771,12.3762,12.4298,12.5505,12.7181,12.8723,12.9729,13.0999,13.2429,13.4376,13.4367,13.4654,13.6323,13.6299,13.5763,13.4824,13.4556,0.0,0.0,0.0,0.0,0.0,0.0,14.0004,14.129,14.126,14.126,14.126,14.126,14.126,14.126,14.126,14.0627,13.9527,13.793,13.6389,13.5057,13.3272,13.2572,13.2572,0.0,0.0,13.2572,13.2572,13.2572,13.2572,13.2572,13.2572,13.2572,13.2572,13.2572,13.2635,13.3076,13.402,13.5468,13.8238,13.9182,13.9371,14.0567,14.0945,14.0945,14.0945,14.0945,14.0945,14.0945,14.0945,14.1259,14.2707,14.4029,14.5414,14.6862,14.831,14.9254,14.9254,14.9254,14.9254,14.9254,14.831,14.7429,14.724,14.3183,13.9974,13.9507,13.6504,13.4138,13.391,13.373,13.2653,13.026,12.9901,12.9183,12.7867,12.679,12.6131,12.6131,12.6131,12.6251,12.6431,12.8824,13.02,13.038,13.2773,13.391,13.391,13.391,13.391,12.4913,12.4963,12.4343,12.3704,12.3628,12.3628,12.3628,12.3628,12.3829,12.4432,12.5773,12.7315,12.879,12.9961,13.159,13.4309,13.4396,13.4819,13.65,13.6165,13.5427,13.4757,13.3953,13.3751,0.0,0.0,0.0,0.0,0.0,13.9374,14.0041,14.0121,14.0426,14.126,14.0493,13.9757,13.8886,13.9666,13.9483,13.794,13.6485,13.5492,13.4609,13.3208,13.2572,0.0,0.0,0.0,13.2572,13.2572,13.2572,13.2572,13.2572,13.2572,13.2572,13.2572,13.2572,13.2572,13.2572,13.3517,13.5153,13.7923,13.8804,13.9119,14.0504,14.0945,14.0945,14.0945,14.0945,14.0945,14.0945,14.0945,14.1071,14.17,14.2959,14.4281,14.5666,14.7114,14.8373,14.9128,14.9254,14.9065,14.8247,14.7617,14.6457,14.4302,14.1409,13.904,13.7579,13.5405,13.391,13.391,13.391,13.3132,13.1277,13.1158,13.0559,12.9243,12.7926,12.7208,12.7208,12.655,12.6131,12.6131,12.8704,12.9934,12.9459,13.1351,13.1771,13.0772,13.0772,13.0772,12.3947,0.0,12.2555,12.2555,12.2823,12.3092,0.0,12.336,12.3628,12.3628,12.4768,12.6243,12.7785,12.926,13.107,13.3684,13.4422,13.4891,13.5696,13.5427,13.5025,13.469,13.3617,13.3215,13.4087,0.0,0.0,0.0,0.0,13.8251,13.8923,13.8685,13.9125,14.0713,13.8598,13.7171,13.6373,13.7648,13.769,13.6442,13.5323,13.4483,13.423,13.3082,13.2572,0.0,0.0,0.0,13.2572,13.2572,13.2572,13.2572,13.2572,13.2572,13.2572,13.2572,13.2572,13.2572,13.2572,13.3265,13.4524,13.6664,13.7797,13.8679,14.0378,14.0693,14.0504,14.0819,14.0945,14.0945,14.0945,14.0945,14.0945,14.0945,14.2015,14.3274,14.4281,14.5666,14.6988,14.8058,14.8247,14.7932,14.6862,14.6206,14.4832,14.2059,13.992,13.7985,13.6282,13.4818,13.391,13.391,13.391,13.3371,13.2115,13.2055,13.1576,13.0619,12.9303,12.8405,12.8106,12.7149,12.649,12.6131,12.8106,12.9055,12.8944,13.007,12.9654,12.7678,12.7964,12.8136,0.0,12.0683,11.9471,11.9471,12.0544,12.1617,12.1617,12.2622,0.0,12.3628,12.4768,12.6243,12.7785,12.926,13.0734,13.2276,13.3751,13.4221,13.288,13.4958,13.6165,13.4824,13.4556,13.3953,13.2679,0.0,0.0,0.0,0.0,0.0,13.8856,13.7787,13.7681,13.9099,13.5381,13.3793,13.5014,13.5087,13.513,13.4913,13.4749,13.3971,13.2698,13.2572,13.2572,0.0,0.0,0.0,0.0,13.2572,13.2572,13.2572,13.2572,13.2572,13.2572,13.2572,13.2572,13.2572,13.2572,13.2635,13.2761,13.295,13.4839,13.7482,14.0126,14.0,13.9245,14.0567,14.0945,14.0945,14.0945,14.0945,14.0945,14.0945,14.2015,14.3022,14.3148,14.4218,14.5162,14.5288,14.5288,14.5288,14.5162,14.3301,14.1997,14.2811,13.9056,13.6221,13.7261,13.5207,13.391,13.391,13.391,13.3371,13.2115,13.2055,13.1995,13.1876,13.0679,12.9362,12.8166,12.7986,12.7388,12.6191,12.6311,12.7089,12.8186,12.8767,12.8316,12.6417,12.7563,12.8136,11.9806,11.9605,11.9136,11.9136,12.0343,12.1482,12.1482,12.2555,12.3628,12.3628,12.403,12.517,12.765,12.8522,12.9662,13.2008,13.288,13.3349,13.3751,13.3953,13.4221,13.4623,13.3818,13.3014,0.0,13.2344,0.0,0.0,0.0,0.0,13.4913,13.5313,13.4947,13.3753,13.2167,13.1232,13.0961,13.2779,13.3139,13.2271,13.3028,13.3145,13.2572,13.2572,13.2572,0.0,0.0,0.0,0.0,13.2572,13.2572,13.2572,13.2572,13.2572,13.2572,13.2572,13.2572,13.2572,13.2572,13.2572,13.2572,13.2572,13.4524,13.6853,13.6979,13.786,13.9119,14.0504,14.0945,14.0945,14.0945,14.0945,14.0945,14.0945,14.1322,14.1952,14.2833,14.34,14.4029,14.4848,14.4974,14.4508,14.3051,14.1844,14.0574,13.8777,13.6908,13.5715,13.5268,13.4592,13.391,13.391,13.391,13.373,13.3252,13.3192,13.2833,13.2115,13.1576,13.032,12.8226,12.6947,12.6267,12.5514,12.3743,12.3655,12.5812,12.4016,12.3028,12.2698,12.3143,12.3755,11.8063,11.813,11.7728,11.7728,11.8935,12.0142,12.0611,12.1885,12.3092,12.3494,12.3963,12.5103,12.7583,12.8455,12.9528,13.2008,13.2344,13.2545,13.3148,13.3148,13.3282,13.3885,13.3416,13.3081,13.3081,0.0,0.0,0.0,0.0,0.0,13.2682,13.2668,13.1425,12.872,12.904,12.8797,12.7808,12.9719,13.0623,13.0621,13.1502,13.2132,13.2572,13.2572,13.2572,0.0,0.0,0.0,0.0,13.2572,13.2572,13.2572,13.2572,13.2572,13.2572,13.2572,13.2572,13.2572,13.2572,13.2572,13.2572,13.2572,13.4209,13.5972,13.4964,13.6349,13.8301,13.8804,13.956,14.0378,14.0819,14.0945,14.0945,14.0945,14.0945,14.1197,14.2141,14.2393,14.2644,14.3526,14.3715,14.2976,14.0972,14.0417,13.9241,13.6725,13.5655,13.5043,13.4592,13.4138,13.391,13.391,13.391,13.3681,13.2932,13.2932,13.2345,13.0765,13.0706,12.9526,12.693,12.5684,12.4768,12.436,12.2293,12.2234,12.4354,12.1532,12.0482,12.1383,12.0691,12.1239,11.6588,11.5918,11.4778,11.4711,11.5918,11.7393,11.8801,12.0343,12.1885,12.3293,12.4768,12.6243,12.7785,12.926,13.0667,13.2142,13.2344,13.1807,13.0399,13.2746,13.402,13.2545,13.3684,13.4623,13.4623,13.3282,13.2344,0.0,0.0,0.0,13.2439,12.9865,12.7262,12.4515,12.5711,12.6403,12.6403,12.6403,12.7788,13.0558,13.0558,13.1313,13.2572,13.2572,13.2572,0.0,0.0,0.0,0.0,13.2572,13.2572,13.2572,13.2572,13.2572,13.2572,13.2572,13.2572,13.2572,13.2572,13.2572,13.2572,13.2572,13.3517,13.465,13.465,13.5657,13.6538,13.509,13.6664,13.9182,14.0567,14.0945,14.0945,14.0945,14.0945,14.0945,14.0945,14.0945,14.0945,14.0945,14.0945,14.0466,13.9352,13.8069,13.748,13.748,13.5431,13.4365,13.5431,13.4592,13.391,13.391,13.391,13.3163,13.1067,13.1067,13.0061,12.8079,12.8079,12.699,12.4469,12.4354,12.3781,12.252,12.252,12.2917,12.4175,12.221,12.2034,12.3111,12.1283,12.1109,11.5247,11.6588,11.7594,11.6588,11.746,11.86,11.9069,12.0343,12.1885,12.3293,12.4768,12.6243,12.7785,12.926,13.0667,13.2142,13.0857,12.9302,12.8904,12.8704,12.8837,12.9435,13.0744,13.1941,13.2947,13.2612,13.2344,0.0,0.0,0.0,12.9676,12.7167,12.5202,12.4452,12.483,12.5018,12.5018,12.59,12.6844,12.7662,12.9677,13.081,13.1188,13.2132,13.2572,13.2572,13.2572,0.0,0.0,13.2572,13.2572,13.2572,13.2572,13.2572,13.2572,13.2572,13.2572,13.2572,13.2572,13.2572,13.2572,13.2572,13.3517,13.4461,13.3517,13.4209,13.5216,13.4776,13.6664,13.893,13.9371,14.0189,14.0945,14.0945,14.0945,14.0945,14.0945,14.0945,14.0945,14.0945,14.0257,13.9352,13.8069,13.6981,13.5877,13.5043,13.4365,13.4138,13.4365,13.4138,13.391,13.391,13.2701,13.1067,12.9103,12.8863,12.8218,12.6818,12.6818,12.5672,12.3151,12.2713,12.2279,12.1701,12.0549,12.0482,12.1646,11.9323,11.8406,11.8841,11.8243,11.8056,11.4577,11.6052,11.7189,11.651,11.6438,11.6972,11.8105,11.9246,12.0514,12.3015,12.5237,12.6832,12.7254,12.8902,13.0213,13.0008,12.8645,12.7177,12.5993,12.5599,12.5691,12.6425,12.8328,13.0009,13.1405,13.2008,13.2344,13.2344,0.0,0.0,12.7661,12.558,12.4452,12.4452,12.4452,12.4452,12.4452,12.5207,12.59,12.6403,12.8103,12.9488,13.0621,13.1439,13.2069,13.2572,13.2572,0.0,0.0,13.2572,13.2572,13.2572,13.2572,13.2572,13.2572,13.2572,13.2572,13.2572,13.2572,13.2572,13.2572,13.2572,13.3139,13.3706,13.2824,13.3139,13.3831,13.3831,13.5468,13.7294,13.7923,13.9056,14.0252,14.0819,14.0945,14.0945,14.0945,14.0945,14.0945,14.0945,14.0257,13.9414,13.7697,13.6321,13.4923,13.4138,13.2701,13.1946,13.2701,13.2701,13.247,13.1712,13.0536,12.9103,12.7159,12.6914,12.6327,12.4608,12.4158,12.3221,12.1011,12.0214,11.9872,12.0371,11.9354,11.9366,12.062,11.8985,11.7956,11.7568,11.7557,11.7523,11.3842,11.4444,11.4708,11.5001,11.4057,11.3727,11.6566,11.7226,11.8454,12.2527,12.5681,12.7387,12.625,12.8183,12.9312,12.6692,12.6071,12.4801,12.2361,12.2851,12.366,12.3584,12.6227,12.8416,12.9675,13.1118,13.1922,13.2035,0.0,0.0,12.6333,12.499,12.4452,12.4452,12.4452,12.4452,12.4452,12.4452,12.5018,12.6214,12.634,12.7725,13.0243,13.0495,13.125,13.2384,13.2509,0.0,0.0,13.2572,13.2572,13.2572,13.2572,13.2572,13.2572,13.2572,13.2572,13.2572,13.2572,13.2572,13.2572,13.2572,13.2572,13.2572,13.2572,13.2572,13.2572,13.2572,13.358,13.5027,13.6475,13.786,13.9182,14.0567,14.0674,14.0674,14.0674,14.0466,14.0257,14.0466,14.0466,13.9626,13.7418,13.5534,13.4125,13.3393,13.0182,12.869,13.0536,13.0714,12.9648,12.7721,12.7478,12.6989,12.5177,12.4926,12.4226,12.2295,12.1093,11.9892,11.8745,11.7543,11.7488,11.8635,11.8678,11.9294,12.0339,12.0325,11.9564,11.8653,11.8598,11.83,11.0203,11.2163,11.3933,11.397,11.3627,11.3823,11.5522,11.5914,11.7064,12.1221,12.3738,12.515,12.5782,12.6754,12.6988,12.6497,12.3556,12.128,12.0637,11.9865,11.9672,12.0773,12.3353,12.5608,12.7052,12.7325,12.7945,12.9282,12.7771,0.0,12.4685,12.4483,12.4452,12.4452,12.4452,12.4452,12.4452,12.4452,12.4578,12.4893,12.59,12.6718,12.7348,12.9614,13.0684,13.1128,13.2069,0.0,0.0,13.2572,13.2572,13.2572,13.2572,13.2572,13.2572,13.2572,13.2572,13.2572,13.2572,13.2572,13.2572,13.2572,13.2572,13.2572,13.2572,13.2572,13.2572,13.2572,13.358,13.5027,13.6475,13.786,13.9182,14.0567,13.9563,13.7945,13.7945,13.6077,13.5189,13.7451,13.6798,13.5635,13.525,13.4125,13.2292,12.9764,12.7758,12.7231,12.8506,12.7998,12.5923,12.2588,12.3529,12.392,12.2955,12.2809,12.2809,12.2295,12.0329,11.9159,11.886,11.7543,11.6883,11.7232,11.8243,11.8905,11.9175,11.8058,11.7569,11.7207,11.6227,11.5765,10.8064,10.9878,11.1557,11.168,11.166,11.2048,11.3405,11.3729,11.4876,11.8963,12.101,12.2491,12.3858,12.4276,12.4126,12.3448,12.0974,11.8872,11.8174,11.7475,11.7619,11.8986,12.1421,12.3732,12.5084,12.6441,12.7166,12.7314,12.6662,12.5431,12.343,12.3302,12.3696,12.4389,12.4452,12.4452,12.4452,12.4452,12.4452,12.4452,12.5144,12.5774,12.6466,12.7914,12.9299,13.075,13.1443,0.0,13.2572,13.2572,13.2572,13.2572,13.2572,13.2572,13.2572,13.2572,13.2572,13.2572,13.2572,13.2572,13.2572,13.2572,13.2572,13.2572,13.2572,13.2572,13.2572,13.2572,13.2288,13.25,13.3728,13.4351,13.4805,13.6221,13.6804,13.7016,13.5635,13.4005,13.3094,13.4681,13.4005,13.2865,13.2405,13.1009,12.9648,12.8322,12.5855,12.4777,12.5761,12.4517,12.2698,12.0801,12.1999,12.2583,12.1476,12.1967,12.235,12.235,12.011,11.883,11.8695,11.6888,11.6176,11.671,11.7395,11.7862,11.7862,11.7269,11.658,11.6063,11.5249,11.5085,10.5865,10.6954,10.8104,10.874,10.8819,10.9266,11.0991,11.153,11.2546,11.6302,11.8182,11.9742,12.1139,12.1506,12.1249,12.0285,11.9038,11.7779,11.6583,11.6457,11.6673,11.7594,11.9806,12.187,12.292,12.5112,12.6162,12.5478,12.5355,12.426,12.205,12.2123,12.2941,12.4389,12.4452,12.4452,12.4452,12.4452,12.4452,12.4452,12.4452,12.5018,12.6089,12.6277,12.7662,12.9866,13.0498,0.0,13.2195,13.2446,13.2572,13.2572,13.2572,13.2572,13.2572,13.2572,13.2572,13.2572,13.2572,13.2572,13.2572,13.2572,13.2572,13.2509,13.2063,13.2384,13.2509,13.2063,13.0743,12.9555,13.0968,13.05,12.9961,13.1501,13.4221,13.5856,13.3383,13.2405,13.2174,13.1942,13.1418,13.048,12.9648,12.7964,12.6989,12.7159,12.406,12.2206,12.3088,12.1614,12.0547,12.0547,12.1421,12.1694,12.0929,12.1749,12.235,12.235,12.0274,11.9104,11.897,11.6641,11.5959,11.6689,11.6641,11.658,11.658,11.658,11.6063,11.5085,11.5085,11.5085,10.2406,10.23,10.3059,10.5624,10.6319,10.695,10.9538,11.0107,11.087,11.3607,11.5454,11.699,11.8309,11.8618,11.8961,11.9982,11.9038,11.8094,11.7905,11.7905,11.7464,11.6376,11.7658,11.8628,11.8829,11.9204,12.0267,12.257,12.1697,12.0776,12.0423,12.1556,12.2941,12.4389,12.4452,12.4452,12.4452,12.4452,12.4452,12.4452,12.4452,12.4515,12.4704,12.59,12.6592,12.7096,12.9551,0.0,13.1002,13.2069,13.2572,13.2572,13.2572,13.2572,13.2572,13.2572,13.2572,13.2572,13.2572,13.2572,13.2572,13.2572,13.2572,13.2126,13.0223,13.1114,13.2063,13.0223,12.9536,12.9472,13.0893,13.0372,13.0122,13.1525,13.3028,13.3383,13.1126,13.0419,13.0182,12.9409,12.8391,12.7421,12.7421,12.7234,12.606,12.3521,12.1677,12.1093,12.2224,12.1403,12.0547,12.0547,12.0656,12.1148,12.2022,12.224,12.235,12.235,12.1129,12.0396,12.0262,11.7899,11.6744,11.6721,11.582,11.5249,11.5249,11.5249,11.5194,11.5085,11.5085,11.5085,10.171,10.1475,10.179,10.3049,10.3993,10.5063,10.7078,10.7518,10.8307,11.103,11.2796,11.4359,11.6442,11.6231,11.652,11.8723,11.7213,11.608,11.6898,11.7024,11.6772,11.6142,11.7198,11.7952,11.8088,11.8718,11.9293,11.9869,11.8567,11.8535,12.0045,12.0738,12.1745,12.3193,12.4011,12.4452,12.4452,12.4452,12.4452,12.4452,12.4452,12.4452,12.4452,12.5018,12.5711,12.6406,0.0,12.9237,13.0625,13.1254,13.1817,13.2572,13.2572,13.2572,13.2572,13.2572,13.2572,13.2572,13.2572,13.2572,13.2446,13.1177,13.0731,13.0606,12.9527,12.8957,12.845,12.7633,12.6388,12.5387,12.6031,12.5865,12.5874,12.6454,12.925,13.1008,12.8564,12.9103,12.9286,12.7405,12.5925,12.4619,12.4423,12.4423,12.3973,12.2552,12.1858,12.1749,12.224,12.1858,12.1148,12.067,12.1184,12.1383,12.1289,12.1874,12.235,12.235,12.1075,12.0418,12.0656,11.8154,11.6883,11.6799,11.5656,11.5085,11.5085,11.5085,11.5085,11.5085,11.5085,11.5085,10.2343,10.171,10.1475,10.1475,10.2294,10.349,10.4874,10.5189,10.5882,10.8274,10.991,11.1484,11.3562,11.3687,11.4254,11.6709,11.5639,11.5009,11.6394,11.6583,11.6457,11.6142,11.6863,11.7531,11.7531,11.8423,11.8615,0.0,11.6906,11.7527,11.9542,11.9982,12.0801,12.2186,12.3319,12.4074,12.4452,12.4452,12.4452,12.4452,12.4452,12.4452,12.4452,12.4452,12.5018,12.584,12.6217,12.7599,12.9678,13.0245,13.1125,13.2063,13.2446,13.2572,13.2572,13.2572,13.2572,13.2509,13.1937,13.1811,13.1365,12.902,12.8326,12.8317,12.7571,12.6745,12.5745,12.4984,12.3613,12.2246,12.235,12.2316,12.232,12.2566,12.5638,12.8113,12.6554,12.7649,12.8194,12.5289,12.4029,12.301,12.2295,12.235,12.235,12.235,12.235,12.235,12.235,12.235,12.1803,12.0999,12.1786,12.1874,12.0922,12.1819,12.235,12.235,12.1348,12.0965,12.0868,11.8809,11.7541,11.7317,11.6172,11.5249,11.5085,11.5085,11.5085,11.5085,11.5085,11.5085,10.3872,10.2299,10.1475,10.1475,10.1538,10.1979,10.3427,10.3741,10.4182,10.563,10.7015,10.7959,10.8148,11.0288,11.2491,11.3939,11.5198,11.6457,11.7842,11.8031,11.759,11.6205,11.608,11.608,11.608,11.6142,11.6142,11.608,0.0,11.8157,11.8283,11.9479,12.0801,12.2186,12.2312,12.3004,12.4452,12.4452,12.4452,12.4452,12.4452,12.4452,12.4452,12.4452,12.4452,12.4641,12.5777,12.6407,12.6783,12.9551,13.0554,13.0794,13.2063,13.2572,13.2572,13.2572,13.2572,13.2384,13.016,12.9465,12.902,12.6622,12.5931,12.5486,12.3189,12.4115,12.5303,12.3044,12.232,12.223,12.2169,12.1445,12.109,12.2333,12.3777,12.4889,12.5226,12.5483,12.5205,12.3664,12.3355,12.3156,12.2295,12.235,12.235,12.235,12.235,12.235,12.235,12.235,12.2295,12.2186,12.224,12.2295,12.2295,12.2295,12.235,12.235,12.224,12.224,12.2295,12.0868,11.9693,11.8764,11.7262,11.6172,11.5085,11.5085,11.5085,11.5085,11.5085,11.5085,10.5461,10.3519,10.2191,10.07,10.0216,10.0531,10.1916,10.2231,10.2671,10.4119,10.5504,10.67,10.7581,10.8526,10.9973,11.2303,11.2303,11.2869,11.5135,11.5513,11.5639,11.6017,11.608,11.608,11.608,11.4443,0.0,11.5954,11.652,11.7213,11.8094,11.8598,11.9479,12.0864,12.0864,12.1556,12.3004,12.3004,12.3508,12.4452,12.4452,12.4452,12.4452,12.4452,12.4452,12.4452,12.4955,12.5585,12.6463,12.7411,12.8984,13.0747,13.1125,13.1817,13.2572,13.2572,13.2572,13.2384,13.0035,12.9301,12.8855,12.6539,12.4837,12.3333,12.2408,12.1886,12.1195,12.0509,12.0054,12.0096,12.0096,12.1124,12.1954,12.258,12.4169,12.5756,12.5868,12.5707,12.5233,12.4615,12.3797,12.2974,12.1874,12.1983,12.235,12.235,12.171,12.1235,12.1235,12.1819,12.235,12.235,12.235,12.235,12.235,12.235,12.235,12.235,12.235,12.235,12.235,12.1235,12.0,11.8787,11.7353,11.6172,11.5085,11.5085,11.5085,11.5085,11.5085,11.5085,10.7251,10.5297,10.3408,10.1346,10.0068,9.9713,10.0594,10.0783,10.1223,10.2608,10.3678,10.456,10.5441,10.6008,10.7078,10.947,10.9407,10.991,11.224,11.3373,11.4002,11.3939,11.438,11.4883,11.5324,0.0,0.0,11.5198,11.5828,11.6457,11.7401,11.7464,11.8094,11.9416,11.9479,12.0108,12.1546,12.1546,12.2239,12.3689,12.3689,12.4004,12.4452,12.4452,12.4452,12.4452,12.4452,12.495,12.5764,12.6089,12.7473,12.9173,12.9677,13.0298,13.0839,13.1623,13.1114,12.9768,12.7176,12.6304,12.6052,12.4067,12.2557,12.1131,12.1131,12.0096,11.895,11.895,11.895,11.895,11.895,12.0096,12.1692,12.2468,12.4001,12.5226,12.5812,12.5624,12.5004,12.4638,12.3762,12.2459,12.1343,12.1512,12.1548,12.1126,12.0339,11.9797,12.0056,12.0892,12.1765,12.1765,12.1928,12.235,12.235,12.235,12.235,12.235,12.235,12.235,12.235,12.1235,11.9865,11.8755,11.7543,11.6172,11.5085,11.5085,11.5085,11.5085,11.5085,11.5085,10.8912,10.7011,10.5043,10.3632,10.1428,9.967,9.967,9.9733,9.9901,10.116,10.1412,10.1412,10.1475,10.2608,10.4056,10.5441,10.6763,10.8085,10.9533,11.2051,11.2806,11.0162,11.1044,11.2428,0.0,11.3876,11.3876,11.4002,11.5261,11.608,11.608,11.608,11.6709,11.8031,11.8094,11.8772,11.9956,12.0019,12.0826,12.2267,12.2267,12.2923,12.4326,12.4326,12.4389,12.4452,12.4452,12.4452,12.4515,12.5837,12.6217,12.6531,12.7977,12.7828,12.7361,12.9534,12.8209,12.4596,12.149,12.0502,12.042,11.9314,11.8837,11.8837,11.8837,11.8837,11.8837,11.895,11.895,11.895,11.895,11.895,11.9617,12.2133,12.2779,12.3114,12.5058,12.4868,12.4257,12.3412,12.2826,12.1874,12.0705,12.0457,12.0205,11.8838,11.8594,11.8806,11.8742,11.9706,12.0543,12.0339,12.1398,12.2295,12.2295,12.2295,12.2295,12.2295,12.2295,12.2295,12.2295,12.118,11.9811,11.8594,11.7488,11.6172,11.5085,11.5085,11.5085,11.5085,11.5085,11.5085,10.5933,10.5938,10.5922,10.4707,10.3901,10.3223,10.2449,10.2162,10.1826,10.03,10.0027,10.0342,10.1286,10.179,10.2545,10.3993,10.456,10.563,10.7959,10.8966,10.9533,10.9785,11.1044,11.1673,11.1044,11.0981,11.1799,11.3813,11.5261,11.608,11.608,11.608,11.6268,11.6646,11.6646,11.7276,11.8772,11.8772,11.9339,12.0762,12.0762,12.1521,12.2912,12.2912,12.3491,12.4452,12.4452,12.4452,12.4452,12.483,12.5585,12.628,12.6844,12.7411,12.7903,12.6071,12.4244,12.271,12.1854,12.0439,11.8994,11.8718,11.747,11.647,11.7207,11.7547,11.7769,11.8561,11.895,11.895,11.895,11.9523,12.0727,12.2259,12.3053,12.3585,12.5114,12.4367,12.3475,12.3138,12.2826,12.171,11.9648,11.9932,11.9784,11.7571,11.6641,11.6505,11.7317,11.7734,11.8113,11.927,11.9648,11.9757,11.9757,11.9757,11.9757,11.9757,11.9757,11.9757,11.9757,11.9337,11.866,11.7325,11.694,11.6172,11.5085,11.5085,11.5085,11.5085,11.5085,11.5085,10.6174,10.6261,10.6401,10.5734,10.4871,10.387,10.3116,10.2912,10.2579,10.1106,10.0837,10.095,10.1283,10.1835,10.2575,10.3427,10.3919,10.4829,10.6574,10.7801,10.8307,10.8085,10.9344,10.9407,10.7455,10.8777,11.0729,11.2932,11.4443,11.545,11.6017,11.608,11.608,11.608,11.608,11.6457,11.7276,11.7276,11.7905,11.9213,11.9213,12.0082,12.1408,12.1976,12.268,12.3571,12.42,12.4452,12.4452,12.4452,12.4276,12.4341,12.5151,12.5214,12.4603,12.2015,12.0219,11.8878,11.8565,11.7514,11.6484,11.6978,11.6389,11.5507,11.6131,11.6351,11.6625,11.783,11.8166,11.8222,11.8781,11.9466,12.05,12.2169,12.2674,12.3281,12.4898,12.4368,12.3333,12.3193,12.2826,12.1452,11.9175,11.9354,11.9173,11.7152,11.5765,11.5249,11.6063,11.6117,11.6641,11.7917,11.7883,11.8243,11.8767,11.8821,11.8821,11.8821,11.8821,11.8821,11.8821,11.8298,11.7568,11.6799,11.6227,11.571,11.5085,11.5085,11.5085,11.5085,11.5085,11.5085,10.793,10.7107,10.6267,10.6598,10.495,10.3235,0.0,10.31,10.3035,10.2705,10.2705,10.2299,10.1474,10.2285,10.328,10.3375,10.4289,10.5095,10.5525,10.7596,10.8322,10.6226,10.7015,10.6763,10.4371,10.7581,11.0414,11.1799,11.3184,11.4569,11.6017,11.608,11.608,11.608,11.608,11.608,11.608,11.608,11.6709,11.7968,11.7968,11.866,11.9982,12.1241,12.1871,12.2123,12.3571,12.42,12.42,12.4389,12.3218,12.1774,12.3589,12.2515,11.9753,11.8413,11.6718,11.4821,11.3568,11.3138,11.3307,11.4436,11.4831,11.4887,11.5,11.5,11.5392,11.6584,11.6924,11.7038,11.851,11.8668,11.941,12.1707,12.2039,12.22,12.4404,12.4,12.3045,12.3045,12.2771,12.1452,11.9283,11.8885,11.83,11.7207,11.6172,11.5546,11.5546,11.5546,11.5765,11.6689,11.6744,11.7207,11.8244,11.83,11.83,11.83,11.83,11.83,11.83,11.7207,11.6635,11.6635,11.5546,11.503,11.5085,11.503,11.503,11.5085,11.5085,11.5085,0.0,0.0,0.0,0.0,0.0,0.0,0.0,10.5807,10.5213,10.31,10.2705,10.257,10.2435,10.2559,10.2818,10.2802,10.3274,10.3888,10.4859,10.5797,10.676,10.7267,10.7581,10.7518,10.7015,10.8714,11.0414,11.1799,11.3184,11.4569,11.6017,11.608,11.608,11.608,11.608,11.608,11.608,11.608,11.6205,11.6457,11.6457,11.7213,11.8598,11.8849,11.9542,12.0612,12.206,12.2689,12.2752,12.3948,12.4206,12.3837,12.4206,12.2968,12.0733,11.8655,11.7733,11.6777,11.3136,11.1784,11.1784,11.2066,11.2122,11.2348,11.342,11.3751,11.3859,11.5335,11.5501,11.5824,11.7183,11.7378,11.792,11.9926,12.053,12.1092,12.2114,12.235,12.2404,12.2404,12.235,12.1819,12.0339,11.9408,11.8709,11.83,11.8189,11.8134,11.8134,11.8134,11.7726,11.7042,11.6744,11.658,11.5765,11.571,11.571,11.571,11.571,11.571,11.571,11.5601,11.5546,11.5546,11.4218,11.411,11.5085,11.411,11.4164,11.5085,11.5085,11.5085,0.0,0.0,0.0,0.0,0.0,0.0,0.0,0.0,0.0,0.0,0.0,10.4223,10.357,0.0,10.4287,10.3747,10.3846,10.4395,10.5813,10.5626,10.5688,10.6222,10.7007,10.7455,10.6763,10.7959,10.9659,11.1736,11.2554,11.3876,11.5954,11.608,11.608,11.608,11.608,11.608,11.608,11.608,11.608,11.608,11.608,11.6457,11.715,11.7842,11.8535,11.9227,12.0612,12.1178,12.1304,12.2752,12.3148,12.2719,12.3206,12.1972,11.9836,11.8493,11.7329,11.6102,11.386,11.2203,11.1607,11.2635,11.2203,11.1502,11.2179,11.2399,11.2675,11.3812,11.4427,11.4534,11.5775,11.6129,11.658,11.8513,11.919,11.9955,12.1258,12.1822,12.235,12.235,12.235,12.1874,12.076,11.944,11.8745,11.8745,11.8222,11.7754,11.7754,11.7232,11.6819,11.6765,11.7489,11.7615,11.7042,11.756,11.7615,11.7042,11.7042,11.7042,11.7042,11.6227,11.6063,11.6063,11.4733,11.4452,11.5051,11.4452,11.457,11.5085,11.5085,11.5085,0.0,0.0,0.0,0.0,0.0,0.0,0.0,0.0,0.0,0.0,0.0,0.0,0.0,0.0,0.0,10.5141,10.5067,10.5569,10.6875,10.5847,10.4946,10.4817,10.6434,10.7046,10.5819,10.6952,10.8777,11.1295,11.1484,11.2743,11.5513,11.5639,11.5765,11.608,11.608,11.608,11.608,11.608,11.608,11.608,0.0,0.0,11.6142,11.7276,11.7779,11.7842,11.9164,11.9794,11.9857,12.1241,12.1529,12.1037,12.1706,12.0905,11.9116,11.8177,11.6353,11.4513,11.4157,11.2705,11.1268,11.309,11.2621,11.1389,11.1389,11.1389,0.0,11.263,11.2969,11.3138,11.4488,11.4881,11.5164,11.6806,11.7655,11.8516,12.0047,12.1087,12.171,12.171,12.171,12.1289,12.0285,11.9418,11.8784,11.9067,11.8121,11.7328,11.7464,11.6417,11.5948,11.6779,11.7786,11.8393,11.7925,11.9245,11.9627,11.8119,11.8529,11.8639,11.8474,11.7489,11.6696,11.6744,11.5656,11.5114,11.51,11.4766,11.4733,11.5085,11.4624,11.4515,0.0,0.0,0.0,0.0,0.0,0.0,0.0,0.0,0.0,0.0,0.0,0.0,0.0,0.0,0.0,0.0,10.6062,10.6136,10.6174,10.5343,10.4947,10.5043,10.6478,10.6896,10.5911,10.6952,10.84,10.991,11.0036,11.1295,11.4065,0.0,0.0,0.0,0.0,11.608,11.608,11.608,11.608,11.608,11.608,11.608,11.608,11.6268,11.6331,11.6394,11.7779,11.8409,11.8535,11.9857,12.0308,12.0193,12.0246,12.0183,11.9826,11.7886,11.5755,11.3816,11.1882,0.0,0.0,11.0024,11.0759,11.1389,11.1389,11.1389,11.1445,11.1558,11.1614,11.2003,11.3178,11.3121,11.2788,11.3738,11.51,11.6282,11.5827,11.7692,11.9175,11.9175,11.9175,11.9175,11.9121,11.8854,11.9053,12.0163,11.9283,11.8823,12.0039,11.9074,11.7978,11.694,0.0,0.0,11.5708,11.7618,11.7948,11.5746,11.7477,11.8312,11.7006,11.6899,11.6892,11.6799,11.5656,11.4976,11.5185,11.3946,11.411,11.5085,11.3028,11.2057,0.0,0.0,0.0,0.0,0.0,0.0,0.0,0.0,0.0,0.0,0.0,0.0,0.0,0.0,0.0,0.0,10.5521,10.5337,10.5872,10.5867,10.5459,10.5,10.5637,10.5647,10.465,10.5756,10.7141,10.8526,10.9344,11.0666,11.268,11.2806,11.3058,11.3624,11.4443,11.4821,11.4821,11.5639,11.608,11.608,11.608,11.608,11.608,11.608,11.608,0.0,11.6709,11.6961,11.7087,11.8409,11.8975,0.0,0.0,0.0,0.0,0.0,11.6839,11.5522,11.4758,11.2568,11.0501,11.168,11.0847,10.9244,10.9244,10.9244,10.9414,11.0147,11.0156,11.0163,11.1777,11.1727,11.1456,11.2076,11.3476,11.4453,11.411,11.5953,11.7747,11.7652,11.8198,0.0,11.6743,11.7079,11.7813,11.8338,11.7973,11.7919,11.8333,11.6689,11.5656,11.571,11.585,11.5527,11.5212,11.6676,0.0,0.0,0.0,11.6277,11.5757,11.5703,0.0,0.0,0.0,0.0,0.0,0.0,0.0,0.0,11.0536,11.0427,0.0,0.0,0.0,0.0,0.0,0.0,0.0,0.0,0.0,0.0,0.0,0.0,0.0,0.0,0.0,0.0,0.0,10.5056,10.5805,10.6048,10.5741,10.4404,10.4665,10.4559,10.32,10.4308,10.5567,10.6511,10.7518,10.8903,11.0666,11.0792,11.1107,11.1925,11.2869,11.3436,11.3436,11.4443,11.5135,11.5513,11.5513,11.5702,11.608,11.608,11.608,11.608,11.608,11.608,11.6142,11.7213,11.759,11.7401,11.5639,11.5765,11.7024,11.7024,11.6906,11.6528,11.5549,11.334,11.1146,11.1684,11.0372,10.8506,10.7932,10.7721,10.789,10.8849,10.8646,10.8654,10.9931,11.0163,10.9897,11.0401,11.1461,11.2188,11.2317,11.3969,11.561,11.5755,11.6282,11.6172,11.4515,11.4733,11.5601,11.6172,11.6061,0.0,11.6203,11.4624,11.3566,11.4143,11.4143,11.4143,11.4143,11.5573,11.566,11.4253,11.4869,11.4711,11.4143,11.4546,11.3946,11.2812,11.2003,11.175,0.0,0.0,0.0,0.0,0.0,0.0,0.0,0.0,0.0,0.0,0.0,0.0,0.0,0.0,0.0,0.0,0.0,0.0,0.0,0.0,0.0,0.0,0.0,0.0,10.5928,10.5995,10.5182,10.2905,10.3935,10.3943,10.1836,10.286,10.3741,10.3741,10.3804,10.5,10.7707,10.7833,10.9092,11.1799,11.1988,11.1988,11.1988,11.2051,11.2743,11.4065,11.4065,11.4758,11.608,11.608,11.608,11.608,11.608,11.608,11.608,11.6142,11.6142,11.5891,11.3121,11.2869,11.4128,11.4128,11.484,11.5454,11.1641,11.0993,11.1361,10.7359,10.816,11.0255,10.8297,10.7721,10.7721,10.7777,10.7777,10.7777,10.7834,10.7813,10.7997,10.8053,10.8844,10.9772,10.9827,11.0833,11.2161,11.3185,11.2623,11.1706,11.1706,11.1706,11.2569,11.4733,11.4218,0.0,11.5085,11.411,11.288,11.1892,11.1615,11.1615,11.1615,11.3868,11.4092,11.1892,11.3696,11.398,11.1843,11.2854,11.291,11.167,11.1559,11.0999,10.9654,0.0,0.0,0.0,0.0,0.0,0.0,0.0,0.0,0.0,0.0,0.0,0.0,0.0,0.0,0.0,0.0,0.0,0.0,0.0,0.0,0.0,0.0,0.0,0.0,0.0,10.3231,10.37,10.2715,10.1703,10.1269,10.1795,10.2168,10.2168,10.3112,10.4056,10.5,10.5,10.5441,10.6385,10.8211,10.9155,10.9155,11.0981,11.2177,11.2617,11.2617,11.2869,11.331,11.331,11.3813,11.4695,11.4695,11.5198,11.6017,11.5072,11.4128,11.3247,11.2303,11.2177,11.2617,11.2617,11.2932,11.3143,11.1834,11.1567,11.1416,10.8854,10.7677,10.728,10.5164,10.5611,10.6735,10.7105,10.6963,10.6902,10.8824,10.789,10.6672,10.6672,10.7183,10.7901,10.7791,10.9064,11.0377,11.0907,10.9882,10.9378,11.0224,10.9773,10.9773,11.1236,11.1132,11.1088,11.1302,11.1227,11.0687,11.0385,10.9661,10.9214,10.9214,10.9827,10.9882,10.9269,10.9827,10.9717,10.7984,10.8376,10.793,10.6876,10.6908,10.6577,10.6096,0.0,0.0,0.0,0.0,0.0,0.0,0.0,0.0,0.0,0.0,0.0,0.0,0.0,0.0,0.0,0.0,0.0,0.0,0.0,0.0,0.0,0.0,0.0,0.0,0.0,0.0,10.276,10.1731,0.0,10.0913,10.1141,10.1309,10.1309,10.2192,10.286,10.286,10.3364,10.3678,10.3678,10.5378,10.6259,10.6259,10.8085,10.947,11.0414,11.0414,11.0918,11.1925,11.1925,11.2428,11.3247,11.3247,11.375,11.4506,11.3058,11.1988,11.1107,11.0603,11.0729,11.1169,11.1169,11.1484,11.1925,11.1925,11.1532,11.0865,11.0623,10.9671,10.795,10.4919,10.5348,10.6678,10.6677,10.6016,10.6096,10.8644,10.7359,10.5639,10.6454,10.6554,10.6516,10.7084,10.778,10.8286,10.803,10.6972,10.6572,10.829,10.778,10.7774,10.8844,10.8987,10.9091,10.8962,10.8943,10.8932,10.8932,10.8321,10.7875,10.7875,10.7875,10.7875,10.7875,10.7875,10.7375,10.6096,10.6182,10.5363,10.3826,10.4099,10.4043,0.0,0.0,0.0,0.0,0.0,0.0,0.0,0.0,0.0,0.0,0.0,0.0,0.0,0.0,0.0,0.0,0.0,0.0,0.0,0.0,0.0,0.0,0.0,0.0,0.0,0.0,0.0,10.0113,10.118,0.0,0.0,0.0,0.0,10.1055,10.1328,10.1498,10.1349,10.2671,10.3427,10.3427,10.349,10.3553,10.3553,10.3615,10.4937,10.7518,10.7518,10.8966,11.161,11.161,11.1673,11.1799,11.1799,11.1862,11.1799,11.0288,10.9722,10.9596,10.8211,10.8526,10.9722,10.9722,11.054,11.1736,11.1736,11.0385,10.9321,11.2513,11.3313,11.2054,10.7469,10.6987,0.0,0.0,10.53,10.5289,10.7519,10.6308,10.5069,10.7424,10.65,10.5595,10.7028,10.6632,10.5833,0.0,10.4126,10.3758,10.6101,0.0,10.6906,10.7915,10.7734,10.7822,10.789,10.7821,10.7875,10.7875,10.7875,10.7875,10.7875,10.7875,10.7875,10.7821,10.7821,10.7321,10.5987,10.5967,10.4725,10.2391,10.369,0.0,0.0,0.0,0.0,0.0,0.0,0.0,0.0,0.0,0.0,0.0,0.0,0.0,0.0,0.0,0.0,0.0,0.0,0.0,0.0,0.0,0.0,0.0,0.0,0.0,0.0,9.6341,9.7702,10.0747,10.069,10.1318,0.0,0.0,0.0,0.0,0.0,0.0,10.0111,10.0342,10.0531,10.0531,10.1475,10.2042,10.2042,10.3112,10.3993,10.4686,10.4686,10.563,10.733,10.733,10.8463,11.0351,11.0351,11.0918,11.1736,10.9281,10.8274,10.8211,10.7833,10.7959,10.8274,10.8274,10.8463,10.8777,10.8777,10.8456,10.8133,10.8994,10.9209,10.8845,10.7605,0.0,0.0,0.0,0.0,10.66,10.7699,10.6499,10.4994,10.4966,10.4796,10.4922,10.5008,10.4322,10.4213,0.0,10.5187,10.5236,10.6928,0.0,0.0,0.0,0.0,10.6479,10.8702,10.7513,10.6985,10.8266,10.7984,10.7875,10.7875,10.7875,10.7484,10.654,10.654,10.5598,10.3385,10.3287,10.2768,10.1151,0.0,0.0,0.0,0.0,0.0,0.0,0.0,0.0,0.0,0.0,0.0,0.0,0.0,0.0,0.0,0.0,0.0,0.0,0.0,0.0,0.0,0.0,0.0,0.0,0.0,0.0,0.0,9.3525,9.4866,9.7414,9.7643,9.8673,0.0,0.0,0.0,0.0,0.0,0.0,0.0,0.0,0.0,9.9524,10.0216,10.0594,10.0594,10.1412,10.2105,10.2671,10.2671,10.3741,10.5756,10.5756,10.6889,10.8903,10.8903,10.8651,10.8211,10.7267,10.6511,10.5945,0.0,0.0,0.0,0.0,10.5945,10.6008,10.6637,10.6826,0.0,10.8274,0.0,0.0,0.0,0.0,0.0,0.0,0.0,0.0,0.0,0.0,10.5429,10.5483,10.5273,10.5007,10.5052,10.374,10.2983,0.0,10.3816,10.3875,10.6191,0.0,0.0,0.0,0.0,10.6584,10.8313,10.7382,10.7318,10.9276,10.9324,10.9269,10.9269,10.9269,10.8768,10.7484,10.7346,10.6577,10.4707,10.3933,10.3312,0.0,0.0,0.0,0.0,0.0,0.0,0.0,0.0,0.0,0.0,0.0,0.0,0.0,0.0,0.0,0.0,0.0,0.0,0.0,0.0,0.0,0.0,0.0,0.0,0.0,0.0,0.0,0.0,0.0,9.2319,9.2721,0.0,0.0,0.0,0.0,0.0,0.0,0.0,0.0,0.0,0.0,0.0,0.0,0.0,9.95,9.95,9.9544,10.009,10.1223,10.1223,10.2608,10.5189,10.5189,10.5882,10.7204,10.7204,0.0,10.3741,10.5,0.0,0.0,0.0,0.0,0.0,0.0,0.0,0.0,0.0,0.0,0.0,0.0,0.0,0.0,0.0,0.0,0.0,0.0,0.0,0.0,0.0,0.0,10.5984,10.7026,10.6326,10.5486,0.0,10.399,10.2562,10.274,10.1617,0.0,0.0,0.0,0.0,0.0,0.0,0.0,10.7804,10.7376,10.798,11.0449,11.0791,11.0958,11.0958,11.1014,11.0567,10.9233,10.9176,10.8545,10.7293,10.5498,0.0,0.0,0.0,0.0,0.0,0.0,0.0,0.0,0.0,0.0,0.0,0.0,0.0,0.0,0.0,0.0,0.0,0.0,0.0,0.0,0.0,0.0,0.0,0.0,0.0,0.0,0.0,0.0,0.0,0.0,0.0,0.0,0.0,0.0,0.0,0.0,0.0,0.0,0.0,0.0,0.0,0.0,0.0,0.0,0.0,0.0,0.0,0.0,0.0,0.0,9.9838,10.0657,10.2231,10.2231,10.2986,10.4371,10.4371,10.4119,10.3678,0.0,0.0,0.0,0.0,0.0,0.0,0.0,0.0,0.0,0.0,0.0,0.0,0.0,0.0,0.0,0.0,0.0,0.0,0.0,0.0,0.0,0.0,0.0,0.0,0.0,10.6133,10.6278,10.4495,0.0,0.0,0.0,0.0,0.0,0.0,0.0,0.0,0.0,0.0,0.0,11.1019,10.8191,10.6795,10.9564,11.0427,11.0627,11.0627,11.1287,11.127,11.0112,10.9227,10.8209,0.0,0.0,0.0,0.0,0.0,0.0,0.0,0.0,0.0,0.0,0.0,0.0,0.0,0.0,0.0,0.0,0.0,0.0,0.0,0.0,0.0,0.0,0.0,0.0,0.0,0.0,0.0,0.0,0.0,0.0,0.0,0.0,0.0,0.0,0.0,0.0,0.0,0.0,0.0,0.0,0.0,0.0,0.0,0.0,0.0,0.0,0.0,0.0,0.0,0.0,0.0,0.0,0.0,0.0,0.0,0.0,0.0,0.0,0.0,10.2105,0.0,0.0,0.0,0.0,0.0,0.0,0.0,0.0,0.0,0.0,0.0,0.0,0.0,0.0,0.0,0.0,0.0,0.0,0.0,0.0,0.0,0.0,0.0,0.0,0.0,0.0,0.0,0.0,0.0,0.0,0.0,0.0,0.0,0.0,0.0,0.0,0.0,0.0,0.0,0.0,11.095,10.8757,10.7905,11.0703,11.1389,11.1568,11.1571,11.1945,11.1574,11.0422,10.9877,0.0,0.0,0.0,0.0,0.0,0.0,0.0,0.0,0.0,0.0,0.0,0.0,0.0,0.0,0.0,0.0,0.0,0.0,0.0,0.0,0.0,0.0,0.0,0.0,0.0,0.0,0.0,0.0,0.0,0.0,0.0,0.0,0.0,0.0,0.0,0.0,0.0,0.0,0.0,0.0,0.0,0.0,0.0,0.0,0.0,0.0,0.0,0.0,0.0,0.0,0.0,0.0,0.0,0.0,0.0,0.0,0.0,0.0,0.0,10.0805,0.0,0.0,0.0,0.0,0.0,0.0,0.0,0.0,0.0,0.0,0.0,0.0,0.0,0.0,0.0,0.0,0.0,0.0,0.0,0.0,0.0,0.0,0.0,0.0,0.0,0.0,0.0,0.0,0.0,0.0,0.0,0.0,0.0,0.0,0.0,0.0,0.0,0.0,0.0,0.0,0.0,10.9624,10.8779,10.8899,11.119,11.1859,11.2187,11.2208,11.2136,11.1714,11.1046,11.0564,0.0,0.0,0.0,0.0,0.0,0.0,0.0,0.0,0.0,0.0,0.0,0.0,0.0,0.0,0.0,0.0,0.0,0.0,0.0,0.0,0.0,0.0,0.0,0.0,0.0,0.0,0.0,0.0,0.0,0.0,0.0,0.0,0.0,0.0,0.0,0.0,0.0,0.0,0.0,0.0,0.0,0.0,0.0,0.0,0.0,0.0,0.0,0.0,0.0,0.0,0.0,0.0,0.0,0.0,0.0,0.0,0.0,0.0,0.0,0.0,0.0,0.0,0.0,0.0,0.0,0.0,0.0,0.0,0.0,0.0,0.0,0.0,0.0,0.0,0.0,0.0,0.0,0.0,0.0,0.0,0.0,0.0,0.0,0.0,0.0,0.0,0.0,0.0,0.0,0.0,0.0,0.0,0.0,0.0,0.0,0.0,0.0,0.0,0.0,0.0,0.0,10.8131,10.7226,10.6987,10.8586,11.0583,11.1866,11.1812,11.1445,11.1752,11.2789,0.0,0.0,0.0,0.0,0.0,0.0,0.0,0.0,0.0,0.0,0.0,0.0,0.0,0.0,0.0,0.0,0.0,0.0,0.0,0.0,0.0,0.0,0.0,0.0,0.0,0.0,0.0,0.0,0.0,0.0,0.0,0.0,0.0,0.0,0.0,0.0,0.0,0.0,0.0,0.0,0.0,0.0,0.0,0.0,0.0,0.0,0.0,0.0,0.0,0.0,0.0,0.0,0.0,0.0,0.0,0.0,0.0,0.0,0.0,0.0,0.0,0.0,0.0,0.0,0.0,0.0,0.0,0.0,0.0,0.0,0.0,0.0,0.0,0.0,0.0,0.0,0.0,0.0,0.0,0.0,0.0,0.0,0.0,0.0,0.0,0.0,0.0,0.0,0.0,0.0,0.0,0.0,0.0,0.0,0.0,0.0,0.0,0.0,0.0,0.0,0.0,0.0,10.6807,10.6619,10.6735,10.819,10.9875,11.0643,10.9729,10.9609,10.9324,10.9096,0.0,0.0,0.0,0.0,0.0,0.0,0.0,0.0,0.0,0.0,0.0,0.0,0.0,0.0,0.0,0.0,0.0,0.0,0.0,0.0,0.0,0.0,0.0,0.0,0.0,0.0,0.0,0.0,0.0,0.0,0.0,0.0,0.0,0.0,0.0,0.0,0.0,0.0,0.0,0.0,0.0,0.0,0.0,0.0,0.0,0.0,0.0,0.0,0.0,0.0,0.0,0.0,0.0,0.0,0.0,0.0,0.0,0.0,0.0,0.0,0.0,0.0,0.0,0.0,0.0,0.0,0.0,0.0,0.0,0.0,0.0,0.0,0.0,0.0,0.0,0.0,0.0,0.0,0.0,0.0,0.0,0.0,0.0,0.0,0.0,0.0,0.0,0.0,0.0,0.0,0.0,0.0,0.0,0.0,0.0,0.0,0.0,0.0,0.0,0.0,0.0,0.0,10.5368,10.6023,10.6729,10.768,10.9216,10.9788,10.8331,10.7871,10.7348,10.6426,0.0,0.0,0.0,0.0,0.0,0.0,0.0,0.0,0.0,0.0,0.0,0.0,0.0,0.0,0.0,0.0,0.0,0.0,0.0,0.0,0.0,0.0,0.0,0.0,0.0,0.0,0.0,0.0,0.0,0.0,0.0,0.0,0.0,0.0,0.0,0.0,0.0,0.0,0.0,0.0,0.0,0.0,0.0,0.0,0.0,0.0,0.0,0.0,0.0,0.0,0.0,0.0,0.0,0.0,0.0,0.0,0.0,0.0,0.0,0.0,0.0,0.0,0.0,0.0,0.0,0.0,0.0,0.0,0.0,0.0,0.0,0.0,0.0,0.0,0.0,0.0,0.0,0.0,0.0,0.0,0.0,0.0,0.0,0.0,0.0,0.0,0.0,0.0,0.0,0.0,0.0,0.0,0.0,0.0,0.0,0.0,0.0,0.0,0.0,0.0,0.0,0.0,10.4233,10.5488,10.6264,10.6365,10.8732,10.9788,10.8331,10.7048,10.6365,0.0,0.0,0.0,0.0,0.0,0.0,0.0,0.0,0.0,0.0,0.0,0.0,0.0,0.0,0.0,0.0,0.0,0.0,0.0,0.0,0.0,0.0,0.0,0.0,0.0,0.0,0.0,0.0,0.0,0.0,0.0,0.0,0.0,0.0,0.0,0.0,0.0,0.0,0.0,0.0,0.0,0.0,0.0,0.0,0.0,0.0,0.0,0.0,0.0,0.0,0.0,0.0,0.0,0.0,0.0,0.0,0.0,0.0,0.0,0.0,0.0,0.0,0.0,0.0,0.0,0.0,0.0,0.0,0.0,0.0,0.0,0.0,0.0,0.0,0.0,0.0,0.0,0.0,0.0,0.0,0.0,0.0,0.0,0.0,0.0,0.0,0.0,0.0,0.0,0.0,0.0,0.0,0.0,0.0,0.0,0.0,0.0,0.0,0.0,0.0,0.0,0.0,0.0,10.3095,10.495,10.6387,0.0,10.9333,11.0156,10.7243,10.7288,10.6304,10.3861,0.0,0.0,0.0,0.0,0.0,0.0,0.0,0.0,0.0,0.0,0.0,0.0,0.0,0.0,0.0,0.0,0.0,0.0,0.0,0.0,0.0,0.0,0.0,0.0,0.0,0.0,0.0,0.0,0.0,0.0,0.0,0.0,0.0,0.0,0.0,0.0,0.0,0.0,0.0,0.0,0.0,0.0,0.0,0.0,0.0,0.0,0.0,0.0,0.0,0.0,0.0,0.0,0.0,0.0,0.0,0.0,0.0,0.0,0.0,0.0,0.0,0.0,0.0,0.0,0.0,0.0,0.0,0.0,0.0,0.0,0.0,0.0,0.0,0.0,0.0,0.0,0.0,0.0,0.0,0.0,0.0,0.0,0.0,0.0,0.0,0.0,0.0,0.0,0.0,0.0,0.0,0.0,0.0,0.0,0.0,0.0,0.0,0.0,0.0,0.0,0.0,0.0,0.0,10.4352,10.5848,0.0,10.8309,10.8773,10.6582,10.6447,10.5349,10.2557,0.0,0.0,0.0,0.0,0.0,0.0,0.0,0.0,0.0,0.0,0.0,0.0,0.0,0.0,0.0,0.0,0.0,0.0,0.0,0.0,0.0,0.0,0.0,0.0,0.0,0.0,0.0,0.0,0.0,0.0,0.0,0.0,0.0,0.0,0.0,0.0,0.0,0.0,0.0,0.0,0.0,0.0,0.0,0.0,0.0,0.0,0.0,0.0,0.0,0.0,0.0,0.0,0.0,0.0,0.0,0.0,0.0,0.0,0.0,0.0,0.0,0.0,0.0,0.0,0.0,0.0,0.0,0.0,0.0,0.0,0.0,0.0,0.0,0.0,0.0,0.0,0.0,0.0,0.0,0.0,0.0,0.0,0.0,0.0,0.0,0.0,0.0,0.0,0.0,0.0,0.0,0.0,0.0,0.0,0.0,0.0,0.0,0.0,0.0,0.0,0.0,0.0,0.0,10.3693,10.489,10.6027,10.6327,10.6563,10.6227,10.5308,10.3975,10.2557,10.2497,0.0,0.0,0.0,0.0,0.0,0.0,0.0,0.0,0.0,0.0,0.0,0.0,0.0,0.0,0.0,0.0,0.0,0.0,0.0,0.0,0.0,0.0,0.0,0.0,0.0,0.0,0.0,0.0,0.0,0.0,0.0,0.0,0.0,0.0,0.0,0.0,0.0,0.0,0.0,0.0,0.0,0.0,0.0,0.0,0.0,0.0,0.0,0.0,0.0,0.0,0.0,0.0,0.0,0.0,0.0,0.0,0.0,0.0,0.0,0.0,0.0,0.0,0.0,0.0,0.0,0.0,0.0,0.0,0.0,0.0,0.0,0.0,0.0,0.0,0.0,0.0,0.0,0.0,0.0,0.0,0.0,0.0,0.0,0.0,0.0,0.0,0.0,0.0,0.0,0.0,0.0,0.0,0.0,0.0,0.0,0.0,0.0,0.0,0.0,0.0,0.0,0.0,10.4471,10.5608,10.483,10.7037,10.7754,10.6083,10.6811,10.6283,10.362,10.3446,0.0,0.0,0.0,0.0,0.0,0.0,0.0,0.0,0.0,0.0,0.0,0.0,0.0,0.0,0.0,0.0,0.0,0.0,0.0,0.0,0.0,0.0,0.0,0.0,0.0,0.0,0.0,0.0,0.0,0.0,0.0,0.0,0.0,0.0,0.0,0.0,0.0,0.0,0.0,0.0,0.0,0.0,0.0,0.0,0.0,0.0,0.0,0.0,0.0,0.0,0.0,0.0,0.0,0.0,0.0,0.0,0.0,0.0,0.0,0.0,0.0,0.0,0.0,0.0,0.0,0.0,0.0,0.0,0.0,0.0,0.0,0.0,0.0,0.0,0.0,0.0,0.0,0.0,0.0,0.0,0.0,0.0,0.0,0.0,0.0,0.0,0.0,0.0,0.0,0.0,0.0,0.0,0.0,0.0,0.0,0.0,0.0,0.0,0.0,0.0,0.0,0.0,10.2975,10.4709,10.4943,10.6511,10.7057,10.6486,10.6398,10.5552,10.3932,10.4606,0.0,0.0,0.0,0.0,0.0,0.0,0.0,0.0,0.0,0.0,0.0,0.0,0.0,0.0,0.0,0.0,0.0,0.0,0.0,0.0,0.0,0.0,0.0,0.0,0.0,0.0,0.0,0.0,0.0,0.0,0.0,0.0,0.0,0.0,0.0,0.0,0.0,0.0,0.0,0.0,0.0,0.0,0.0,0.0,0.0,0.0,0.0,0.0,0.0,0.0,0.0,0.0,0.0,0.0,0.0,0.0,0.0,0.0,0.0,0.0,0.0,0.0,0.0,0.0,0.0,0.0,0.0,0.0,0.0,0.0,0.0,0.0,0.0,0.0,0.0,0.0,0.0,0.0,0.0,0.0,0.0,0.0,0.0,0.0,0.0,0.0,0.0,0.0,0.0,0.0,0.0,0.0,0.0,0.0,0.0,0.0,0.0,0.0,0.0,0.0,0.0,0.0,0.0,10.3259,10.5289,10.5323,10.5561,10.6658,10.5312,10.428,10.3935,0.0,0.0,0.0,0.0,0.0,0.0,0.0,0.0,0.0,0.0,0.0,0.0,0.0,0.0,0.0,0.0,0.0,0.0,0.0,0.0,0.0,0.0,0.0,0.0,0.0,0.0,0.0,0.0,0.0,0.0,0.0,0.0,0.0,0.0,0.0,0.0,0.0,0.0,0.0,0.0,0.0,0.0,0.0,0.0,0.0,0.0,0.0,0.0,0.0,0.0,0.0,0.0,0.0,0.0,0.0,0.0,0.0,0.0,0.0,0.0,0.0,0.0,0.0,0.0,0.0,0.0,0.0,0.0,0.0,0.0,0.0,0.0,0.0,0.0,0.0,0.0,0.0,0.0,0.0,0.0,0.0,0.0,0.0,0.0,0.0,0.0,0.0,0.0,0.0,0.0,0.0,0.0,0.0,0.0,0.0,0.0,0.0,0.0,0.0,0.0,0.0,0.0,0.0,0.0,0.0,10.4349,10.4889,10.5168,10.5536,10.6523,10.6415,10.5096,0.0,0.0,0.0,0.0,0.0,0.0,0.0,0.0,0.0,0.0,0.0,0.0,0.0,0.0]}],[{"header":{"parameterUnit":"kt","parameterCategory":2,"dx":1,"dy":1,"la1":29.285339999999998,"la2":30.599998999999997,"lo1":-89.70041500000002,"lo2":-87.6738589999976,"nx":112,"ny":82,"refTime":"2022-09-27T06:00:00:Z","depth":0,"parameterNumber":2,"parameterNumberName":"V-component_of_WINDS"},"data":[-4.5838,-4.5346,0.0,-4.3658,-4.3381,0.0,-4.3334,0.0,-4.4229,-4.342,-4.3479,-4.3268,-4.3268,-4.3268,-4.3268,-4.3268,-4.3268,-4.3558,0.0,-4.5617,0.0,0.0,0.0,-5.1158,-5.106,0.0,0.0,0.0,0.0,0.0,0.0,0.0,-5.7394,-5.9747,-5.7199,-5.7685,-6.1457,-5.9313,-5.9847,-6.3004,-6.5236,-6.7768,-6.9967,-7.2219,-7.3839,-7.5109,-7.5109,-7.5109,-7.5109,-7.5109,-7.5109,-7.5109,-7.5109,-7.5109,-7.5109,-7.5109,-7.5109,-7.5109,-7.5109,-7.5109,-7.5109,-7.5109,-7.5109,-7.5109,-7.5109,-7.5109,-7.5216,-7.5787,-7.5537,-7.5252,-7.5787,-7.6464,-7.707,-7.7355,-7.8425,-7.9708,-8.0813,-8.1419,-8.2061,-8.313,-8.3736,-8.4545,-8.5868,-8.6594,-8.7282,-8.7625,-8.8652,-8.9335,-9.0016,-9.0016,-9.0016,-9.0016,-9.0016,-9.0016,-9.0016,-8.9523,-8.8726,-8.7587,-8.7017,-8.7272,-8.8591,-8.9976,-9.0363,-9.0678,-9.4363,-9.575,-9.4759,-9.5081,-9.7188,-10.0461,-10.0461,-10.3366,0.0,0.0,-4.3334,-4.3467,0.0,0.0,0.0,-4.3479,-4.3362,-4.3373,-4.3479,-4.3268,-4.3268,-4.3268,-4.3315,-4.3479,-4.3385,-4.3385,0.0,-4.5103,0.0,0.0,0.0,0.0,0.0,0.0,0.0,0.0,0.0,0.0,0.0,-5.824,-5.9593,-6.1702,-5.9888,-6.0885,-6.5258,-6.2803,-6.3324,-6.6821,-6.9027,-7.0626,-7.1907,-7.4148,-7.5109,-7.5109,-7.5109,-7.5109,-7.5109,-7.5109,-7.5109,-7.5109,-7.5109,-7.5109,-7.5109,-7.5109,-7.5109,-7.5109,-7.5109,-7.5109,-7.5109,-7.5109,-7.5109,-7.5109,-7.5109,-7.5109,-7.5109,-7.5109,-7.5109,-7.5109,-7.5109,-7.6286,-7.7427,-7.7427,-7.8852,-8.0457,-8.1241,-8.2025,-8.2809,-8.3594,-8.4164,-8.4903,-8.5249,-8.6249,-8.6938,-8.7282,-8.7968,-8.8994,-9.0016,-9.0016,-9.0016,-9.0016,-9.0016,-9.0016,-9.0016,-8.9523,-8.884,-8.8004,-8.8386,-8.8958,-8.8984,-9.134,-9.2099,-9.1112,-9.5794,-9.7843,-9.6858,-9.8175,-10.0418,-10.4006,-10.2724,-10.5325,-4.3385,-4.3303,-4.3242,-4.3385,-4.3268,-4.3268,-4.3268,-4.3268,-4.3268,-4.3268,-4.3268,-4.3268,-4.3291,-4.3291,-4.3432,-4.3311,-4.3303,0.0,0.0,-4.4966,-4.585,0.0,0.0,0.0,0.0,0.0,0.0,0.0,0.0,0.0,-5.8043,-6.0352,-6.1952,-6.2549,-6.4623,-6.5876,-6.5876,-6.5227,-6.6821,-7.028,-7.028,-7.1907,-7.5109,-7.5109,-7.5109,-7.5109,-7.5109,-7.5109,-7.5109,-7.5109,-7.5109,-7.5109,-7.5109,-7.5109,-7.5109,-7.5109,-7.5109,-7.5109,-7.5109,-7.5109,-7.5109,-7.5109,-7.5109,-7.5109,-7.5109,-7.5109,-7.5109,-7.5109,-7.5109,-7.5109,-7.5109,-7.6286,-7.7462,-7.7462,-7.928,-8.1241,-8.2025,-8.2774,-8.3558,-8.4378,-8.4556,-8.4556,-8.4556,-8.5213,-8.6249,-8.6938,-8.7968,-8.8994,-9.0016,-9.0016,-9.0016,-9.0016,-9.0016,-9.0016,-9.0016,-9.0016,-8.9675,-8.8878,-9.1978,-9.2242,-8.8171,-9.1044,-9.1766,-8.9395,-9.2639,-9.6284,-10.0786,-10.4006,-10.7267,-11.0839,-10.7267,-10.7582,-4.3315,-4.3362,-4.3432,-4.3315,-4.3268,-4.3268,-4.3268,-4.3268,-4.3268,-4.3268,-4.3268,0.0,0.0,0.0,-4.3233,-4.343,0.0,-4.4385,0.0,-4.5584,0.0,0.0,0.0,0.0,0.0,0.0,0.0,0.0,0.0,0.0,-5.69,-5.9499,-6.2058,-6.483,-6.4985,-6.7425,-7.2527,-6.9787,-7.0314,-7.3529,-7.3529,-7.4148,-7.5109,-7.5109,-7.5109,-7.5109,-7.5109,-7.5109,-7.5109,-7.5109,-7.5109,-7.5109,-7.5109,-7.5109,-7.5109,-7.5109,-7.5109,-7.5109,-7.5109,-7.5109,-7.5109,-7.5109,-7.5109,-7.5109,-7.5109,-7.5109,-7.5109,-7.5109,-7.5109,-7.5109,-7.5109,-7.6286,-7.7462,-7.7462,-7.928,-8.1241,-8.2025,-8.2774,-8.3558,-8.4378,-8.4556,-8.4556,-8.4556,-8.4903,-8.5213,-8.6249,-8.6938,-8.7968,-8.8994,-8.9676,-9.0016,-9.0016,-9.0016,-9.0016,-9.0016,-9.0016,-8.9903,-8.9675,-9.2333,-9.538,-9.8604,-9.7977,-9.8123,-9.9657,-10.1623,-10.306,-10.4325,-10.4962,-10.7267,-11.0839,-10.9862,-10.9862,-4.3268,-4.3268,-4.3268,-4.3268,-4.3268,-4.3268,-4.3268,-4.3268,-4.3268,-4.3268,0.0,0.0,0.0,0.0,0.0,0.0,-4.4492,0.0,0.0,0.0,-4.8113,0.0,0.0,0.0,0.0,0.0,0.0,0.0,0.0,-5.6667,-5.8431,-6.1098,-6.4318,-6.787,-6.8789,-7.0972,-7.5109,-7.3184,-7.3184,-7.5109,-7.5109,-7.5109,-7.5109,-7.5109,-7.5109,-7.5109,-7.5109,-7.5109,-7.5109,-7.5109,-7.5109,-7.5109,-7.5109,-7.5109,-7.5109,-7.5109,-7.5109,-7.5109,-7.5109,-7.5109,-7.5109,-7.5109,-7.5109,-7.5109,-7.5109,-7.5109,-7.5109,-7.5109,-7.5109,-7.5109,-7.5109,-7.6036,-7.6963,-7.6963,-7.9031,-8.117,-8.1597,-8.2845,-8.3986,-8.4449,-8.4556,-8.4556,-8.4556,-8.4556,-8.4903,-8.6249,-8.6594,-8.7282,-8.831,-8.8994,-8.9335,-8.9335,-8.9676,-9.0016,-9.0016,-9.0016,-9.0658,-9.1972,-9.3765,-9.742,-10.3589,-10.2547,-10.2174,-10.2536,-10.4696,-10.5598,-10.5598,-10.6907,-10.8881,-11.0839,-11.0839,-11.0839,-4.3268,-4.3268,-4.3268,-4.3268,-4.3268,-4.3291,-4.3338,0.0,-4.3362,-4.3408,0.0,0.0,-4.345,0.0,0.0,0.0,0.0,0.0,-4.7219,-4.7819,0.0,0.0,0.0,0.0,0.0,0.0,-5.4123,-5.5654,-5.6172,-5.779,-6.1193,-6.4203,-6.7101,-7.0715,-7.3567,-7.5109,-7.5109,-7.5109,-7.5109,-7.5109,-7.5109,-7.5109,-7.5109,-7.5109,-7.5109,-7.5109,-7.5109,-7.5109,-7.5109,-7.5109,-7.5109,-7.5109,-7.5109,-7.5109,-7.5109,-7.5109,-7.5109,-7.5109,-7.5109,-7.5109,-7.5109,-7.5109,-7.5109,-7.5109,-7.5109,-7.5109,-7.5109,-7.5109,-7.5109,-7.5109,-7.5109,-7.568,-7.625,-7.625,-7.871,-8.1027,-8.1027,-8.2881,-8.4556,-8.4556,-8.4556,-8.4556,-8.4556,-8.4556,-8.5249,-8.6594,-8.6249,-8.6594,-8.7968,-8.8652,-8.8652,-8.8652,-8.9335,-8.9979,-9.0658,-9.0658,-9.1972,-9.5574,-9.6197,-9.9115,-10.528,-10.5959,-10.4644,-10.1757,-10.4325,-10.5598,-10.6276,-10.9193,-11.0839,-11.0839,-11.0839,-11.0839,-4.3268,-4.3268,-4.3268,-4.3268,-4.3268,-4.3362,0.0,0.0,0.0,-4.3407,0.0,0.0,0.0,0.0,0.0,0.0,0.0,0.0,0.0,0.0,0.0,0.0,0.0,0.0,0.0,-5.3673,-5.4368,-5.5602,-5.8063,-5.9884,-6.0245,-6.3274,-6.6695,-7.02,-7.3254,-7.5109,-7.5109,-7.5109,-7.5109,-7.5109,-7.5109,-7.5109,-7.5109,-7.5109,-7.5109,-7.5109,-7.5109,-7.5109,-7.5109,-7.5109,-7.5109,-7.5109,-7.5109,-7.5109,-7.5109,-7.5109,-7.5109,-7.5109,-7.5109,-7.5109,-7.5109,-7.5109,-7.5109,-7.5109,-7.5109,-7.5109,-7.5109,-7.5109,-7.5109,-7.5109,-7.5109,-7.568,-7.625,-7.625,-7.871,-8.1027,-8.1027,-8.2881,-8.4556,-8.4556,-8.4556,-8.4556,-8.4556,-8.4556,-8.4556,-8.4867,-8.5595,-8.5904,-8.6249,-8.7625,-8.8652,-8.8652,-8.9335,-9.0997,-9.3948,-9.4242,-9.5906,-9.9157,-10.2036,-10.4325,-10.5598,-10.8209,-10.9551,-10.8881,-10.6592,-10.6907,-10.9862,-11.053,-11.0839,-11.0839,-11.0839,-11.0839,-4.3268,-4.3268,-4.3268,-4.3268,-4.3268,0.0,0.0,-4.4149,-4.4832,-4.4928,-4.4793,-4.4702,-4.4809,0.0,0.0,0.0,0.0,0.0,0.0,0.0,0.0,0.0,0.0,0.0,0.0,-5.4419,-5.4678,-5.5177,-5.6819,-5.9562,-6.381,-6.5714,-6.8301,-7.2529,-7.4148,-7.5109,-7.5109,-7.5109,-7.5109,-7.5109,-7.5109,-7.5109,-7.5109,-7.5109,-7.5109,-7.5109,-7.5109,-7.5109,-7.5109,-7.5109,-7.5109,-7.5109,-7.5109,-7.5109,-7.5109,-7.5109,-7.5109,-7.5109,-7.5109,-7.5109,-7.5109,-7.5109,-7.5109,-7.5109,-7.5109,-7.5109,-7.5109,-7.5109,-7.5109,-7.5109,-7.5109,-7.5395,-7.568,-7.568,-7.7819,-7.9957,-8.035,-8.2275,-8.4057,-8.4449,-8.42,-8.4057,-8.4485,-8.4556,-8.4556,-8.5249,-8.5213,-8.5213,-8.5904,-8.6594,-8.7625,-8.7968,-8.8652,-9.0958,-9.4909,-9.5242,-9.7517,-10.268,-10.4644,-10.6276,-10.8209,-10.9862,-11.0839,-11.0839,-10.9193,-10.9193,-11.0839,-11.0839,-11.0839,-11.0839,-11.0839,-11.0839,-4.3268,-4.3268,-4.3268,-4.3268,-4.3338,0.0,-4.3404,-4.4904,-4.6279,0.0,-4.5917,-4.6532,0.0,0.0,0.0,0.0,0.0,0.0,0.0,0.0,0.0,0.0,0.0,0.0,0.0,-5.496,-5.523,-5.6763,-5.662,-6.0495,-6.9209,-6.9588,-7.1217,-7.4801,-7.5109,-7.5109,-7.5109,-7.5109,-7.5109,-7.5109,-7.5109,-7.5109,-7.5109,-7.5109,-7.5109,-7.5109,-7.5109,-7.5109,-7.5109,-7.5109,-7.5109,-7.5109,-7.5109,-7.5109,-7.5109,-7.5109,-7.5109,-7.5109,-7.5109,-7.5109,-7.5109,-7.5109,-7.5109,-7.5109,-7.5109,-7.5109,-7.5109,-7.5109,-7.5109,-7.5109,-7.5109,-7.5109,-7.5109,-7.5109,-7.6927,-7.8852,-7.9458,-8.1455,-8.3344,-8.4164,-8.3914,-8.3772,-8.4449,-8.4556,-8.4903,-8.5559,-8.4867,-8.4903,-8.5559,-8.5904,-8.6594,-8.7282,-8.8957,-9.1596,-9.5866,-9.6858,-9.9768,-10.6276,-10.6592,-10.7896,-11.0839,-11.0839,-11.0839,-11.0839,-11.0839,-11.0839,-11.0839,-11.0839,-11.0839,-11.0839,-11.0839,-11.0839,-4.3268,-4.3268,-4.3268,-4.3268,-4.328,0.0,-4.3268,-4.4725,-4.5638,0.0,0.0,0.0,0.0,0.0,0.0,0.0,0.0,0.0,0.0,0.0,0.0,0.0,0.0,0.0,-5.4778,-5.4864,-5.7167,-6.3203,-6.381,-6.6885,-7.3915,-7.4262,-7.4365,-7.5145,-7.5109,-7.5109,-7.5109,-7.5109,-7.5109,-7.5109,-7.5109,-7.5109,-7.5109,-7.5109,-7.5109,-7.5109,-7.5109,-7.5109,-7.5109,-7.5109,-7.5109,-7.5109,-7.5109,-7.5109,-7.5109,-7.5109,-7.5109,-7.5109,-7.5109,-7.5109,-7.5109,-7.5109,-7.5109,-7.5109,-7.5109,-7.5109,-7.5109,-7.5109,-7.5109,-7.5109,-7.5109,-7.5109,-7.5109,-7.5109,-7.6927,-7.8674,-7.8781,-8.0635,-8.2524,-8.3308,-8.3986,-8.4449,-8.452,-8.4556,-8.4556,-8.4556,-8.4556,-8.4556,-8.4556,-8.6249,-8.7282,-8.7282,-9.1596,-9.5866,-9.9484,-10.2724,-10.5959,-10.9862,-11.0173,-11.053,-11.0839,-11.0839,-11.0839,-11.0839,-11.0839,-11.0839,-11.0839,-11.0839,-11.0839,-11.0839,-11.0839,-11.0839,-4.3268,-4.3268,-4.3338,-4.3303,0.0,0.0,-4.477,-4.5661,-4.599,0.0,-4.6741,0.0,0.0,0.0,0.0,0.0,0.0,0.0,0.0,0.0,0.0,0.0,0.0,0.0,0.0,-5.4681,-5.9392,-7.0118,-7.0815,-7.2072,-7.4881,-7.5192,-7.505,-7.5109,-7.5109,-7.5109,-7.5109,-7.5109,-7.5109,-7.5109,-7.5109,-7.5109,-7.5109,-7.5109,-7.5109,-7.5109,-7.5109,-7.5109,-7.5109,-7.5109,-7.5109,-7.5109,-7.5109,-7.5109,-7.5109,-7.5109,-7.5109,-7.5109,-7.5109,-7.5109,-7.5109,-7.5109,-7.5109,-7.5109,-7.5109,-7.5109,-7.5109,-7.5109,-7.5109,-7.5109,-7.5109,-7.5109,-7.5109,-7.5109,-7.6571,-7.8104,-7.8567,-8.0528,-8.2275,-8.2595,-8.3308,-8.3986,-8.4449,-8.5904,-8.6865,-8.6865,-8.8236,-8.926,-8.926,-9.0881,-9.2192,-9.2528,-9.5494,-9.9074,-10.3045,-10.4644,-10.6907,-11.053,-11.0278,-11.0232,-11.0793,-11.0278,-11.0232,-11.0839,-11.0839,-11.0839,-11.0839,-11.0839,-11.0512,-10.9951,-10.9297,-10.9016,-4.3268,0.0,0.0,0.0,0.0,0.0,-4.606,-4.6844,-4.7106,-4.7108,-4.8174,0.0,0.0,0.0,0.0,0.0,0.0,0.0,0.0,0.0,0.0,0.0,0.0,0.0,0.0,0.0,0.0,0.0,-7.4923,-7.4952,-7.5145,-7.5109,-7.5109,-7.5109,-7.5109,-7.5109,-7.5109,-7.5109,-7.5109,-7.5109,-7.5109,-7.5109,-7.5109,-7.5109,-7.5109,-7.5109,-7.5109,-7.5109,-7.5109,-7.5109,-7.5109,-7.5109,-7.5109,-7.5109,-7.5109,-7.5109,-7.5109,-7.5109,-7.5109,-7.5109,-7.5109,-7.5109,-7.5109,-7.5109,-7.5109,-7.5109,-7.5109,-7.5109,-7.5109,-7.5109,-7.5109,-7.5109,-7.5109,-7.5109,-7.6321,-7.7605,-7.8211,-8.0029,-8.1669,-8.2096,-8.2809,-8.3936,-8.5415,-8.7208,-8.8882,-8.9525,-9.122,-9.2607,-9.2607,-9.4163,-9.5785,-9.6446,-9.9032,-10.1993,-10.528,-10.6321,-10.7798,-11.011,-10.9717,-10.953,-10.9951,-10.953,-10.9671,-11.0419,-11.0419,-11.0559,-11.0839,-11.0232,-10.9577,-10.8829,-10.8035,-10.7848,0.0,0.0,0.0,-4.3358,-4.4793,-4.6038,-4.6248,-4.7777,-4.9156,-4.9175,-4.944,0.0,0.0,0.0,0.0,0.0,0.0,0.0,0.0,0.0,0.0,0.0,0.0,0.0,0.0,0.0,0.0,0.0,-7.5156,-7.5145,-7.5109,-7.5109,-7.5109,-7.5109,-7.5109,-7.5109,-7.5109,-7.5109,-7.5109,-7.5109,-7.5109,-7.5109,-7.5109,-7.5109,-7.5109,-7.5109,-7.5109,-7.5109,-7.5109,-7.5109,-7.5109,-7.5109,-7.5109,-7.5109,-7.5109,-7.5109,-7.5109,-7.5109,-7.5109,-7.5109,-7.5109,-7.5109,-7.5109,-7.5109,-7.5109,-7.5109,-7.5109,-7.5109,-7.5109,-7.5109,-7.5109,-7.5109,-7.5109,-7.5109,-7.6321,-7.7462,-7.7462,-7.8745,-8.035,-8.1882,-8.2809,-8.4585,-8.8087,-8.8578,-8.9563,-9.1933,-9.2607,-9.2607,-9.2607,-9.4869,-9.6446,-9.6446,-10.1671,-10.528,-10.5598,-10.7652,-10.9038,-10.9343,-10.9343,-10.8829,-10.7801,-10.8782,-10.9343,-10.9343,-10.9343,-10.9858,-11.0839,-10.8782,-10.7754,-10.7707,-10.7707,-10.8268,-4.328,-4.3242,-4.3543,-4.491,-4.592,-4.6318,-4.6143,-4.7796,-4.9428,-4.9416,-4.9247,0.0,0.0,0.0,0.0,0.0,0.0,0.0,0.0,0.0,0.0,0.0,0.0,0.0,0.0,0.0,0.0,0.0,0.0,0.0,-7.5109,-7.5109,-7.5109,-7.5109,-7.5109,-7.5109,-7.5109,-7.5109,-7.5109,-7.5109,-7.5109,-7.5109,-7.5109,-7.5109,-7.5109,-7.5109,-7.5109,-7.5109,-7.5109,-7.5109,-7.5109,-7.5109,-7.5109,-7.5109,-7.5109,-7.5109,-7.5109,-7.5109,-7.5109,-7.5109,-7.5109,-7.5109,-7.5109,-7.5109,-7.5109,-7.5109,-7.5109,-7.5109,-7.5109,-7.5109,-7.5109,-7.5109,-7.5109,-7.5109,-7.5894,-7.6785,-7.732,-7.9926,-8.3145,-8.5289,-8.7321,-8.9061,-8.9998,-9.2215,-9.4242,-9.5282,-9.665,-9.8012,-9.8012,-9.9994,-10.1493,-10.1493,-10.4704,-10.6813,-10.6813,-10.7756,-10.8222,-10.8222,-10.7567,-10.7333,-10.7661,-10.738,-10.752,-10.8222,-10.8222,-10.8408,-10.8736,-10.8035,-10.7333,-10.6679,-10.6679,-10.6866,-4.342,-4.3839,-4.4558,-4.5944,-4.613,-4.66,-4.7289,-4.8495,-4.9294,-4.944,-4.9363,0.0,0.0,0.0,0.0,0.0,0.0,0.0,0.0,0.0,0.0,0.0,0.0,0.0,0.0,0.0,0.0,0.0,0.0,-7.5109,-7.5109,-7.5109,-7.5109,-7.5109,-7.5109,-7.5109,-7.5109,-7.5109,-7.5109,-7.5109,-7.5109,-7.5109,-7.5109,-7.5109,-7.5109,-7.5109,-7.5109,-7.5109,-7.5109,-7.5109,-7.5109,-7.5109,-7.5109,-7.5109,-7.5109,-7.5109,-7.5109,-7.5109,-7.5109,-7.5109,-7.5109,-7.5109,-7.5109,-7.5109,-7.5109,-7.5109,-7.5109,-7.5109,-7.5109,-7.5109,-7.5109,-7.5109,-7.5109,-7.5109,-7.5502,-7.6384,-7.8078,-8.1457,-8.4805,-8.701,-8.9009,-9.0902,-9.219,-9.4437,-9.6571,-9.7929,-9.9652,-10.0588,-10.0249,-10.2492,-10.4169,-10.3812,-10.5956,-10.7661,-10.7661,-10.7333,-10.7146,-10.7146,-10.6492,-10.6305,-10.6585,-10.6305,-10.6445,-10.71,-10.7146,-10.6585,-10.551,-10.551,-10.537,-10.5089,-10.5089,-10.5276,-4.3443,-4.4763,-4.6404,-4.6107,-4.6365,-4.6983,-4.8686,-4.9295,-4.9141,-4.9317,-4.9486,0.0,0.0,0.0,0.0,0.0,0.0,0.0,0.0,0.0,0.0,0.0,0.0,0.0,0.0,0.0,0.0,0.0,-7.5109,-7.5109,-7.5109,-7.5109,-7.5109,-7.5109,-7.5109,-7.5109,-7.5109,-7.5109,-7.5109,-7.5109,-7.5109,-7.5109,-7.5109,-7.5109,-7.5109,-7.5109,-7.5109,-7.5109,-7.5109,-7.5109,-7.5109,-7.5109,-7.5109,-7.5109,-7.5109,-7.5109,-7.5109,-7.5109,-7.5109,-7.5109,-7.5109,-7.5109,-7.5109,-7.5109,-7.5109,-7.5109,-7.5109,-7.5109,-7.5109,-7.5109,-7.5109,-7.5417,-7.5417,-7.5109,-7.5109,-7.5905,-7.9101,-8.2665,-8.5603,-8.7291,-8.835,-9.0174,-9.453,-9.5263,-9.6611,-10.0136,-10.0673,-10.0333,-9.9399,-10.2055,-10.3857,-10.2875,-10.5756,-10.752,-10.752,-10.6632,-10.6071,-10.6071,-10.6071,-10.565,-10.4669,-10.551,-10.5978,-10.5978,-10.5931,-10.4482,-10.163,-10.163,-10.2144,-10.3079,-10.3126,-10.3687,-4.2903,-4.4655,-4.6226,-4.6201,-4.7344,-4.8379,-4.7257,-4.72,-4.7453,-4.9038,-4.9228,0.0,0.0,0.0,0.0,0.0,0.0,0.0,0.0,0.0,0.0,0.0,0.0,0.0,0.0,0.0,0.0,0.0,-7.5109,-7.5109,-7.5109,-7.5109,-7.5109,-7.5109,-7.5109,-7.5109,-7.5109,-7.5109,-7.5109,-7.5109,-7.5109,-7.5109,-7.5109,-7.5109,-7.5109,-7.5109,-7.5109,-7.5109,-7.5109,-7.5109,-7.5109,-7.5109,-7.5109,-7.5109,-7.5109,-7.5109,-7.5109,-7.5109,-7.5109,-7.5109,-7.5109,-7.5109,-7.5109,-7.5109,-7.5109,-7.5109,-7.5109,-7.5109,-7.6303,-7.7831,-7.7831,-7.901,-7.9918,-7.8136,-7.7831,-7.7868,-7.8701,-8.249,-8.6805,-9.0457,-9.2424,-9.3881,-9.5679,-9.7382,-9.8713,-9.9612,-10.0249,-10.0333,-9.9399,-10.1443,-10.2786,-10.1849,-10.3756,-10.5417,-10.5417,-10.5136,-10.4996,-10.4996,-10.4996,-10.4902,-10.4622,-10.4154,-10.3921,-10.3921,-10.3173,-10.2378,-10.163,-10.163,-10.177,-10.2051,-10.2799,-10.3687,-4.3149,-4.484,-4.6133,-4.617,-4.7101,-4.7558,-4.639,-4.6328,-4.6853,-4.9093,-4.8755,-4.7964,0.0,0.0,0.0,0.0,0.0,0.0,0.0,0.0,0.0,0.0,0.0,0.0,0.0,0.0,0.0,0.0,-7.5109,-7.5109,-7.5109,-7.5109,-7.5109,-7.5109,-7.5109,-7.5109,-7.5109,-7.5109,-7.5109,-7.5109,-7.5109,-7.5109,-7.5109,-7.5109,-7.5109,-7.5109,-7.5109,-7.5109,-7.5109,-7.5109,-7.5109,-7.5109,-7.5109,-7.5109,-7.5109,-7.5109,-7.5109,-7.5109,-7.5109,-7.5109,-7.5109,-7.5109,-7.5109,-7.5109,-7.5109,-7.5725,-7.6646,-7.6646,-7.844,-8.0219,-8.0219,-8.1123,-8.2022,-8.0521,-8.0219,-8.0521,-8.1723,-8.4068,-8.7172,-9.0782,-9.3158,-9.4729,-9.5705,-9.7064,-9.8338,-9.9145,-9.9739,-9.9739,-9.8762,-10.0919,-10.2206,-10.0867,-10.2886,-10.4622,-10.4622,-10.4622,-10.4622,-10.4622,-10.4201,-10.3967,-10.3967,-10.3032,-10.2472,-10.2472,-10.1022,-10.0274,-10.0274,-10.0274,-10.0508,-10.0976,-10.1537,-10.2612,-4.3221,-4.4786,-4.618,-4.6403,-4.6333,-4.6147,-4.6228,-4.635,-4.6922,-4.8962,-4.781,-4.6351,0.0,0.0,0.0,0.0,0.0,0.0,0.0,0.0,0.0,0.0,0.0,0.0,0.0,0.0,0.0,0.0,-7.5109,-7.5109,-7.5109,-7.5109,-7.5109,-7.5109,-7.5109,-7.5109,-7.5109,-7.5109,-7.5109,-7.5109,-7.5109,-7.5109,-7.5109,-7.5109,-7.5109,-7.5109,-7.5109,-7.5109,-7.5109,-7.5109,-7.5109,-7.5109,-7.5109,-7.5109,-7.5145,-7.5216,-7.5288,-7.5252,-7.5561,-7.5561,-7.5869,-7.6177,-7.6105,-7.6032,-7.6141,-7.76,-7.9351,-7.9351,-8.0822,-8.262,-8.262,-8.2918,-8.3216,-8.2918,-8.2918,-8.3771,-8.5839,-8.6426,-8.7259,-9.019,-9.2054,-9.354,-9.4347,-9.5578,-9.7064,-9.8805,-9.9187,-9.8932,-9.823,-10.0794,-10.1893,-10.0364,-10.2814,-10.4622,-10.4622,-10.4482,-10.4435,-10.4435,-10.35,-10.2939,-10.2939,-10.1957,-10.135,-10.1209,-9.948,-9.8545,-9.8545,-9.8545,-9.9012,-9.99,-10.0041,-10.1116,-4.3327,-4.4722,-4.6416,-4.6341,-4.6412,-4.6365,-4.6147,-4.6205,-4.6869,-4.8889,-4.7867,-4.6212,-4.6212,0.0,0.0,0.0,0.0,0.0,0.0,0.0,0.0,0.0,0.0,0.0,0.0,0.0,0.0,0.0,0.0,-7.5109,-7.5109,-7.5109,-7.5109,-7.5109,-7.5109,-7.5109,-7.5109,-7.5109,-7.5109,-7.5109,-7.5109,-7.5109,-7.5109,-7.5109,-7.5109,-7.5109,-7.5109,-7.5109,-7.5109,-7.5109,-7.5109,-7.5109,-7.5109,-7.5109,-7.5181,-7.5822,-7.6072,-7.6384,-7.8211,-7.9138,-7.9409,-8.1554,-8.1662,-8.1238,-8.1932,-8.1964,-8.1723,-8.1723,-8.3474,-8.525,-8.525,-8.6719,-8.7637,-8.5839,-8.676,-8.8219,-8.88,-8.8842,-8.8884,-8.9634,-9.0568,-9.1374,-9.1544,-9.4304,-9.6852,-9.7913,-9.8762,-9.9571,-9.9805,-10.0842,-10.1741,-10.1767,-10.3449,-10.4622,-10.4622,-10.3874,-10.3406,-10.3406,-10.2472,-10.1911,-10.1911,-10.0882,-9.9947,-9.9106,-9.8732,-9.8545,-9.8545,-9.8545,-9.8638,-9.8872,-9.9713,-10.0742,-4.4657,-4.4905,-4.4981,-4.6086,-4.6298,-4.6369,-4.6295,-4.638,-4.6683,-4.7487,-4.7054,-4.6333,-4.617,-4.6357,0.0,0.0,0.0,0.0,0.0,0.0,0.0,0.0,0.0,0.0,0.0,0.0,0.0,0.0,0.0,-7.5109,-7.5109,-7.5109,-7.5109,-7.5109,-7.5109,-7.5109,-7.5109,-7.5109,-7.5109,-7.5109,-7.5109,-7.5109,-7.5109,-7.5109,-7.5109,-7.5109,-7.5109,-7.5109,-7.5109,-7.5109,-7.5109,-7.5109,-7.6339,-7.6915,-7.7258,-7.885,-7.9567,-8.0211,-8.1439,-8.2358,-8.2742,-8.397,-8.4308,-8.3651,-8.3915,-8.4205,-8.4667,-8.4227,-8.5839,-8.7637,-8.7637,-8.851,-8.9132,-8.7928,-8.851,-8.9421,-8.9421,-8.9421,-8.9421,-8.9421,-8.9803,-9.027,-9.0737,-9.2351,-9.4177,-9.6087,-9.7191,-9.8289,-9.9337,-10.0401,-10.1561,-10.2064,-10.328,-10.3874,-10.3874,-10.2939,-10.2378,-10.2378,-10.1396,-10.0835,-10.0835,-9.9854,-9.9059,-9.8591,-9.8545,-9.8545,-9.8545,-9.8545,-9.8545,-9.8591,-9.962,-10.0648,-4.5151,-4.4895,-4.4347,-4.5401,-4.5755,-4.5708,-4.6107,-4.624,-4.6159,-4.6123,-4.6341,-4.6271,-4.6322,-4.7943,-4.9542,0.0,0.0,0.0,0.0,0.0,0.0,0.0,0.0,0.0,0.0,0.0,0.0,0.0,0.0,0.0,-7.5109,-7.5109,-7.5109,-7.5109,-7.5109,-7.5109,-7.5109,-7.5109,-7.5109,0.0,-7.5109,-7.5109,-7.5109,-7.5109,-7.5109,-7.5109,-7.5109,-7.5109,-7.5109,-7.5109,-7.5417,-7.6032,-7.7831,-7.9048,-7.9653,-8.1616,-8.3143,-8.419,-8.4494,-8.5351,-8.6063,-8.6717,-8.6865,-8.6665,-8.6105,-8.7033,-8.8244,-8.7296,-8.822,-8.9676,-8.9464,-8.9421,-8.9464,-8.9676,-8.9549,-8.9421,-8.9421,-8.9421,-8.9421,-8.9421,-8.9421,-8.9634,-9.0398,-9.0695,-9.1714,-9.4347,-9.5748,-9.7093,-9.9259,-10.0089,-10.1022,-10.2336,-10.2828,-10.2845,-10.2845,-10.1911,-10.1303,-10.1303,-10.0321,-9.976,-9.976,-9.8965,-9.8545,-9.8545,-9.8545,-9.8545,-9.8545,-9.8545,-9.8545,-9.8591,-9.962,-10.0648,-4.3492,-4.4689,-4.5622,-4.3933,-4.3565,-4.3944,-4.5991,-4.6393,-4.6412,-4.6365,-4.6341,-4.6271,-4.6322,-5.3707,-5.9791,0.0,0.0,0.0,0.0,0.0,0.0,0.0,0.0,0.0,0.0,0.0,0.0,0.0,0.0,0.0,0.0,-7.5109,-7.5109,-7.5109,-7.5109,-7.5109,-7.5109,-7.5109,-7.5109,-7.5109,-7.5109,-7.5109,-7.5109,-7.5109,-7.5109,-7.5109,-7.5109,-7.5109,-7.5109,-7.5109,-7.6339,-7.844,-7.8744,-7.9918,-8.21,-8.2879,-8.4003,-8.5093,-8.7235,-8.8716,-8.9755,-9.2242,-9.2343,-9.1837,-9.2554,-9.2217,-9.1671,-9.0698,-9.0401,-9.0525,-8.9634,-8.9421,-8.9634,-9.0483,-9.0058,-8.9421,-8.9421,-8.9421,-8.9421,-8.9421,-8.9421,-8.9464,-8.9549,-9.027,-9.1502,-9.3497,-9.5323,-9.7714,-10.0748,-9.9496,-9.9816,-10.2689,-10.2378,-10.177,-10.177,-10.0835,-10.0228,-10.0228,-9.9246,-9.8685,-9.8685,-9.8591,-9.8545,-9.8545,-9.8545,-9.8545,-9.8545,-9.8545,-9.8545,-9.8591,-9.962,-10.0648,-4.1465,-4.307,-4.4609,-4.5037,-4.4145,-4.3513,-4.4182,-4.5497,-4.6131,-4.625,-4.613,-4.6388,-4.6251,-5.427,-6.2248,-6.6039,0.0,0.0,0.0,0.0,0.0,0.0,0.0,0.0,0.0,0.0,0.0,0.0,0.0,0.0,0.0,-7.5109,-7.5109,-7.5109,-7.5109,-7.5109,-7.5109,-7.5109,-7.5109,-7.5109,-7.5109,-7.5109,-7.5109,-7.5109,-7.5109,-7.5109,-7.5109,-7.5109,-7.5109,-7.5109,-7.6646,-7.8744,-8.0219,-8.2321,-8.47,-8.6247,-8.7576,-8.8738,-9.0259,-9.1353,-9.2494,-9.3999,-9.4262,-9.3922,-9.371,-9.337,-9.2903,-9.1969,-9.1714,-9.1629,-9.1247,-9.0737,-9.0525,-9.1502,-9.1459,-9.1162,-9.1162,-9.0695,-9.027,-9.027,-8.9803,-8.9421,-8.9421,-9.0185,-9.1289,-9.2648,-9.3922,-9.5951,-9.8973,-9.8903,-9.959,-10.2838,-10.2238,-10.163,-10.163,-10.0695,-9.9807,-9.9199,-9.8778,-9.8545,-9.8545,-9.8545,-9.8545,-9.8545,-9.8545,-9.8545,-9.8545,-9.8545,-9.8872,-9.9526,-10.0555,-10.1583,-4.0951,-4.2339,-4.3747,-4.4966,-4.4652,-4.4214,-4.4257,-4.4842,-4.5353,-4.5353,-4.817,-5.075,-5.0521,-5.7144,-6.4052,-6.937,-7.0247,0.0,0.0,0.0,0.0,0.0,0.0,0.0,0.0,0.0,0.0,0.0,0.0,0.0,0.0,-7.5109,-7.5109,-7.5109,-7.5109,-7.5109,-7.5109,-7.5109,-7.5109,-7.5109,-7.5109,-7.5109,-7.5109,-7.5109,-7.5109,-7.5109,-7.5109,-7.5109,-7.5109,-7.5725,-7.8136,-8.1123,-8.2581,-8.466,-8.7053,-8.8842,-9.0228,-9.1374,-9.2054,-9.3073,-9.4177,-9.4856,-9.5068,-9.4941,-9.4262,-9.4049,-9.388,-9.2945,-9.2691,-9.2648,-9.2393,-9.1969,-9.1841,-9.2521,-9.2521,-9.2309,-9.2309,-9.1969,-9.1672,-9.1672,-9.112,-9.0653,-9.0653,-9.0992,-9.1587,-9.2563,-9.3243,-9.4531,-9.7226,-9.8116,-9.9364,-10.1999,-10.135,-10.0742,-10.0742,-10.0041,-9.9339,-9.8591,-9.8545,-9.8545,-9.8545,-9.8545,-9.8545,-9.8545,-9.8545,-9.8545,-9.8545,-9.8872,-9.9386,-10.0134,-10.1443,-10.2472,-4.2669,-4.3301,-4.3268,-4.3443,-4.4692,-4.6115,-4.6139,-4.4865,-4.3412,-4.3241,-5.2557,-6.0884,-6.0797,-6.3291,-6.6137,-6.9758,-7.0427,-7.0328,0.0,0.0,0.0,0.0,0.0,0.0,0.0,0.0,0.0,0.0,0.0,0.0,0.0,-7.5109,-7.5109,-7.5109,-7.5109,-7.5109,-7.5109,-7.5109,-7.5109,-7.5109,-7.5109,-7.5109,-7.5109,-7.5109,-7.5109,-7.5109,-7.5109,-7.5109,-7.5109,-7.7526,-8.1423,-8.5839,-8.5839,-8.7345,-8.9421,-8.9421,-9.0653,-9.2309,-9.2309,-9.3497,-9.5026,-9.5068,-9.5068,-9.5068,-9.5026,-9.5026,-9.4856,-9.388,-9.3625,-9.3412,-9.2521,-9.2945,-9.3625,-9.3625,-9.2945,-9.2309,-9.2309,-9.2988,-9.3625,-9.3625,-9.3582,-9.3582,-9.3582,-9.286,-9.2606,-9.3497,-9.3625,-9.423,-9.569,-9.7226,-9.8868,-10.0041,-9.9199,-9.8591,-9.8591,-9.8591,-9.8591,-9.8545,-9.8545,-9.8545,-9.8545,-9.8545,-9.8545,-9.8545,-9.8545,-9.8545,-9.8545,-9.9573,-10.0087,-10.0134,-10.2191,-10.3126,-4.5243,-4.644,-4.5783,-4.3967,-4.4752,-4.5922,-4.4562,-4.3219,-4.2515,-4.3337,-4.6173,-5.2463,-6.3738,-6.3923,-6.272,-6.3699,-6.7635,-7.044,-7.0363,0.0,0.0,0.0,0.0,0.0,0.0,0.0,0.0,0.0,0.0,0.0,0.0,-7.5109,-7.5109,-7.5109,-7.5109,-7.5109,-7.5109,-7.5109,-7.5109,-7.5109,-7.5109,-7.5109,-7.5109,-7.5109,-7.5109,-7.5109,-7.6915,-7.7526,-7.7831,-8.0219,-8.2022,-8.3474,-8.525,-8.7345,-8.9421,-8.9421,-8.9803,-9.0525,-9.1841,-9.2691,-9.337,-9.4644,-9.5068,-9.5068,-9.5068,-9.5068,-9.4984,-9.4686,-9.4601,-9.4559,-9.4262,-9.4389,-9.4771,-9.5408,-9.5366,-9.5323,-9.5918,-9.579,-9.5578,-9.5578,-9.5068,-9.4601,-9.4601,-9.4899,-9.5238,-9.5535,-9.5026,-9.5212,-9.6732,-9.6477,-9.7,-9.8119,-9.9202,-9.962,-9.962,-9.962,-9.9293,-9.8591,-9.8545,-9.8545,-9.8545,-9.8545,-9.8545,-9.8545,-9.8545,-9.8919,-9.962,-9.9947,-10.0835,-10.2191,-10.2845,-10.35,-4.6408,-4.7903,-4.724,-4.4235,-4.3983,-4.488,-4.6511,-4.6688,-4.6613,-4.7408,-5.0605,-5.6701,-6.6836,-6.5119,-6.2825,-6.5215,-6.8737,-7.1086,-7.044,-7.0434,0.0,0.0,0.0,0.0,0.0,0.0,0.0,0.0,0.0,0.0,-7.5109,-7.5109,-7.5109,-7.5109,-7.5109,-7.5109,-7.5109,-7.5109,-7.5109,-7.5109,-7.4896,-7.5095,-7.5059,-7.515,-7.5042,-7.5078,-7.852,-7.9918,-8.0219,-8.2581,-8.3474,-8.3771,-8.6132,-8.8219,-8.9421,-8.9421,-8.9634,-9.0185,-9.1757,-9.2521,-9.3073,-9.4559,-9.5068,-9.5068,-9.5068,-9.5068,-9.5068,-9.5068,-9.5068,-9.5068,-9.5068,-9.5068,-9.5281,-9.6257,-9.647,-9.6724,-9.7616,-9.7659,-9.7531,-9.7531,-9.7064,-9.6639,-9.6639,-9.6852,-9.6979,-9.6979,-9.6172,-9.6067,-9.8164,-9.7376,-9.7315,-9.8953,-9.976,-9.9947,-9.9526,-9.9526,-9.9246,-9.8591,-9.8545,-9.8545,-9.8545,-9.8545,-9.8545,-9.8545,-9.8965,-9.9433,-10.0087,-10.0882,-10.1911,-10.3173,-10.3547,-10.4014,-4.6201,-4.7797,-4.7096,-4.4519,-4.3275,-4.4568,-5.1314,-5.3582,-5.4398,-5.488,-6.2992,-6.9888,-7.0064,-6.6495,-6.5481,-7.1034,-7.2447,-7.2167,-7.0582,0.0,0.0,0.0,0.0,0.0,0.0,0.0,0.0,0.0,0.0,0.0,-7.5109,-7.5109,-7.5109,-7.5109,-7.5109,-7.5109,-7.5109,-7.5109,-7.5109,-7.5109,-7.5114,-7.5542,-7.5955,-7.5191,-7.5199,-7.5944,-8.0284,-8.2282,-8.262,-8.525,-8.6132,-8.6426,-8.851,-8.9421,-8.9421,-8.9421,-8.9973,-9.0865,-9.1969,-9.286,-9.371,-9.4729,-9.5068,-9.5068,-9.5068,-9.5068,-9.5068,-9.5068,-9.5068,-9.5068,-9.5068,-9.5068,-9.5323,-9.6342,-9.6555,-9.6852,-9.7786,-9.872,-9.9399,-9.9399,-9.9399,-9.9399,-9.9399,-9.8635,-9.7998,-9.7998,-9.7149,-9.737,-9.9506,-9.8992,-9.9139,-10.1439,-10.0742,-9.9807,-9.8778,-9.8685,-9.8638,-9.8545,-9.8545,-9.8545,-9.8545,-9.8545,-9.8545,-9.8545,-9.9573,-10.0134,-10.0181,-10.2191,-10.3173,-10.3266,-10.4201,-10.4622,-4.5015,-4.6646,-4.7862,-4.8572,-5.1228,-5.3469,-5.3404,-5.3513,-5.5061,-5.9608,-6.2436,-6.5271,-6.7944,-6.6182,-6.4617,-6.5074,-6.9534,-7.2222,-7.0674,-7.1464,-7.2008,-7.2167,0.0,0.0,0.0,0.0,0.0,0.0,0.0,0.0,-7.5109,-7.5109,-7.5109,-7.5109,-7.5109,-7.5109,-7.5109,-7.5109,-7.5109,-7.5109,-7.5114,-7.8781,-8.5722,-7.8334,-7.7137,-8.0699,-8.3157,-8.4499,-8.525,-8.7637,-8.851,-8.851,-8.9132,-8.9421,-8.9421,-8.9421,-8.9549,-8.9973,-9.1714,-9.2436,-9.2903,-9.4516,-9.5068,-9.5068,-9.5068,-9.5068,-9.5068,-9.5068,-9.5068,-9.5068,-9.5068,-9.5068,-9.5493,-9.7107,-9.7489,-9.7956,-9.9654,-10.0206,-10.0376,-10.0376,-10.0376,-10.0376,-10.0376,-10.0164,-9.9994,-9.9994,-9.8947,-9.8864,-10.0697,-9.9702,-9.9815,-10.1346,-10.1396,-10.0835,-9.9807,-9.9713,-9.9386,-9.8591,-9.8545,-9.8545,-9.8545,-9.8545,-9.8545,-9.8545,-9.9573,-10.0461,-10.1256,-10.2565,-10.3547,-10.4295,-10.4528,-10.4622,-4.6477,-4.6869,-4.8918,-5.4185,-5.6815,-5.8593,-5.9157,-5.9482,-6.0587,-6.3797,-6.4892,-6.6109,-6.7803,-6.782,-6.7619,-6.69,-7.0108,-7.2138,-7.0992,-7.1286,-7.1687,0.0,0.0,0.0,0.0,0.0,0.0,0.0,0.0,0.0,-7.5109,-7.5109,-7.5109,-7.5109,-7.5109,-7.5109,-7.5109,-7.5109,-7.5109,-7.5109,-7.5166,-8.0143,-8.9274,-8.4108,-8.3094,-8.5544,0.0,-8.722,-8.7637,-8.88,-8.9421,-8.9421,-8.9421,-8.9421,-8.9421,-8.9421,-8.9421,-8.9676,-9.1629,-9.2309,-9.2606,-9.4474,-9.5068,-9.5068,-9.5068,-9.5068,-9.5068,-9.5068,-9.5068,-9.5068,-9.5068,-9.5068,-9.5408,-9.6852,-9.7489,-9.821,-9.9739,-10.0376,-10.0673,-10.0673,-10.0673,-10.0673,-10.0673,-10.0673,-10.0546,-10.0121,-9.9922,-10.0005,-10.1098,-10.1016,-10.1206,-10.2698,-10.2612,-10.1911,-10.0882,-10.0368,-9.9667,-9.8638,-9.8545,-9.8545,-9.8545,-9.8545,-9.8778,-9.9246,-10.0274,-10.1303,-10.2331,-10.336,-10.4108,-10.4622,-10.4622,-10.4622,-4.9702,-4.9452,-5.1849,-5.9996,-6.1487,-6.176,-6.4888,-6.6233,-6.6732,-6.6839,-6.8051,-6.8907,-6.8372,-6.9618,-7.1002,-7.158,-7.1748,-7.1961,-7.183,-7.1188,-7.0974,-7.191,0.0,0.0,0.0,0.0,0.0,0.0,0.0,-7.4588,-7.5109,-7.5109,-7.5109,-7.5109,-7.5109,-7.5109,-7.5109,-7.5109,-7.5074,-7.4967,-7.5071,-8.0208,-8.951,-8.9433,-8.9421,-8.9421,0.0,-8.9421,-8.9421,-8.9421,-8.9421,-8.9421,-8.9421,-8.9421,-8.9421,-8.9421,-8.9421,-8.9634,-9.1289,-9.1969,-9.2393,-9.4219,-9.4856,-9.4856,-9.5026,-9.5068,-9.5068,-9.5068,-9.5068,-9.5068,-9.5068,-9.5068,-9.5281,-9.6257,-9.7149,-9.8083,-9.906,-10.0036,-10.0673,-10.0673,-10.0673,-10.0673,-10.0673,-10.0588,-10.0206,-9.9399,-9.9879,-10.0753,-10.1142,-10.1967,-10.3155,-10.433,-10.3874,-10.2892,-10.1724,-10.0835,-9.99,-9.8872,-9.8638,-9.8545,-9.8545,-9.8545,-9.8965,-9.9854,-10.1022,-10.2051,-10.2939,-10.4061,-10.4622,-10.4622,-10.4622,-10.4622,-5.4834,-5.6846,-6.0029,-6.3971,-6.4888,-6.4888,-6.5464,-6.5805,-6.6091,-6.6732,-6.7623,-6.8443,-6.8978,-6.8194,-6.8571,-7.1073,-6.9947,-6.9724,-7.2103,-7.2471,-7.2186,-7.1687,-7.1545,0.0,0.0,0.0,0.0,0.0,0.0,-7.2107,-7.473,-7.5109,-7.5109,-7.5109,-7.5109,-7.5109,-7.5109,-7.5109,-7.5167,-7.497,-7.489,-7.9939,-8.9392,-8.947,-8.9421,-8.9421,0.0,0.0,-8.9421,-8.9421,-8.9421,-8.9421,-8.9421,-8.9421,-8.9421,-8.9421,-8.9421,-8.9464,-8.9761,-9.0398,-9.1374,-9.3243,-9.388,-9.4007,-9.4814,-9.5068,-9.5068,-9.5068,-9.5068,-9.5068,-9.5068,-9.5068,-9.5281,-9.6257,-9.7149,-9.8083,-9.906,-10.0036,-10.0673,-10.0673,-10.0673,-10.0673,-10.0673,-10.0036,-9.9442,-9.9314,-10.0258,-10.1231,-10.1358,-10.2863,-10.433,-10.4622,-10.4482,-10.364,-10.177,-10.149,-10.0929,-9.99,-9.9059,-9.8545,-9.8545,-9.8545,-9.8638,-9.8778,-10.0648,-10.1724,-10.1864,-10.3734,-10.4622,-10.4622,-10.4622,-10.4622,-5.858,-6.1286,-6.4041,-6.5429,-6.5734,-6.5734,-6.5734,-6.5734,-6.5841,-6.6162,-6.6875,-6.7695,-6.8479,-6.8376,-6.8867,-7.1038,-7.0709,-7.0557,-7.2578,-7.24,-7.2008,-7.1652,-7.1224,-7.1117,0.0,0.0,0.0,0.0,0.0,-7.2168,-7.3679,-7.4503,-7.5059,-7.5109,-7.5095,-7.4702,-7.4236,-7.6623,-7.8515,-8.0444,-8.2008,-8.5076,-8.9519,-8.9428,-8.9421,0.0,0.0,0.0,-8.9421,-8.9421,-8.9421,-8.9421,-8.9421,-8.9421,-8.9421,-8.9421,-8.9421,-8.9421,-8.9421,-9.0058,-9.1162,-9.303,-9.3625,-9.3837,-9.4771,-9.5068,-9.5068,-9.5068,-9.5068,-9.5068,-9.5068,-9.5068,-9.5153,-9.5578,-9.6427,-9.7319,-9.8253,-9.923,-10.0079,-10.0588,-10.0673,-10.0546,-9.9994,-9.9569,-9.9252,-9.9176,-10.0401,-10.1483,-10.1803,-10.3432,-10.4622,-10.4622,-10.4622,-10.4014,-10.2565,-10.2472,-10.2004,-10.0976,-9.9947,-9.9386,-9.9386,-9.8872,-9.8545,-9.8545,-10.0555,-10.2432,-10.4367,-10.5892,-10.7183,-10.828,-10.828,-10.828,-6.1798,0.0,-6.5164,-6.5164,-6.5306,-6.5449,0.0,-6.5592,-6.5734,-6.5734,-6.634,-6.7124,-6.7944,-6.8729,-6.9691,-7.1081,-7.1473,-7.1723,-7.2151,-7.2008,-7.1794,-7.1616,-7.1046,-7.0832,-7.1295,0.0,0.0,0.0,0.0,-7.2352,-7.2705,-7.4129,-7.4755,-7.4033,-7.5252,-7.5644,-7.5204,-7.8672,-8.1917,-8.4845,-8.788,-8.9435,-8.9266,-8.9343,-8.9421,0.0,0.0,0.0,-8.9421,-8.9421,-8.9421,-8.9421,-8.9421,-8.9421,-8.9421,-8.9421,-8.9421,-8.9421,-8.9421,-8.9888,-9.0737,-9.2181,-9.2945,-9.354,-9.4686,-9.4899,-9.4771,-9.4984,-9.5068,-9.5068,-9.5068,-9.5068,-9.5068,-9.5068,-9.579,-9.6639,-9.7319,-9.8253,-9.9145,-9.9866,-9.9994,-9.9782,-9.906,-9.9082,-9.9076,-9.855,-10.0265,-10.1638,-10.1767,-10.3449,-10.4622,-10.4622,-10.4622,-10.4201,-10.3219,-10.3173,-10.2799,-10.2051,-10.1022,-10.0321,-10.0087,-9.9339,-9.8825,-9.8545,-10.0087,-10.2196,-10.4883,-10.6745,-10.8792,-11.0989,-11.1238,-11.1387,0.0,-6.3831,-6.3524,-6.3524,-6.4094,-6.4665,-6.4665,-6.5199,0.0,-6.5734,-6.634,-6.7124,-6.7944,-6.8729,-6.9513,-7.0333,-7.1117,-7.1366,-7.0653,-7.1759,-7.24,-7.1687,-7.1545,-7.1224,-7.0547,0.0,0.0,0.0,0.0,0.0,-7.2669,-7.4036,-7.3592,-7.0875,-7.5429,-7.881,-8.0325,-8.1973,-8.3214,-8.4713,-8.7926,-8.9517,-8.9506,-8.9421,-8.9421,0.0,0.0,0.0,0.0,-8.9421,-8.9421,-8.9421,-8.9421,-8.9421,-8.9421,-8.9421,-8.9421,-8.9421,-8.9421,-8.9464,-8.9549,-8.9676,-9.095,-9.2733,-9.4516,-9.4432,-9.3922,-9.4814,-9.5068,-9.5068,-9.5068,-9.5068,-9.5068,-9.5068,-9.579,-9.647,-9.6555,-9.7276,-9.7913,-9.7998,-9.7998,-9.7998,-9.7913,-9.8488,-9.8507,-9.6781,-9.9646,-10.1721,-10.0184,-10.2814,-10.4622,-10.4622,-10.4622,-10.4201,-10.3219,-10.3173,-10.3126,-10.3032,-10.2098,-10.1069,-10.0134,-9.9994,-9.9526,-9.8591,-9.8685,-9.9293,-10.0601,-10.4739,-10.767,-10.9893,-11.0889,-11.1387,-6.3702,-6.3595,-6.3346,-6.3346,-6.3987,-6.4593,-6.4593,-6.5164,-6.5734,-6.5734,-6.5948,-6.6554,-6.7873,-6.8336,-6.8942,-7.019,-7.0653,-7.0903,-7.1117,-7.1224,-7.1366,-7.158,-7.1153,-7.0725,0.0,-7.0368,0.0,0.0,0.0,0.0,-7.1357,-7.2706,-7.4802,-7.7222,-7.9022,-8.0419,-8.1437,-8.297,-8.4819,-8.6721,-8.8468,-8.9386,-8.9421,-8.9421,-8.9421,0.0,0.0,0.0,0.0,-8.9421,-8.9421,-8.9421,-8.9421,-8.9421,-8.9421,-8.9421,-8.9421,-8.9421,-8.9421,-8.9421,-8.9421,-8.9421,-9.0737,-9.2309,-9.2393,-9.2988,-9.3837,-9.4771,-9.5068,-9.5068,-9.5068,-9.5068,-9.5068,-9.5068,-9.5323,-9.5748,-9.6342,-9.6724,-9.7149,-9.7701,-9.7786,-9.7932,-9.8316,-9.886,-9.9348,-9.9905,-10.1307,-10.2269,-10.286,-10.3743,-10.4622,-10.4622,-10.4622,-10.4482,-10.4108,-10.4061,-10.378,-10.3219,-10.2799,-10.1817,-10.0181,-10.1431,-10.1794,-10.1639,-10.2006,-10.33,-10.5102,-10.7331,-11.029,-11.3918,-11.4332,-11.49,-6.2775,-6.2811,-6.2597,-6.2597,-6.3239,-6.388,-6.413,-6.4807,-6.5449,-6.5663,-6.5912,-6.6518,-6.7837,-6.8301,-6.8871,-7.019,-7.0368,-7.0475,-7.0796,-7.0796,-7.0867,-7.1188,-7.0939,-7.076,-7.076,0.0,0.0,0.0,0.0,0.0,-7.1666,-7.4678,-7.819,-8.2004,-8.2208,-8.2448,-8.3,-8.424,-8.6048,-8.8105,-8.8699,-8.9124,-8.9421,-8.9421,-8.9421,0.0,0.0,0.0,0.0,-8.9421,-8.9421,-8.9421,-8.9421,-8.9421,-8.9421,-8.9421,-8.9421,-8.9421,-8.9421,-8.9421,-8.9421,-8.9421,-9.0525,-9.1714,-9.1035,-9.1969,-9.3285,-9.3625,-9.4134,-9.4686,-9.4984,-9.5068,-9.5068,-9.5068,-9.5068,-9.5238,-9.5875,-9.6045,-9.6215,-9.6809,-9.6937,-9.7349,-9.8252,-9.8779,-9.9779,-10.1171,-10.2223,-10.3155,-10.3743,-10.433,-10.4622,-10.4622,-10.4622,-10.4914,-10.5739,-10.5739,-10.5745,-10.5892,-10.5844,-10.4888,-10.2786,-10.4067,-10.4692,-10.4351,-10.491,-10.6256,-10.8099,-10.9909,-11.2844,-11.6199,-11.6042,-11.6569,-6.1991,-6.1635,-6.1029,-6.0993,-6.1635,-6.2419,-6.3167,-6.3987,-6.4807,-6.5556,-6.634,-6.7124,-6.7944,-6.8729,-6.9477,-7.0261,-7.0368,-7.0083,-6.9335,-7.0582,-7.1259,-7.0475,-7.1081,-7.158,-7.158,-7.0867,-7.0368,0.0,0.0,0.0,-7.493,-8.0755,-8.3834,-8.3986,-8.4793,-8.526,-8.526,-8.526,-8.6194,-8.8062,-8.8062,-8.8572,-8.9421,-8.9421,-8.9421,0.0,0.0,0.0,0.0,-8.9421,-8.9421,-8.9421,-8.9421,-8.9421,-8.9421,-8.9421,-8.9421,-8.9421,-8.9421,-8.9421,-8.9421,-8.9421,-9.0058,-9.0822,-9.0822,-9.1502,-9.2096,-9.112,-9.2181,-9.388,-9.4814,-9.5068,-9.5068,-9.5068,-9.5068,-9.5068,-9.5068,-9.5068,-9.5068,-9.5068,-9.5068,-9.564,-9.7123,-9.8939,-9.9885,-9.9885,-10.2519,-10.4037,-10.2519,-10.3743,-10.4622,-10.4622,-10.4622,-10.5449,-10.8043,-10.8043,-10.9134,-11.1337,-11.1337,-11.0391,-10.8199,-10.8099,-10.7601,-10.6505,-10.6505,-10.7322,-10.842,-11.1984,-11.4297,-11.5812,-11.5093,-11.5936,-6.1278,-6.1991,-6.2526,-6.1991,-6.2455,-6.3061,-6.331,-6.3987,-6.4807,-6.5556,-6.634,-6.7124,-6.7944,-6.8729,-6.9477,-7.0261,-7.105,-7.1673,-7.1452,-7.1342,-7.1416,-7.1747,-7.062,-7.0154,-7.0689,-7.0511,-7.0368,0.0,0.0,0.0,-7.4868,-8.0625,-8.4053,-8.3944,-8.4199,-8.4326,-8.4326,-8.492,-8.5557,-8.6109,-8.7468,-8.8232,-8.8487,-8.9124,-8.9421,-8.9421,-8.9421,0.0,0.0,-8.9421,-8.9421,-8.9421,-8.9421,-8.9421,-8.9421,-8.9421,-8.9421,-8.9421,-8.9421,-8.9421,-8.9421,-8.9421,-9.0058,-9.0695,-9.0058,-9.0525,-9.1205,-9.0907,-9.2181,-9.371,-9.4007,-9.4559,-9.5068,-9.5068,-9.5068,-9.5068,-9.5068,-9.5068,-9.5068,-9.5068,-9.5946,-9.7123,-9.8939,-10.0439,-10.1927,-10.3155,-10.4037,-10.433,-10.4037,-10.433,-10.4622,-10.4622,-10.6029,-10.8043,-11.0265,-11.0546,-11.048,-11.0241,-11.0241,-10.9245,-10.7053,-10.9046,-11.0101,-11.0062,-11.1434,-11.2844,-11.3934,-11.4727,-11.5346,-11.577,-11.6706,-11.7542,-6.0922,-6.1706,-6.2639,-6.326,-6.355,-6.3841,-6.446,-6.4745,-6.5434,-6.5753,-6.659,-6.7793,-6.9093,-7.0353,-7.1437,-7.2436,-7.3155,-7.3426,-7.2742,-7.2514,-7.2202,-7.1528,-7.0768,-7.0223,-6.9869,-7.019,-7.0368,-7.0368,0.0,0.0,-7.7086,-8.1552,-8.3944,-8.3944,-8.3944,-8.3944,-8.3944,-8.4453,-8.492,-8.526,-8.6407,-8.7341,-8.8105,-8.8657,-8.9082,-8.9421,-8.9421,0.0,0.0,-8.9421,-8.9421,-8.9421,-8.9421,-8.9421,-8.9421,-8.9421,-8.9421,-8.9421,-8.9421,-8.9421,-8.9421,-8.9421,-8.9803,-9.0185,-8.9591,-8.9803,-9.027,-9.027,-9.1374,-9.2606,-9.303,-9.3795,-9.4601,-9.4984,-9.5068,-9.5068,-9.5068,-9.5068,-9.5068,-9.5068,-9.5946,-9.7166,-9.9585,-10.1333,-10.3063,-10.433,-10.6029,-10.6847,-10.6029,-10.6029,-10.6318,-10.7135,-10.8565,-11.0265,-11.2501,-11.2778,-11.2752,-11.3186,-11.2778,-11.1437,-10.9919,-11.1125,-11.2273,-11.274,-11.4256,-11.5775,-11.6991,-11.6926,-11.5915,-11.403,-11.502,-11.5489,-6.1169,-6.1493,-6.2282,-6.4734,-6.4859,-6.4672,-6.6286,-6.6661,-6.6338,-6.6181,-6.7531,-6.9165,-7.1065,-7.2892,-7.4283,-7.5749,-7.5751,-7.5359,-7.3522,-7.4181,-7.357,-7.0992,-7.1416,-7.1549,-7.0042,-7.0084,-7.0514,-7.0945,0.0,0.0,-8.0096,-8.2729,-8.3944,-8.3944,-8.3944,-8.3944,-8.3944,-8.3944,-8.4326,-8.5133,-8.5218,-8.6152,-8.785,-8.802,-8.853,-8.9294,-8.9379,0.0,0.0,-8.9421,-8.9421,-8.9421,-8.9421,-8.9421,-8.9421,-8.9421,-8.9421,-8.9421,-8.9421,-8.9421,-8.9421,-8.9421,-8.9421,-8.9421,-8.9421,-8.9421,-8.9421,-8.9421,-9.0101,-9.1077,-9.2054,-9.2988,-9.388,-9.4814,-9.5333,-9.5333,-9.5333,-9.564,-9.5946,-9.564,-9.564,-9.6862,-9.984,-10.2132,-10.3851,-10.5158,-10.8753,-11.0398,-10.8565,-10.8232,-10.9271,-11.1517,-11.1795,-11.235,-11.4703,-11.4976,-11.5843,-11.8099,-11.6939,-11.5778,-11.467,-11.351,-11.3457,-11.4565,-11.5611,-11.672,-11.8257,-11.7729,-11.5462,-11.1131,-11.1079,-11.1285,-6.3947,-6.5411,-6.6444,-6.7133,-6.7266,-6.7382,-6.8387,-6.8619,-6.8612,-6.8235,-7.0722,-7.2985,-7.189,-7.355,-7.555,-7.5632,-7.6087,-7.6153,-7.5749,-7.5264,-7.5143,-7.5101,-7.2298,-7.1428,-7.4094,-7.2404,-7.2388,-7.5395,-7.6016,0.0,-7.9433,-8.2394,-8.3944,-8.3944,-8.3944,-8.3944,-8.3944,-8.3944,-8.4029,-8.4241,-8.492,-8.5472,-8.5897,-8.7426,-8.8147,-8.8031,-8.9082,0.0,0.0,-8.9421,-8.9421,-8.9421,-8.9421,-8.9421,-8.9421,-8.9421,-8.9421,-8.9421,-8.9421,-8.9421,-8.9421,-8.9421,-8.9421,-8.9421,-8.9421,-8.9421,-8.9421,-8.9421,-9.0101,-9.1077,-9.2054,-9.2988,-9.388,-9.4814,-9.6819,-9.885,-9.885,-10.1152,-10.2336,-9.9407,-10.0304,-10.1745,-10.2381,-10.3851,-10.6176,-10.9368,-11.0084,-11.0114,-11.0728,-10.9805,-11.0919,-11.4816,-11.3691,-11.405,-11.7191,-11.7564,-11.7564,-11.8099,-11.62,-11.4569,-11.3784,-11.351,-11.3863,-11.4702,-11.6706,-11.7872,-11.8139,-11.4506,-11.2057,-11.1226,-11.1263,-11.1306,-6.4291,-6.5696,-6.703,-6.8438,-6.8761,-6.9,-6.9836,-7.0035,-7.0052,-6.9726,-7.1637,-7.36,-7.4422,-7.5784,-7.7186,-7.8267,-7.8187,-7.7936,-7.7478,-7.702,-7.6383,-7.5802,-7.3318,-7.1797,-7.2947,-7.2267,-7.2682,-7.4247,-7.5356,-7.7241,-8.054,-8.2388,-8.3434,-8.3901,-8.3944,-8.3944,-8.3944,-8.3944,-8.3944,-8.3944,-8.4411,-8.4836,-8.5303,-8.6279,-8.7213,-8.7777,-8.8243,0.0,-8.9421,-8.9421,-8.9421,-8.9421,-8.9421,-8.9421,-8.9421,-8.9421,-8.9421,-8.9421,-8.9421,-8.9421,-8.9421,-8.9421,-8.9421,-8.9421,-8.9421,-8.9421,-8.9421,-8.9421,-9.0919,-9.2347,-9.3638,-9.539,-9.7493,-9.8517,-9.9394,-10.0005,-10.1745,-10.3758,-10.4923,-10.2878,-10.3758,-10.5213,-10.5792,-10.7516,-10.9271,-11.1058,-11.2824,-11.3339,-11.2246,-11.2608,-11.3918,-11.6148,-11.5773,-11.5819,-11.7308,-11.7782,-11.8152,-11.8152,-11.5989,-11.4253,-11.3626,-11.2877,-11.3174,-11.4691,-11.4861,-11.4817,-11.4817,-11.2261,-11.1114,-11.1106,-11.1295,-11.1136,-6.4557,-6.5541,-6.6571,-6.9275,-6.9995,-7.0283,-7.1392,-7.1395,-7.1355,-7.0922,-7.2068,-7.3738,-7.6803,-7.7781,-7.874,-8.0752,-8.0292,-7.9443,-7.8636,-7.8551,-7.7958,-7.6002,-7.45,-7.2865,-7.1685,-7.2598,-7.3207,-7.3176,-7.5321,-7.8402,-8.1937,-8.2373,-8.2925,-8.3901,-8.3944,-8.3944,-8.3944,-8.3944,-8.3944,-8.3944,-8.3944,-8.4326,-8.5048,-8.5175,-8.6109,-8.7595,-8.7608,0.0,-8.9166,-8.9336,-8.9421,-8.9421,-8.9421,-8.9421,-8.9421,-8.9421,-8.9421,-8.9421,-8.9421,-8.9421,-8.9421,-8.9421,-8.9421,-8.9379,-8.9497,-8.9294,-8.9379,-8.9497,-9.1547,-9.4127,-9.5154,-9.8339,-10.1537,-10.2278,-10.1602,-10.1449,-10.4679,-10.5792,-10.6081,-10.6369,-10.6895,-10.8038,-10.9271,-11.1238,-11.235,-11.2501,-11.5688,-11.6987,-11.428,-11.5407,-11.6411,-11.6411,-11.7255,-11.7519,-11.678,-11.7571,-11.8152,-11.8152,-11.6147,-11.4516,-11.3889,-11.2148,-11.198,-11.4171,-11.2148,-11.1114,-11.1114,-11.1114,-11.1106,-11.1136,-11.1136,-11.1136,-6.746,-6.8033,-6.8537,-7.0576,-7.104,-7.1462,-7.3191,-7.3571,-7.3383,-7.2375,-7.4977,-7.7068,-7.5734,-7.777,-7.9863,-8.0929,-8.0292,-7.9655,-7.9528,-7.9528,-7.9231,-7.8128,-7.6044,-7.5939,-7.8279,-7.6307,-7.6618,-8.0743,-8.055,-8.07,-8.1226,-8.1991,-8.2925,-8.3901,-8.3944,-8.3944,-8.3944,-8.3944,-8.3944,-8.3944,-8.3944,-8.3986,-8.4114,-8.492,-8.5387,-8.5727,-8.7383,0.0,-8.7947,-8.9082,-8.9421,-8.9421,-8.9421,-8.9421,-8.9421,-8.9421,-8.9421,-8.9421,-8.9421,-8.9421,-8.9421,-8.9421,-8.9421,-8.954,-8.95,-8.9272,-8.9497,-8.95,-9.1547,-9.4499,-9.6414,-9.9137,-10.1206,-10.1379,-10.2538,-10.4679,-10.7612,-10.8468,-10.8753,-10.9553,-11.0629,-11.1745,-11.1745,-11.2073,-11.3505,-11.6706,-11.699,-11.6939,-11.7516,-11.6727,-11.6411,-11.6411,-11.6517,-11.6991,-11.7835,-11.8046,-11.8152,-11.8152,-11.6464,-11.5254,-11.4624,-11.2372,-11.1271,-11.1736,-11.1359,-11.1295,-11.1295,-11.1295,-11.1242,-11.1136,-11.1136,-11.1136,-6.796,-6.8446,-6.8658,-6.9507,-7.0144,-7.0866,-7.2225,-7.2522,-7.2711,-7.3141,-7.5012,-7.6774,-7.7071,-7.7663,-7.8594,-8.008,-7.9061,-7.8297,-7.8849,-7.8934,-7.8764,-7.8339,-7.6473,-7.5869,-7.7054,-7.6362,-7.6732,-7.8216,-7.9224,-7.9953,-8.0972,-8.1439,-8.2118,-8.3095,-8.3647,-8.3944,-8.3944,-8.3944,-8.3944,-8.3944,-8.3944,-8.3944,-8.3944,-8.4326,-8.4793,-8.5663,0.0,-8.6762,-8.7281,-8.8116,-8.8912,-8.9421,-8.9421,-8.9421,-8.9421,-8.9421,-8.9421,-8.9421,-8.9421,-8.9421,-8.9336,-8.9315,-8.943,-8.9344,-8.9438,-8.9461,-8.9525,-8.9369,-9.2671,-9.7523,-10.1603,-10.4681,-10.656,-10.7051,-10.6546,-10.7038,-11.0777,-11.0265,-10.9934,-11.2223,-11.3882,-11.5197,-11.552,-11.552,-11.6114,-11.7832,-11.7677,-11.7571,-11.8046,-11.7677,-11.6991,-11.5516,-11.6516,-11.7731,-11.8155,-11.8207,-11.8152,-11.8152,-11.6411,-11.5779,-11.6517,-11.5604,-11.3863,-11.1324,-11.1201,-11.1136,-11.1136,-11.1136,-11.1136,-11.1136,-11.1136,-11.1136,-6.7418,-6.796,-6.8446,-6.8446,-6.8998,-6.9805,-7.0739,-7.0951,-7.1418,-7.3032,-7.4136,-7.5197,-7.6598,-7.6683,-7.7065,-7.8721,-7.7999,-7.7575,-7.8509,-7.8636,-7.8551,-7.8339,-7.6984,-7.5961,-7.5961,-7.6538,-7.6662,0.0,-7.7745,-7.9273,-8.0632,-8.0929,-8.1481,-8.2415,-8.318,-8.3689,-8.3944,-8.3944,-8.3944,-8.3944,-8.3944,-8.3944,-8.3944,-8.3944,-8.4326,-8.528,-8.5536,-8.6067,-8.6648,-8.7439,-8.8445,-8.9497,-8.9336,-8.9421,-8.9421,-8.9421,-8.9421,-8.9379,-8.9412,-8.9327,-8.9443,-8.9504,-8.9438,-8.9849,-9.3112,-9.1664,-8.928,-8.9562,-9.4852,-10.1671,-10.589,-10.8693,-11.0622,-11.182,-11.0668,-10.9903,-11.2954,-11.1945,-11.1437,-11.4806,-11.6166,-11.7244,-11.8099,-11.8152,-11.8152,-11.8152,-11.8152,-11.8152,-11.8152,-11.8152,-11.7624,-11.5831,-11.7095,-11.8207,-11.8313,-11.8154,-11.8152,-11.8152,-11.6674,-11.6306,-11.826,-11.8292,-11.6012,-11.133,-11.1211,-11.1295,-11.1136,-11.1136,-11.1136,-11.1136,-11.1136,-11.1136,-6.6174,-6.707,-6.8446,-6.8446,-6.8488,-6.8786,-6.9762,-6.9974,-7.0272,-7.1248,-7.2182,-7.2819,-7.2947,-7.439,-7.5876,-7.6853,-7.7702,-7.8551,-7.9486,-7.9613,-7.9316,-7.8382,-7.8297,-7.8297,-7.8297,-7.8339,-7.8339,-7.8297,0.0,-7.9698,-7.9783,-8.0589,-8.1481,-8.2415,-8.25,-8.2967,-8.3944,-8.3944,-8.3944,-8.3944,-8.3944,-8.3944,-8.3944,-8.3944,-8.3944,-8.4071,-8.5237,-8.6067,-8.6729,-8.7383,-8.8475,-8.9472,-8.9497,-8.9421,-8.9421,-8.9421,-8.9421,-8.9294,-8.9457,-8.9395,-8.9504,-8.9487,-8.9412,-9.159,-10.2911,-9.8284,-8.9378,-8.9396,-9.7734,-10.6722,-10.7139,-10.8871,-11.0958,-11.3084,-11.3421,-11.3441,-11.3748,-11.4481,-11.5233,-11.6332,-11.6549,-11.687,-11.8099,-11.8152,-11.8152,-11.8152,-11.8152,-11.8152,-11.8152,-11.8152,-11.8099,-11.7993,-11.8046,-11.8099,-11.8099,-11.8099,-11.8152,-11.8152,-11.8046,-11.8046,-11.8099,-11.826,-11.6092,-11.1235,-11.1278,-11.1211,-11.1136,-11.1136,-11.1136,-11.1136,-11.1136,-11.1136,-6.622,-6.6586,-6.6681,-6.7285,-6.7597,-6.7809,-6.8743,-6.8955,-6.9253,-7.0229,-7.1163,-7.197,-7.2565,-7.3201,-7.4178,-7.5749,-7.5749,-7.6131,-7.766,-7.7914,-7.7999,-7.8254,-7.8297,-7.8297,-7.8297,-7.7193,0.0,-7.8212,-7.8594,-7.9061,-7.9655,-7.9995,-8.0589,-8.1524,-8.1524,-8.1991,-8.2967,-8.2967,-8.3307,-8.3944,-8.3944,-8.3944,-8.3944,-8.3944,-8.3944,-8.3944,-8.4284,-8.4708,-8.4899,-8.5939,-8.7001,-8.819,-8.8445,-8.8912,-8.9421,-8.9421,-8.9421,-8.9294,-8.937,-9.0958,-9.2763,-9.0259,-9.4499,-10.1668,-10.594,-10.4101,-10.0797,-10.0672,-10.3902,-10.719,-10.719,-10.7634,-10.9327,-11.2816,-11.378,-11.3729,-11.3831,-11.4686,-11.5764,-11.6206,-11.6966,-11.7722,-11.8207,-11.8313,-11.8152,-11.8152,-11.8048,-11.8102,-11.8102,-11.8154,-11.8152,-11.8152,-11.8152,-11.8152,-11.8152,-11.8152,-11.8152,-11.8152,-11.8152,-11.8152,-11.8152,-11.8102,-11.741,-11.5717,-11.2832,-11.1211,-11.1136,-11.1136,-11.1136,-11.1136,-11.1136,-11.1136,-6.4761,-6.5478,-6.6196,-6.6446,-6.6863,-6.7257,-6.7851,-6.7979,-6.8276,-6.921,-6.9932,-7.0526,-7.1121,-7.1503,-7.2225,-7.3838,-7.3796,-7.4136,-7.5707,-7.6471,-7.6895,-7.6853,-7.715,-7.749,-7.7787,0.0,0.0,-7.7702,-7.8127,-7.8551,-7.9188,-7.9231,-7.9655,-8.0547,-8.0589,-8.1014,-8.1598,-8.1598,-8.2064,-8.3037,-8.3037,-8.3249,-8.3944,-8.3944,-8.3944,-8.3944,-8.3944,-8.3884,-8.4033,-8.5048,-8.5982,-8.7128,-8.7468,-8.8717,-9.0344,-8.9199,-8.9272,-9.0024,-9.1976,-9.4316,-9.6287,-9.5631,-10.058,-10.7168,-10.7168,-10.719,-10.7103,-10.7103,-10.7103,-10.7103,-10.7103,-10.719,-10.8138,-11.2714,-11.3626,-11.3748,-11.378,-11.5114,-11.6568,-11.6737,-11.7445,-11.8257,-11.8208,-11.6832,-11.6357,-11.7996,-11.8257,-11.7725,-11.5936,-11.7255,-11.8101,-11.8101,-11.826,-11.8152,-11.8152,-11.8152,-11.8152,-11.8152,-11.8152,-11.8152,-11.8152,-11.8102,-11.8306,-11.8238,-11.351,-11.1211,-11.1136,-11.1136,-11.1136,-11.1136,-11.1136,-11.1136,-6.1619,-6.3981,-6.6598,-6.5703,-6.6183,-6.6912,-6.6912,-6.6955,-6.7384,-6.8234,-6.8403,-6.8403,-6.8446,-6.921,-7.0187,-7.1121,-7.2013,-7.2904,-7.3881,-7.5579,-7.6089,-7.4305,-7.49,-7.5834,0.0,-7.6811,-7.6811,-7.6895,-7.7745,-7.8297,-7.8297,-7.8297,-7.8721,-7.9613,-7.9655,-7.9736,-8.0152,-8.0194,-8.0352,-8.0927,-8.0927,-8.2134,-8.3859,-8.3859,-8.3901,-8.3944,-8.3944,-8.3944,-8.3986,-8.4878,-8.5536,-8.5749,-8.6322,-8.9091,-9.2109,-8.9026,-8.8942,-9.1776,-9.7071,-9.8894,-9.9709,-10.5097,-10.7001,-10.7001,-10.7001,-10.7001,-10.7001,-10.7103,-10.7103,-10.7103,-10.7103,-10.7103,-10.8177,-11.2405,-11.3496,-11.3805,-11.3594,-11.5933,-11.7916,-11.8142,-11.8095,-11.8207,-11.81,-11.4309,-11.2584,-11.7292,-11.8078,-11.6242,-11.1702,-11.5095,-11.7941,-11.8257,-11.8261,-11.8099,-11.8099,-11.8099,-11.8099,-11.8099,-11.8099,-11.8099,-11.8099,-11.8049,-11.8252,-11.8078,-11.3457,-11.1211,-11.1136,-11.1136,-11.1136,-11.1136,-11.1136,-11.1136,-5.9325,-6.0856,-6.2393,-6.3538,-6.3983,-6.4501,-6.5582,-6.6028,-6.6127,-6.7336,-6.7469,-6.7682,-6.8318,-6.8658,-6.9168,-7.0144,-7.0526,-7.1248,-7.2819,-7.3499,-7.3881,-7.4051,-7.49,-7.5324,-7.49,-7.4857,-7.5409,-7.6768,-7.7745,-7.8297,-7.8297,-7.8297,-7.8424,-7.8679,-7.8679,-7.9103,-7.9736,-7.9736,-8.0117,-8.031,-8.031,-8.0815,-8.174,-8.174,-8.2514,-8.3944,-8.3944,-8.3944,-8.3944,-8.4199,-8.4708,-8.5578,-8.5557,-8.6751,-8.8316,-8.8687,-9.11,-9.4158,-9.5632,-9.7529,-9.9406,-9.9616,-10.1666,-10.3954,-10.4611,-10.3541,-10.2827,-10.6286,-10.7103,-10.7103,-10.7103,-10.7147,-10.7281,-10.8642,-11.1284,-11.3742,-11.3645,-11.4462,-11.5647,-11.7879,-11.8095,-11.8048,-11.8092,-11.431,-11.17,-11.3043,-11.3132,-11.2508,-11.133,-11.2214,-11.4559,-11.7719,-11.8092,-11.8199,-11.8199,-11.8199,-11.8199,-11.8199,-11.8199,-11.8199,-11.8199,-11.83,-11.6607,-11.3299,-11.1946,-11.1211,-11.1136,-11.1136,-11.1136,-11.1136,-11.1136,-11.1136,-5.7948,-5.9205,-6.0505,-6.1663,-6.2082,-6.2721,-6.381,-6.3995,-6.4098,-6.4722,-6.486,-6.5245,-6.6404,-6.7084,-6.7893,-6.9762,-6.9437,-6.9714,-7.1885,-7.1691,-7.2027,-7.2904,-7.3753,-7.3796,-7.248,-7.3371,-7.4688,-7.6174,-7.7193,-7.7872,-7.8254,-7.8297,-7.8297,-7.8297,-7.8297,-7.8551,-7.9103,-7.9103,-7.9528,-8.0032,-8.0032,-8.0236,-8.1122,-8.1502,-8.236,-8.3349,-8.3774,-8.3944,-8.3944,-8.3944,-8.5014,-8.6258,-8.5213,-8.6864,-8.9702,-9.0286,-9.2664,-9.5837,-9.7304,-9.9043,-10.0369,-9.9909,-10.1175,-10.3094,-10.3651,-10.2487,-10.1828,-10.5167,-10.5931,-10.5982,-10.6951,-10.7097,-10.7079,-10.7139,-11.0456,-11.396,-11.5455,-11.5468,-11.602,-11.7932,-11.8095,-11.8313,-11.8139,-11.4256,-11.1131,-11.1173,-11.1306,-11.1295,-11.1106,-11.1158,-11.2148,-11.487,-11.5339,-11.5187,-11.5194,-11.5246,-11.5246,-11.5246,-11.5246,-11.5246,-11.5246,-11.524,-11.403,-11.1324,-11.1263,-11.1253,-11.1136,-11.1136,-11.1136,-11.1136,-11.1136,-11.1136,-5.7086,-5.8457,-5.9817,-6.0003,-6.0593,-6.1418,0.0,-6.1643,-6.1604,-6.1712,-6.1712,-6.2382,-6.3716,-6.485,-6.6114,-6.8747,-6.805,-6.7924,-7.0177,-7.0208,-7.0345,-7.1314,-7.2182,-7.2013,-7.0399,-7.2565,-7.4475,-7.5409,-7.6343,-7.7278,-7.8254,-7.8297,-7.8297,-7.8297,-7.8297,-7.8297,-7.8297,-7.8297,-7.8721,-7.957,-7.957,-8.0038,-8.0929,-8.1778,-8.2203,-8.2373,-8.3349,-8.3774,-8.3774,-8.3901,-8.5479,-8.7262,-8.4941,-8.7793,-9.3141,-9.2514,-9.3676,-9.6346,-10.0476,-10.187,-10.2022,-10.3038,-10.3394,-10.3445,-10.3547,-10.3093,-10.2539,-10.4055,-10.3901,-10.4002,-10.5774,-10.6849,-10.7046,-10.7205,-11.0367,-11.4453,-11.754,-11.8187,-11.8305,-11.8305,-11.8042,-11.8313,-11.8246,-11.4306,-11.1285,-11.1226,-11.1211,-11.1096,-11.1096,-11.1096,-11.1306,-11.1219,-11.1271,-11.1226,-11.1233,-11.1285,-11.1285,-11.1285,-11.1285,-11.1285,-11.1285,-11.1226,-11.1167,-11.1167,-11.1096,-11.1084,-11.1136,-11.1084,-11.1084,-11.1136,-11.1136,-11.1136,0.0,0.0,0.0,0.0,0.0,0.0,0.0,-6.0474,-6.0745,-6.1643,-6.1712,-6.1936,-6.2159,-6.2541,-6.2699,-6.3306,-6.4847,-6.5866,-6.4889,-6.8377,-7.1335,-7.2352,-7.2565,-7.2522,-7.2182,-7.3329,-7.4475,-7.5409,-7.6343,-7.7278,-7.8254,-7.8297,-7.8297,-7.8297,-7.8297,-7.8297,-7.8297,-7.8297,-7.8382,-7.8551,-7.8551,-7.9061,-7.9995,-8.0165,-8.0632,-8.1354,-8.233,-8.2755,-8.2797,-8.3604,-8.4173,-8.4714,-8.4173,-8.6103,-8.9338,-9.1459,-9.2397,-9.3724,-9.8782,-10.0651,-10.0651,-10.0905,-10.0955,-10.1159,-10.2124,-10.1527,-10.1178,-10.2489,-10.2187,-10.1129,-10.1418,-10.4305,-10.7111,-10.7038,-11.0445,-11.4411,-11.7411,-11.8152,-11.8204,-11.8204,-11.8152,-11.8154,-11.8257,-11.4309,-11.1183,-11.1285,-11.1181,-11.1129,-11.1129,-11.1129,-11.123,-11.1069,-11.1271,-11.1114,-11.1306,-11.1253,-11.1253,-11.1253,-11.1253,-11.1253,-11.1253,-11.1148,-11.1096,-11.1096,-11.1267,-11.1161,-11.1136,-11.1161,-11.1214,-11.1136,-11.1136,-11.1136,0.0,0.0,0.0,0.0,0.0,0.0,0.0,0.0,0.0,0.0,0.0,-5.9267,-6.04,0.0,-6.143,-6.2337,-6.3637,-6.4917,-6.5799,-6.7941,-6.8963,-6.7997,-7.0827,-7.248,-7.2013,-7.2819,-7.3966,-7.5367,-7.5919,-7.6811,-7.8212,-7.8297,-7.8297,-7.8297,-7.8297,-7.8297,-7.8297,-7.8297,-7.8297,-7.8297,-7.8297,-7.8551,-7.9018,-7.9486,-7.9953,-8.042,-8.1354,-8.1736,-8.1821,-8.2797,-8.4242,-8.5929,-8.3888,-8.501,-8.7867,-9.0923,-9.291,-9.4438,-9.7246,-9.9269,-10.0052,-9.8778,-9.9269,-10.0396,-10.1006,-10.0761,-10.0566,-10.2028,-10.1682,-10.1332,-10.1532,-10.3195,-10.4969,-10.5314,-10.6381,-10.8483,-11.357,-11.6619,-11.8152,-11.8152,-11.8152,-11.8207,-11.8153,-11.6353,-11.467,-11.467,-11.4665,-11.4711,-11.4711,-11.4702,-11.4798,-11.4744,-11.2471,-11.1126,-11.1069,-11.1074,-11.1126,-11.1069,-11.1069,-11.1069,-11.1069,-11.1263,-11.1106,-11.1106,-11.1281,-11.0043,-10.7757,-11.0043,-11.1123,-11.1136,-11.1136,-11.1136,0.0,0.0,0.0,0.0,0.0,0.0,0.0,0.0,0.0,0.0,0.0,0.0,0.0,0.0,0.0,-6.1624,-6.2199,-6.3432,-6.5814,-6.6462,-6.5897,-6.4232,-6.879,-7.1864,-7.1376,-7.214,-7.3371,-7.507,-7.5197,-7.6046,-7.7914,-7.7999,-7.8084,-7.8297,-7.8297,-7.8297,-7.8297,-7.8297,-7.8297,-7.8297,0.0,0.0,-7.8339,-7.9103,-7.9443,-7.9486,-8.0377,-8.0802,-8.0844,-8.1778,-8.3916,-8.6335,-8.3256,-8.3484,-8.6146,-8.9458,-9.2551,-9.4818,-9.5365,-9.7542,-9.9747,-9.7445,-9.8332,-10.0295,-10.0295,-10.0295,0.0,-10.1413,-10.1717,-10.187,-10.2184,-10.2086,-10.2338,-10.2888,-10.2727,-10.4394,-11.097,-11.541,-11.8048,-11.8048,-11.8048,-11.8155,-11.8204,-11.7352,-11.7239,-11.8032,-11.8121,-11.7841,-11.6953,-11.6926,-11.6964,-11.6779,-11.4242,-11.2843,-11.3879,-11.3159,-11.2534,-11.2581,-11.248,-11.2584,-11.2428,-11.2471,-11.2201,-11.1271,-11.1201,-10.9239,-10.547,-10.9385,-11.1281,-11.1136,-11.1176,-11.107,0.0,0.0,0.0,0.0,0.0,0.0,0.0,0.0,0.0,0.0,0.0,0.0,0.0,0.0,0.0,0.0,-5.9094,-6.0049,-5.7948,-6.1127,-6.4311,-6.6598,-6.8161,-6.9751,-7.1102,-7.214,-7.3116,-7.4136,-7.422,-7.507,-7.6938,0.0,0.0,0.0,0.0,-7.8297,-7.8297,-7.8297,-7.8297,-7.8297,-7.8297,-7.8297,-7.8297,-7.8424,-7.8466,-7.8509,-7.9443,-7.9868,-7.9953,-8.0844,-8.1532,-8.1837,-8.1489,-8.1446,-8.197,-8.4866,-8.7625,-9.0129,-9.2639,0.0,0.0,-9.8632,-9.9291,-10.0295,-10.0295,-10.0295,-10.0346,-10.0447,-10.0498,-10.0406,-10.0572,-10.0522,-10.0667,-10.0627,-10.547,-11.1316,-11.6334,-11.7692,-11.8139,-11.8139,-11.8139,-11.8139,-11.8086,-11.4776,-11.3472,-11.7569,-11.8246,-11.6767,-11.2428,-11.2014,-11.1957,-11.1946,0.0,0.0,-12.3001,-11.9689,-11.7435,-11.7271,-11.7477,-11.7284,-11.7518,-11.741,-11.5372,-11.1324,-11.1201,-11.1031,-11.0266,-11.1002,-11.1161,-11.1136,-11.1072,-11.1083,0.0,0.0,0.0,0.0,0.0,0.0,0.0,0.0,0.0,0.0,0.0,0.0,0.0,0.0,0.0,0.0,-5.8191,-5.8992,-5.659,-5.9288,-6.2431,-6.466,-6.6652,-6.8608,-7.0256,-7.1333,-7.2267,-7.3201,-7.3753,-7.4645,-7.6004,-7.6089,-7.6259,-7.6641,-7.7193,-7.7447,-7.7447,-7.7999,-7.8297,-7.8297,-7.8297,-7.8297,-7.8297,-7.8297,-7.8297,0.0,-7.8721,-7.8891,-7.8976,-7.9868,-8.025,0.0,0.0,0.0,0.0,0.0,-8.4112,-8.7052,-8.8057,-9.1563,-9.5214,-9.3711,-9.5511,-9.8364,-9.8364,-9.8364,-9.8517,-9.9177,-9.9621,-10.0065,-10.0204,-10.06,-10.1239,-10.225,-10.3982,-10.6729,-11.1161,-11.1001,-11.0765,-11.3615,-11.4143,0.0,-11.4224,-11.2569,-11.18,-11.378,-11.6439,-11.6386,-11.1804,-11.1219,-11.1201,-11.1253,-11.2856,-11.5024,-11.673,-11.5159,0.0,0.0,0.0,-11.4265,-11.4252,-11.4199,0.0,0.0,0.0,0.0,0.0,0.0,0.0,0.0,-10.7211,-10.7105,0.0,0.0,0.0,0.0,0.0,0.0,0.0,0.0,0.0,0.0,0.0,0.0,0.0,0.0,0.0,0.0,0.0,-5.7934,-5.6554,-5.818,-6.013,-6.2423,-6.4769,-6.6933,-6.9282,-7.0357,-7.1206,-7.1843,-7.2522,-7.3456,-7.4645,-7.473,-7.4942,-7.5494,-7.6131,-7.6513,-7.6513,-7.7193,-7.766,-7.7914,-7.7914,-7.8042,-7.8297,-7.8297,-7.8297,-7.8297,-7.8297,-7.8297,-7.8339,-7.9061,-7.9316,-7.9188,-7.7999,-7.8084,-7.8934,-7.8934,-8.0723,-8.3503,-8.4724,-8.8153,-9.1622,-9.0844,-9.3024,-9.5998,-9.6757,-9.6992,-9.7145,-9.8008,-9.8687,-9.9128,-9.9417,-10.0065,-10.1144,-10.2501,-10.2584,-10.3252,-10.612,-10.5352,-10.5474,-11.0328,-11.1316,-11.1211,-11.107,-11.1281,-11.1148,-11.1211,-11.4052,0.0,-11.1727,-11.1176,-11.0631,-10.9268,-10.9268,-10.9268,-10.9268,-10.9197,-11.218,-11.883,-11.2882,-10.9333,-10.9268,-10.9176,-11.1002,-11.4298,-11.103,-10.9338,0.0,0.0,0.0,0.0,0.0,0.0,0.0,0.0,0.0,0.0,0.0,0.0,0.0,0.0,0.0,0.0,0.0,0.0,0.0,0.0,0.0,0.0,0.0,0.0,-5.6323,-5.6359,-5.7705,-6.1526,-6.276,-6.4636,-6.8045,-6.938,-6.9974,-6.9974,-7.0017,-7.0824,-7.2649,-7.2734,-7.3584,-7.5409,-7.5537,-7.5537,-7.5537,-7.5579,-7.6046,-7.6938,-7.6938,-7.7405,-7.8297,-7.8297,-7.8297,-7.8297,-7.8297,-7.8297,-7.8297,-7.8339,-7.8339,-7.8169,-7.6301,-7.6131,-7.698,-7.698,-7.7826,-7.935,-8.4127,-8.6717,-8.8581,-9.3738,-9.4437,-9.3751,-9.6235,-9.6992,-9.6992,-9.7043,-9.7043,-9.7043,-9.7094,-9.8361,-9.9396,-9.9447,-10.1943,-10.4169,-10.4222,-10.4262,-10.551,-11.026,-11.1158,-11.122,-11.122,-11.122,-11.1105,-11.1281,-11.1267,0.0,-11.1136,-11.1161,-10.9484,-10.4798,-10.4539,-10.4539,-10.4539,-10.4341,-10.4546,-10.4798,-10.4641,-10.4444,-10.4295,-10.4321,-10.4373,-10.4591,-10.4487,-10.4418,-10.4513,0.0,0.0,0.0,0.0,0.0,0.0,0.0,0.0,0.0,0.0,0.0,0.0,0.0,0.0,0.0,0.0,0.0,0.0,0.0,0.0,0.0,0.0,0.0,0.0,0.0,-5.605,-5.957,-6.0806,-6.2629,-6.5451,-6.7696,-6.8913,-6.8913,-6.955,-7.0187,-7.0824,-7.0824,-7.1121,-7.1758,-7.2989,-7.3626,-7.3626,-7.4857,-7.5664,-7.5961,-7.5961,-7.6131,-7.6428,-7.6428,-7.6768,-7.7363,-7.7363,-7.7702,-7.8254,-7.7617,-7.698,-7.6386,-7.5749,-7.5664,-7.5961,-7.5961,-7.6174,-7.6675,-7.8307,-7.9213,-8.0208,-8.3527,-8.565,-8.6873,-8.9423,-8.9012,-8.8377,-9.1476,-9.2573,-9.3338,-9.4599,-9.7145,-9.9039,-9.9039,-10.0828,-10.1948,-10.0957,-10.2597,-10.4744,-10.617,-10.6576,-10.6551,-10.6442,-10.6471,-10.6471,-10.6485,-10.9209,-11.1088,-11.1302,-10.8352,-10.596,-10.4295,-10.4065,-10.4094,-10.4094,-10.4222,-10.4274,-10.4147,-10.4222,-10.4117,-10.4279,-10.4201,-10.4227,-10.4114,-10.1009,-10.1138,-10.426,0.0,0.0,0.0,0.0,0.0,0.0,0.0,0.0,0.0,0.0,0.0,0.0,0.0,0.0,0.0,0.0,0.0,0.0,0.0,0.0,0.0,0.0,0.0,0.0,0.0,0.0,-5.7843,-5.9031,0.0,-6.2752,-6.5369,-6.7055,-6.7055,-6.8605,-6.938,-6.938,-6.972,-6.9932,-6.9932,-7.1078,-7.1673,-7.1673,-7.2904,-7.3838,-7.4475,-7.4475,-7.4815,-7.5494,-7.5494,-7.5834,-7.6386,-7.6386,-7.6726,-7.7235,-7.6259,-7.5537,-7.4942,-7.4603,-7.4688,-7.4985,-7.4985,-7.5197,-7.5494,-7.5494,-7.5939,-7.691,-7.8181,-8.0414,-8.3208,-8.4962,-8.4551,-8.4098,-8.6772,-8.8173,-8.9025,-9.0358,-9.3738,-9.68,-9.6696,-9.8497,-9.9763,-9.7695,-9.9631,-10.0538,-9.642,-9.7593,-9.9815,-10.1424,-10.3177,-10.3623,-10.1943,-10.4332,-10.6736,-10.8488,-10.6127,-10.428,-10.428,-10.4149,-10.4174,-10.4174,-10.4174,-10.4174,-10.4174,-10.4174,-10.4145,-10.426,-10.2539,-10.1748,-10.1585,-9.8786,-9.8734,0.0,0.0,0.0,0.0,0.0,0.0,0.0,0.0,0.0,0.0,0.0,0.0,0.0,0.0,0.0,0.0,0.0,0.0,0.0,0.0,0.0,0.0,0.0,0.0,0.0,0.0,0.0,-5.6353,-5.7245,0.0,0.0,0.0,0.0,-6.4379,-6.675,-6.814,-6.8361,-6.9253,-6.9762,-6.9762,-6.9805,-6.9847,-6.9847,-6.989,-7.0781,-7.2522,-7.2522,-7.3499,-7.5282,-7.5282,-7.5324,-7.5409,-7.5409,-7.5452,-7.5409,-7.439,-7.4008,-7.3923,-7.2989,-7.3201,-7.4008,-7.4008,-7.456,-7.5367,-7.5367,-7.6934,-7.87,-7.7328,-7.8975,-8.1786,-8.2464,-8.3212,0.0,0.0,-8.3759,-8.4503,-8.4381,-8.8416,-9.2549,-9.2155,-9.5055,-9.7185,-9.469,-9.5591,-9.3634,0.0,-8.5454,-9.1395,-9.5954,0.0,-10.1894,-9.8023,-9.7431,-9.8801,-10.3282,-10.4121,-10.4174,-10.4174,-10.4174,-10.4174,-10.4174,-10.4174,-10.4174,-10.4121,-10.4121,-10.4092,-10.4153,-9.9683,-9.7231,-9.7166,-9.7116,0.0,0.0,0.0,0.0,0.0,0.0,0.0,0.0,0.0,0.0,0.0,0.0,0.0,0.0,0.0,0.0,0.0,0.0,0.0,0.0,0.0,0.0,0.0,0.0,0.0,0.0,-5.1226,-5.2223,-5.4417,-5.6101,-5.7615,0.0,0.0,0.0,0.0,0.0,0.0,-6.7209,-6.7682,-6.7809,-6.7809,-6.8446,-6.8828,-6.8828,-6.955,-7.0144,-7.0611,-7.0611,-7.1248,-7.2395,-7.2395,-7.3159,-7.4433,-7.4433,-7.4815,-7.5367,-7.3711,-7.3032,-7.2989,-7.2734,-7.2819,-7.3032,-7.3032,-7.3159,-7.3371,-7.3371,-7.3845,-7.4318,-7.3864,-7.4358,-7.5157,-7.5346,0.0,0.0,0.0,0.0,-7.9965,-8.1157,-8.3957,-8.655,-8.7299,-8.9504,-9.0406,-8.7723,-9.0287,-9.0991,0.0,-8.2923,-8.4084,-8.8144,0.0,0.0,0.0,0.0,-9.757,-9.8738,-10.2026,-10.422,-10.4096,-10.4279,-10.4174,-10.4174,-10.4174,-10.425,-10.424,-10.424,-10.4224,-10.4291,-9.9743,-9.7098,-9.7255,0.0,0.0,0.0,0.0,0.0,0.0,0.0,0.0,0.0,0.0,0.0,0.0,0.0,0.0,0.0,0.0,0.0,0.0,0.0,0.0,0.0,0.0,0.0,0.0,0.0,0.0,0.0,-4.9728,-5.0441,-5.1796,-5.3292,-5.4414,0.0,0.0,0.0,0.0,0.0,0.0,0.0,0.0,0.0,-6.713,-6.7597,-6.7851,-6.7851,-6.8403,-6.887,-6.9253,-6.9253,-6.9974,-7.1333,-7.1333,-7.2097,-7.3456,-7.3456,-7.3286,-7.2989,-7.2352,-7.1843,-7.1461,0.0,0.0,0.0,0.0,-7.1461,-7.1503,-7.1928,-7.2055,0.0,-7.3032,0.0,0.0,0.0,0.0,0.0,0.0,0.0,0.0,0.0,0.0,-8.237,-8.353,-8.5249,-8.6177,-8.4313,-8.6279,-8.7181,0.0,-8.1842,-8.2257,-8.4468,0.0,0.0,0.0,0.0,-9.3471,-9.6673,-9.6687,-9.8339,-10.3699,-10.4199,-10.4147,-10.4147,-10.4147,-10.4122,-10.425,-10.2313,-10.1138,-10.1115,-9.8629,-9.7186,0.0,0.0,0.0,0.0,0.0,0.0,0.0,0.0,0.0,0.0,0.0,0.0,0.0,0.0,0.0,0.0,0.0,0.0,0.0,0.0,0.0,0.0,0.0,0.0,0.0,0.0,0.0,0.0,0.0,-4.9087,-4.9301,0.0,0.0,0.0,0.0,0.0,0.0,0.0,0.0,0.0,0.0,0.0,0.0,0.0,-6.6484,-6.6484,-6.6828,-6.7512,-6.8276,-6.8276,-6.921,-7.0951,-7.0951,-7.1418,-7.231,-7.231,0.0,-6.9974,-7.0824,0.0,0.0,0.0,0.0,0.0,0.0,0.0,0.0,0.0,0.0,0.0,0.0,0.0,0.0,0.0,0.0,0.0,0.0,0.0,0.0,0.0,0.0,-7.9142,-8.0284,-8.1956,-8.3158,0.0,-8.3088,-8.2684,-8.0631,-8.1921,0.0,0.0,0.0,0.0,0.0,0.0,0.0,-9.4958,-9.0099,-9.0205,-10.0766,-10.2414,-10.2569,-10.2569,-10.2172,-10.1761,-10.1861,-9.7872,-9.5611,-9.5763,-9.5828,0.0,0.0,0.0,0.0,0.0,0.0,0.0,0.0,0.0,0.0,0.0,0.0,0.0,0.0,0.0,0.0,0.0,0.0,0.0,0.0,0.0,0.0,0.0,0.0,0.0,0.0,0.0,0.0,0.0,0.0,0.0,0.0,0.0,0.0,0.0,0.0,0.0,0.0,0.0,0.0,0.0,0.0,0.0,0.0,0.0,0.0,0.0,0.0,0.0,0.0,-6.7342,-6.7894,-6.8955,-6.8955,-6.9465,-7.0399,-7.0399,-7.0229,-6.9932,0.0,0.0,0.0,0.0,0.0,0.0,0.0,0.0,0.0,0.0,0.0,0.0,0.0,0.0,0.0,0.0,0.0,0.0,0.0,0.0,0.0,0.0,0.0,0.0,0.0,-7.8176,-7.9001,-7.91,0.0,0.0,0.0,0.0,0.0,0.0,0.0,0.0,0.0,0.0,0.0,-8.7913,-8.6832,-8.6868,-8.912,-9.225,-9.4484,-9.4484,-9.1331,-8.9304,-8.9167,-8.845,-8.8017,0.0,0.0,0.0,0.0,0.0,0.0,0.0,0.0,0.0,0.0,0.0,0.0,0.0,0.0,0.0,0.0,0.0,0.0,0.0,0.0,0.0,0.0,0.0,0.0,0.0,0.0,0.0,0.0,0.0,0.0,0.0,0.0,0.0,0.0,0.0,0.0,0.0,0.0,0.0,0.0,0.0,0.0,0.0,0.0,0.0,0.0,0.0,0.0,0.0,0.0,0.0,0.0,0.0,0.0,0.0,0.0,0.0,0.0,0.0,-6.887,0.0,0.0,0.0,0.0,0.0,0.0,0.0,0.0,0.0,0.0,0.0,0.0,0.0,0.0,0.0,0.0,0.0,0.0,0.0,0.0,0.0,0.0,0.0,0.0,0.0,0.0,0.0,0.0,0.0,0.0,0.0,0.0,0.0,0.0,0.0,0.0,0.0,0.0,0.0,0.0,-8.5907,-8.6122,-8.6217,-8.6102,-8.7812,-8.7953,-8.5225,-8.3214,-8.2184,-8.2081,-8.2049,0.0,0.0,0.0,0.0,0.0,0.0,0.0,0.0,0.0,0.0,0.0,0.0,0.0,0.0,0.0,0.0,0.0,0.0,0.0,0.0,0.0,0.0,0.0,0.0,0.0,0.0,0.0,0.0,0.0,0.0,0.0,0.0,0.0,0.0,0.0,0.0,0.0,0.0,0.0,0.0,0.0,0.0,0.0,0.0,0.0,0.0,0.0,0.0,0.0,0.0,0.0,0.0,0.0,0.0,0.0,0.0,0.0,0.0,0.0,-6.7674,0.0,0.0,0.0,0.0,0.0,0.0,0.0,0.0,0.0,0.0,0.0,0.0,0.0,0.0,0.0,0.0,0.0,0.0,0.0,0.0,0.0,0.0,0.0,0.0,0.0,0.0,0.0,0.0,0.0,0.0,0.0,0.0,0.0,0.0,0.0,0.0,0.0,0.0,0.0,0.0,0.0,-8.5263,-8.4988,-8.5081,-8.6093,-8.6221,-8.4539,-8.0407,-7.9986,-8.0053,-7.9942,-7.9961,0.0,0.0,0.0,0.0,0.0,0.0,0.0,0.0,0.0,0.0,0.0,0.0,0.0,0.0,0.0,0.0,0.0,0.0,0.0,0.0,0.0,0.0,0.0,0.0,0.0,0.0,0.0,0.0,0.0,0.0,0.0,0.0,0.0,0.0,0.0,0.0,0.0,0.0,0.0,0.0,0.0,0.0,0.0,0.0,0.0,0.0,0.0,0.0,0.0,0.0,0.0,0.0,0.0,0.0,0.0,0.0,0.0,0.0,0.0,0.0,0.0,0.0,0.0,0.0,0.0,0.0,0.0,0.0,0.0,0.0,0.0,0.0,0.0,0.0,0.0,0.0,0.0,0.0,0.0,0.0,0.0,0.0,0.0,0.0,0.0,0.0,0.0,0.0,0.0,0.0,0.0,0.0,0.0,0.0,0.0,0.0,0.0,0.0,0.0,0.0,0.0,-8.3347,-8.1906,-8.2094,-8.5603,-8.6009,-8.5838,-8.5409,-8.5514,-8.5363,-8.5379,0.0,0.0,0.0,0.0,0.0,0.0,0.0,0.0,0.0,0.0,0.0,0.0,0.0,0.0,0.0,0.0,0.0,0.0,0.0,0.0,0.0,0.0,0.0,0.0,0.0,0.0,0.0,0.0,0.0,0.0,0.0,0.0,0.0,0.0,0.0,0.0,0.0,0.0,0.0,0.0,0.0,0.0,0.0,0.0,0.0,0.0,0.0,0.0,0.0,0.0,0.0,0.0,0.0,0.0,0.0,0.0,0.0,0.0,0.0,0.0,0.0,0.0,0.0,0.0,0.0,0.0,0.0,0.0,0.0,0.0,0.0,0.0,0.0,0.0,0.0,0.0,0.0,0.0,0.0,0.0,0.0,0.0,0.0,0.0,0.0,0.0,0.0,0.0,0.0,0.0,0.0,0.0,0.0,0.0,0.0,0.0,0.0,0.0,0.0,0.0,0.0,0.0,-8.2327,-8.1075,-8.0796,-8.227,-8.4691,-8.6056,-8.6116,-8.6022,-8.503,-8.2583,0.0,0.0,0.0,0.0,0.0,0.0,0.0,0.0,0.0,0.0,0.0,0.0,0.0,0.0,0.0,0.0,0.0,0.0,0.0,0.0,0.0,0.0,0.0,0.0,0.0,0.0,0.0,0.0,0.0,0.0,0.0,0.0,0.0,0.0,0.0,0.0,0.0,0.0,0.0,0.0,0.0,0.0,0.0,0.0,0.0,0.0,0.0,0.0,0.0,0.0,0.0,0.0,0.0,0.0,0.0,0.0,0.0,0.0,0.0,0.0,0.0,0.0,0.0,0.0,0.0,0.0,0.0,0.0,0.0,0.0,0.0,0.0,0.0,0.0,0.0,0.0,0.0,0.0,0.0,0.0,0.0,0.0,0.0,0.0,0.0,0.0,0.0,0.0,0.0,0.0,0.0,0.0,0.0,0.0,0.0,0.0,0.0,0.0,0.0,0.0,0.0,0.0,-8.1953,-8.1354,-8.0426,-8.0043,-8.3804,-8.6162,-8.617,-8.5039,-8.3118,-8.0197,0.0,0.0,0.0,0.0,0.0,0.0,0.0,0.0,0.0,0.0,0.0,0.0,0.0,0.0,0.0,0.0,0.0,0.0,0.0,0.0,0.0,0.0,0.0,0.0,0.0,0.0,0.0,0.0,0.0,0.0,0.0,0.0,0.0,0.0,0.0,0.0,0.0,0.0,0.0,0.0,0.0,0.0,0.0,0.0,0.0,0.0,0.0,0.0,0.0,0.0,0.0,0.0,0.0,0.0,0.0,0.0,0.0,0.0,0.0,0.0,0.0,0.0,0.0,0.0,0.0,0.0,0.0,0.0,0.0,0.0,0.0,0.0,0.0,0.0,0.0,0.0,0.0,0.0,0.0,0.0,0.0,0.0,0.0,0.0,0.0,0.0,0.0,0.0,0.0,0.0,0.0,0.0,0.0,0.0,0.0,0.0,0.0,0.0,0.0,0.0,0.0,0.0,-8.1803,-8.2046,-8.1539,-8.0152,-8.381,-8.6162,-8.617,-8.2512,-8.0152,0.0,0.0,0.0,0.0,0.0,0.0,0.0,0.0,0.0,0.0,0.0,0.0,0.0,0.0,0.0,0.0,0.0,0.0,0.0,0.0,0.0,0.0,0.0,0.0,0.0,0.0,0.0,0.0,0.0,0.0,0.0,0.0,0.0,0.0,0.0,0.0,0.0,0.0,0.0,0.0,0.0,0.0,0.0,0.0,0.0,0.0,0.0,0.0,0.0,0.0,0.0,0.0,0.0,0.0,0.0,0.0,0.0,0.0,0.0,0.0,0.0,0.0,0.0,0.0,0.0,0.0,0.0,0.0,0.0,0.0,0.0,0.0,0.0,0.0,0.0,0.0,0.0,0.0,0.0,0.0,0.0,0.0,0.0,0.0,0.0,0.0,0.0,0.0,0.0,0.0,0.0,0.0,0.0,0.0,0.0,0.0,0.0,0.0,0.0,0.0,0.0,0.0,0.0,-8.0547,-8.1996,-8.2374,0.0,-8.4274,-8.6063,-8.6072,-8.2325,-8.0106,-8.0056,0.0,0.0,0.0,0.0,0.0,0.0,0.0,0.0,0.0,0.0,0.0,0.0,0.0,0.0,0.0,0.0,0.0,0.0,0.0,0.0,0.0,0.0,0.0,0.0,0.0,0.0,0.0,0.0,0.0,0.0,0.0,0.0,0.0,0.0,0.0,0.0,0.0,0.0,0.0,0.0,0.0,0.0,0.0,0.0,0.0,0.0,0.0,0.0,0.0,0.0,0.0,0.0,0.0,0.0,0.0,0.0,0.0,0.0,0.0,0.0,0.0,0.0,0.0,0.0,0.0,0.0,0.0,0.0,0.0,0.0,0.0,0.0,0.0,0.0,0.0,0.0,0.0,0.0,0.0,0.0,0.0,0.0,0.0,0.0,0.0,0.0,0.0,0.0,0.0,0.0,0.0,0.0,0.0,0.0,0.0,0.0,0.0,0.0,0.0,0.0,0.0,0.0,0.0,-8.1528,-8.2326,0.0,-8.3862,-8.5366,-8.5924,-8.242,-8.011,-8.0126,0.0,0.0,0.0,0.0,0.0,0.0,0.0,0.0,0.0,0.0,0.0,0.0,0.0,0.0,0.0,0.0,0.0,0.0,0.0,0.0,0.0,0.0,0.0,0.0,0.0,0.0,0.0,0.0,0.0,0.0,0.0,0.0,0.0,0.0,0.0,0.0,0.0,0.0,0.0,0.0,0.0,0.0,0.0,0.0,0.0,0.0,0.0,0.0,0.0,0.0,0.0,0.0,0.0,0.0,0.0,0.0,0.0,0.0,0.0,0.0,0.0,0.0,0.0,0.0,0.0,0.0,0.0,0.0,0.0,0.0,0.0,0.0,0.0,0.0,0.0,0.0,0.0,0.0,0.0,0.0,0.0,0.0,0.0,0.0,0.0,0.0,0.0,0.0,0.0,0.0,0.0,0.0,0.0,0.0,0.0,0.0,0.0,0.0,0.0,0.0,0.0,0.0,0.0,-8.1014,-8.1949,-8.2095,-8.2699,-8.3631,-8.5638,-8.1907,-7.9783,-8.0126,-8.0079,0.0,0.0,0.0,0.0,0.0,0.0,0.0,0.0,0.0,0.0,0.0,0.0,0.0,0.0,0.0,0.0,0.0,0.0,0.0,0.0,0.0,0.0,0.0,0.0,0.0,0.0,0.0,0.0,0.0,0.0,0.0,0.0,0.0,0.0,0.0,0.0,0.0,0.0,0.0,0.0,0.0,0.0,0.0,0.0,0.0,0.0,0.0,0.0,0.0,0.0,0.0,0.0,0.0,0.0,0.0,0.0,0.0,0.0,0.0,0.0,0.0,0.0,0.0,0.0,0.0,0.0,0.0,0.0,0.0,0.0,0.0,0.0,0.0,0.0,0.0,0.0,0.0,0.0,0.0,0.0,0.0,0.0,0.0,0.0,0.0,0.0,0.0,0.0,0.0,0.0,0.0,0.0,0.0,0.0,0.0,0.0,0.0,0.0,0.0,0.0,0.0,0.0,-8.1622,-8.251,-8.1902,-8.1025,-8.0831,-8.14,-7.7247,-7.6161,-7.987,-8.0096,0.0,0.0,0.0,0.0,0.0,0.0,0.0,0.0,0.0,0.0,0.0,0.0,0.0,0.0,0.0,0.0,0.0,0.0,0.0,0.0,0.0,0.0,0.0,0.0,0.0,0.0,0.0,0.0,0.0,0.0,0.0,0.0,0.0,0.0,0.0,0.0,0.0,0.0,0.0,0.0,0.0,0.0,0.0,0.0,0.0,0.0,0.0,0.0,0.0,0.0,0.0,0.0,0.0,0.0,0.0,0.0,0.0,0.0,0.0,0.0,0.0,0.0,0.0,0.0,0.0,0.0,0.0,0.0,0.0,0.0,0.0,0.0,0.0,0.0,0.0,0.0,0.0,0.0,0.0,0.0,0.0,0.0,0.0,0.0,0.0,0.0,0.0,0.0,0.0,0.0,0.0,0.0,0.0,0.0,0.0,0.0,0.0,0.0,0.0,0.0,0.0,0.0,-8.0453,-8.144,-8.089,-7.8814,-7.7425,-7.6659,-7.4156,-7.3908,-7.6555,-7.8827,0.0,0.0,0.0,0.0,0.0,0.0,0.0,0.0,0.0,0.0,0.0,0.0,0.0,0.0,0.0,0.0,0.0,0.0,0.0,0.0,0.0,0.0,0.0,0.0,0.0,0.0,0.0,0.0,0.0,0.0,0.0,0.0,0.0,0.0,0.0,0.0,0.0,0.0,0.0,0.0,0.0,0.0,0.0,0.0,0.0,0.0,0.0,0.0,0.0,0.0,0.0,0.0,0.0,0.0,0.0,0.0,0.0,0.0,0.0,0.0,0.0,0.0,0.0,0.0,0.0,0.0,0.0,0.0,0.0,0.0,0.0,0.0,0.0,0.0,0.0,0.0,0.0,0.0,0.0,0.0,0.0,0.0,0.0,0.0,0.0,0.0,0.0,0.0,0.0,0.0,0.0,0.0,0.0,0.0,0.0,0.0,0.0,0.0,0.0,0.0,0.0,0.0,0.0,-7.9592,-8.0064,-7.7226,-7.4949,-7.3647,-7.3058,-7.2679,-7.2776,0.0,0.0,0.0,0.0,0.0,0.0,0.0,0.0,0.0,0.0,0.0,0.0,0.0,0.0,0.0,0.0,0.0,0.0,0.0,0.0,0.0,0.0,0.0,0.0,0.0,0.0,0.0,0.0,0.0,0.0,0.0,0.0,0.0,0.0,0.0,0.0,0.0,0.0,0.0,0.0,0.0,0.0,0.0,0.0,0.0,0.0,0.0,0.0,0.0,0.0,0.0,0.0,0.0,0.0,0.0,0.0,0.0,0.0,0.0,0.0,0.0,0.0,0.0,0.0,0.0,0.0,0.0,0.0,0.0,0.0,0.0,0.0,0.0,0.0,0.0,0.0,0.0,0.0,0.0,0.0,0.0,0.0,0.0,0.0,0.0,0.0,0.0,0.0,0.0,0.0,0.0,0.0,0.0,0.0,0.0,0.0,0.0,0.0,0.0,0.0,0.0,0.0,0.0,0.0,0.0,-8.1161,-7.8324,-7.6409,-7.6677,-7.4242,-7.2795,-7.2569,0.0,0.0,0.0,0.0,0.0,0.0,0.0,0.0,0.0,0.0,0.0,0.0,0.0,0.0]}]]]